Wetterdaten: Samstag, 05.03.2016
Datum Zeit Temp. A. Feuchte A. Luftdruck Regen Wind Richtung Richtung Sonnenschein ET UV Solar Taupunkt Windchill Windben Empfang
05.03.2016 00:00 2,2 C 83 % 998,8 hPa 0,0 l/m 7,4 km/h (2 Bft) NO 44 0 min 0,000 mm 0,0 UV-I 0 W/m -0,4 C 1,2 C 11,3 km/h (2 Bft) 100,00 %
05.03.2016 00:02 2,2 C 83 % 998,7 hPa 0,0 l/m 6,5 km/h (2 Bft) NO 39 0 min 0,000 mm 0,0 UV-I 0 W/m -0,4 C 2,1 C 8,0 km/h (2 Bft) 100,00 %
05.03.2016 00:03 2,2 C 83 % 998,7 hPa 0,0 l/m 6,4 km/h (2 Bft) O-NO 68 0 min 0,000 mm 0,0 UV-I 0 W/m -0,4 C 2,2 C 8,0 km/h (2 Bft) 100,00 %
05.03.2016 00:04 2,2 C 83 % 998,7 hPa 0,0 l/m 7,1 km/h (2 Bft) O-NO 73 0 min 0,000 mm 0,0 UV-I 0 W/m -0,4 C 1,5 C 11,3 km/h (2 Bft) 100,00 %
05.03.2016 00:05 2,2 C 83 % 998,7 hPa 0,0 l/m 8,0 km/h (2 Bft) O-NO 77 0 min 0,000 mm 0,0 UV-I 0 W/m -0,4 C 0,7 C 12,9 km/h (3 Bft) 100,00 %
05.03.2016 00:06 2,2 C 84 % 998,7 hPa 0,0 l/m 8,0 km/h (2 Bft) NO 45 0 min 0,000 mm 0,0 UV-I 0 W/m -0,2 C 0,7 C 9,7 km/h (2 Bft) 100,00 %
05.03.2016 00:07 2,2 C 84 % 998,7 hPa 0,0 l/m 7,5 km/h (2 Bft) O-NO 57 0 min 0,000 mm 0,0 UV-I 0 W/m -0,2 C 1,1 C 9,7 km/h (2 Bft) 100,00 %
05.03.2016 00:08 2,2 C 83 % 998,7 hPa 0,0 l/m 7,0 km/h (2 Bft) NO 50 0 min 0,000 mm 0,0 UV-I 0 W/m -0,4 C 1,6 C 9,7 km/h (2 Bft) 100,00 %
05.03.2016 00:09 2,2 C 83 % 998,7 hPa 0,0 l/m 6,9 km/h (2 Bft) O-NO 63 0 min 0,000 mm 0,0 UV-I 0 W/m -0,4 C 1,7 C 8,0 km/h (2 Bft) 100,00 %
05.03.2016 00:10 2,2 C 83 % 998,7 hPa 0,0 l/m 6,8 km/h (2 Bft) O-NO 62 0 min 0,000 mm 0,0 UV-I 0 W/m -0,4 C 1,8 C 8,0 km/h (2 Bft) 100,00 %
05.03.2016 00:11 2,2 C 83 % 998,7 hPa 0,0 l/m 7,2 km/h (2 Bft) NO 53 0 min 0,000 mm 0,0 UV-I 0 W/m -0,4 C 1,4 C 9,7 km/h (2 Bft) 95,65 %
05.03.2016 00:12 2,2 C 83 % 998,7 hPa 0,0 l/m 7,1 km/h (2 Bft) O-NO 58 0 min 0,000 mm 0,0 UV-I 0 W/m -0,4 C 1,5 C 8,0 km/h (2 Bft) 99,61 %
05.03.2016 00:13 2,2 C 84 % 998,7 hPa 0,0 l/m 7,0 km/h (2 Bft) NO 49 0 min 0,000 mm 0,0 UV-I 0 W/m -0,2 C 1,6 C 8,0 km/h (2 Bft) 97,73 %
05.03.2016 00:14 2,1 C 84 % 998,7 hPa 0,0 l/m 5,6 km/h (1 Bft) NO 55 0 min 0,000 mm 0,0 UV-I 0 W/m -0,3 C 2,1 C 8,0 km/h (2 Bft) 100,00 %
05.03.2016 00:15 2,1 C 84 % 998,6 hPa 0,0 l/m 4,7 km/h (1 Bft) NO 37 0 min 0,000 mm 0,0 UV-I 0 W/m -0,3 C 2,1 C 6,4 km/h (2 Bft) 96,97 %
05.03.2016 00:16 2,1 C 84 % 998,6 hPa 0,0 l/m 5,6 km/h (1 Bft) N-NO 32 0 min 0,000 mm 0,0 UV-I 0 W/m -0,3 C 2,1 C 6,4 km/h (2 Bft) 96,15 %
05.03.2016 00:17 2,1 C 84 % 998,6 hPa 0,0 l/m 3,7 km/h (1 Bft) NO 36 0 min 0,000 mm 0,0 UV-I 0 W/m -0,3 C 2,1 C 4,8 km/h (1 Bft) 100,00 %
05.03.2016 00:18 2,0 C 85 % 998,6 hPa 0,0 l/m 3,7 km/h (1 Bft) NO 36 0 min 0,000 mm 0,0 UV-I 0 W/m -0,3 C 2,0 C 4,8 km/h (1 Bft) 96,15 %
05.03.2016 00:19 2,0 C 85 % 998,7 hPa 0,0 l/m 2,5 km/h (1 Bft) NO 42 0 min 0,000 mm 0,0 UV-I 0 W/m -0,3 C 2,0 C 4,8 km/h (1 Bft) 100,00 %
05.03.2016 00:20 2,0 C 85 % 998,7 hPa 0,0 l/m 1,5 km/h (1 Bft) NO 42 0 min 0,000 mm 0,0 UV-I 0 W/m -0,3 C 2,0 C 3,2 km/h (1 Bft) 95,65 %
05.03.2016 00:21 2,0 C 85 % 998,7 hPa 0,0 l/m 2,7 km/h (1 Bft) NO 42 0 min 0,000 mm 0,0 UV-I 0 W/m -0,3 C 2,0 C 4,8 km/h (1 Bft) 100,00 %
05.03.2016 00:22 2,0 C 84 % 998,7 hPa 0,0 l/m 3,5 km/h (1 Bft) NO 42 0 min 0,000 mm 0,0 UV-I 0 W/m -0,4 C 2,0 C 4,8 km/h (1 Bft) 95,65 %
05.03.2016 00:23 1,9 C 85 % 998,7 hPa 0,0 l/m 3,4 km/h (1 Bft) NO 42 0 min 0,000 mm 0,0 UV-I 0 W/m -0,3 C 1,9 C 4,8 km/h (1 Bft) 96,30 %
05.03.2016 00:24 1,9 C 85 % 998,7 hPa 0,0 l/m 2,6 km/h (1 Bft) NO 42 0 min 0,000 mm 0,0 UV-I 0 W/m -0,3 C 1,9 C 3,2 km/h (1 Bft) 88,46 %
05.03.2016 00:25 1,9 C 85 % 998,6 hPa 0,0 l/m 3,7 km/h (1 Bft) NO 42 0 min 0,000 mm 0,0 UV-I 0 W/m -0,3 C 1,9 C 4,8 km/h (1 Bft) 95,83 %
05.03.2016 00:26 1,9 C 85 % 998,6 hPa 0,0 l/m 3,0 km/h (1 Bft) NO 42 0 min 0,000 mm 0,0 UV-I 0 W/m -0,3 C 1,9 C 4,8 km/h (1 Bft) 100,00 %
05.03.2016 00:27 1,9 C 85 % 998,6 hPa 0,0 l/m 3,3 km/h (1 Bft) NO 42 0 min 0,000 mm 0,0 UV-I 0 W/m -0,3 C 1,9 C 4,8 km/h (1 Bft) 95,83 %
05.03.2016 00:28 1,9 C 86 % 998,6 hPa 0,0 l/m 4,5 km/h (1 Bft) NO 41 0 min 0,000 mm 0,0 UV-I 0 W/m -0,2 C 1,9 C 6,4 km/h (2 Bft) 100,00 %
05.03.2016 00:29 1,8 C 86 % 998,6 hPa 0,0 l/m 4,0 km/h (1 Bft) NO 41 0 min 0,000 mm 0,0 UV-I 0 W/m -0,3 C 1,8 C 6,4 km/h (2 Bft) 95,83 %
05.03.2016 00:30 1,8 C 85 % 998,5 hPa 0,0 l/m 2,6 km/h (1 Bft) NO 41 0 min 0,000 mm 0,0 UV-I 0 W/m -0,4 C 1,8 C 3,2 km/h (1 Bft) 100,00 %
05.03.2016 00:31 1,8 C 85 % 998,5 hPa 0,0 l/m 2,8 km/h (1 Bft) NO 41 0 min 0,000 mm 0,0 UV-I 0 W/m -0,4 C 1,8 C 4,8 km/h (1 Bft) 96,30 %
05.03.2016 00:32 1,8 C 85 % 998,5 hPa 0,0 l/m 1,9 km/h (1 Bft) NO 41 0 min 0,000 mm 0,0 UV-I 0 W/m -0,4 C 1,8 C 3,2 km/h (1 Bft) 100,00 %
05.03.2016 00:33 1,8 C 85 % 998,5 hPa 0,0 l/m 0,5 km/h (0 Bft) NO 41 0 min 0,000 mm 0,0 UV-I 0 W/m -0,4 C 1,8 C 1,6 km/h (1 Bft) 96,15 %
05.03.2016 00:34 1,8 C 86 % 998,5 hPa 0,0 l/m 0,7 km/h (0 Bft) NO 41 0 min 0,000 mm 0,0 UV-I 0 W/m -0,3 C 1,8 C 1,6 km/h (1 Bft) 100,00 %
05.03.2016 00:35 1,7 C 86 % 998,5 hPa 0,0 l/m 0,9 km/h (0 Bft) NO 40 0 min 0,000 mm 0,0 UV-I 0 W/m -0,4 C 1,7 C 1,6 km/h (1 Bft) 97,56 %
05.03.2016 00:36 1,7 C 86 % 998,5 hPa 0,0 l/m 0,9 km/h (0 Bft) NO 40 0 min 0,000 mm 0,0 UV-I 0 W/m -0,4 C 1,7 C 1,6 km/h (1 Bft) 95,65 %
05.03.2016 00:37 1,6 C 86 % 998,5 hPa 0,0 l/m 0,3 km/h (0 Bft) NO 40 0 min 0,000 mm 0,0 UV-I 0 W/m -0,5 C 1,6 C 1,6 km/h (1 Bft) 95,83 %
05.03.2016 00:38 1,6 C 87 % 998,6 hPa 0,0 l/m 0,0 km/h (0 Bft) NO 40 0 min 0,000 mm 0,0 UV-I 0 W/m -0,3 C 1,6 C 0,0 km/h (0 Bft) 95,83 %
05.03.2016 00:39 1,6 C 87 % 998,6 hPa 0,0 l/m 0,4 km/h (0 Bft) NO 40 0 min 0,000 mm 0,0 UV-I 0 W/m -0,3 C 1,6 C 1,6 km/h (1 Bft) 100,00 %
05.03.2016 00:40 1,5 C 87 % 998,6 hPa 0,0 l/m 0,3 km/h (0 Bft) NO 40 0 min 0,000 mm 0,0 UV-I 0 W/m -0,4 C 1,5 C 1,6 km/h (1 Bft) 96,97 %
05.03.2016 00:41 1,4 C 87 % 998,6 hPa 0,0 l/m 0,5 km/h (0 Bft) NO 39 0 min 0,000 mm 0,0 UV-I 0 W/m -0,5 C 1,4 C 3,2 km/h (1 Bft) 96,15 %
05.03.2016 00:42 1,4 C 87 % 998,6 hPa 0,0 l/m 1,8 km/h (1 Bft) N-NO 27 0 min 0,000 mm 0,0 UV-I 0 W/m -0,5 C 1,4 C 4,8 km/h (1 Bft) 100,00 %
05.03.2016 00:43 1,4 C 87 % 998,6 hPa 0,0 l/m 2,5 km/h (1 Bft) N-NO 26 0 min 0,000 mm 0,0 UV-I 0 W/m -0,5 C 1,4 C 4,8 km/h (1 Bft) 95,65 %
05.03.2016 00:44 1,4 C 87 % 998,6 hPa 0,0 l/m 4,4 km/h (1 Bft) N-NO 28 0 min 0,000 mm 0,0 UV-I 0 W/m -0,5 C 1,4 C 6,4 km/h (2 Bft) 100,00 %
05.03.2016 00:45 1,4 C 87 % 998,6 hPa 0,0 l/m 5,6 km/h (1 Bft) N-NO 30 0 min 0,000 mm 0,0 UV-I 0 W/m -0,5 C 1,4 C 8,0 km/h (2 Bft) 90,91 %
05.03.2016 00:46 1,5 C 87 % 998,6 hPa 0,0 l/m 5,2 km/h (1 Bft) NO 38 0 min 0,000 mm 0,0 UV-I 0 W/m -0,4 C 1,5 C 9,7 km/h (2 Bft) 100,00 %
05.03.2016 00:47 1,5 C 87 % 998,6 hPa 0,0 l/m 5,1 km/h (1 Bft) O-NO 57 0 min 0,000 mm 0,0 UV-I 0 W/m -0,4 C 1,5 C 6,4 km/h (2 Bft) 96,15 %
05.03.2016 00:48 1,6 C 86 % 998,6 hPa 0,0 l/m 4,6 km/h (1 Bft) O-NO 67 0 min 0,000 mm 0,0 UV-I 0 W/m -0,5 C 1,6 C 6,4 km/h (2 Bft) 100,00 %
05.03.2016 00:49 1,6 C 86 % 998,6 hPa 0,0 l/m 4,8 km/h (1 Bft) O-NO 59 0 min 0,000 mm 0,0 UV-I 0 W/m -0,5 C 1,6 C 6,4 km/h (2 Bft) 96,15 %
05.03.2016 00:50 1,7 C 86 % 998,6 hPa 0,0 l/m 6,0 km/h (2 Bft) NO 53 0 min 0,000 mm 0,0 UV-I 0 W/m -0,4 C 1,7 C 8,0 km/h (2 Bft) 100,00 %
05.03.2016 00:51 1,7 C 86 % 998,5 hPa 0,0 l/m 5,7 km/h (1 Bft) NO 55 0 min 0,000 mm 0,0 UV-I 0 W/m -0,4 C 1,7 C 8,0 km/h (2 Bft) 100,00 %
05.03.2016 00:52 1,7 C 86 % 998,5 hPa 0,0 l/m 4,4 km/h (1 Bft) O-NO 57 0 min 0,000 mm 0,0 UV-I 0 W/m -0,4 C 1,7 C 6,4 km/h (2 Bft) 100,00 %
05.03.2016 00:53 1,7 C 85 % 998,5 hPa 0,0 l/m 3,2 km/h (1 Bft) NO 47 0 min 0,000 mm 0,0 UV-I 0 W/m -0,5 C 1,7 C 4,8 km/h (1 Bft) 100,00 %
05.03.2016 00:54 1,8 C 85 % 998,6 hPa 0,0 l/m 3,4 km/h (1 Bft) O-NO 61 0 min 0,000 mm 0,0 UV-I 0 W/m -0,4 C 1,8 C 4,8 km/h (1 Bft) 100,00 %
05.03.2016 00:55 1,8 C 85 % 998,6 hPa 0,0 l/m 2,9 km/h (1 Bft) NO 46 0 min 0,000 mm 0,0 UV-I 0 W/m -0,4 C 1,8 C 3,2 km/h (1 Bft) 100,00 %
05.03.2016 00:56 1,8 C 85 % 998,6 hPa 0,0 l/m 2,8 km/h (1 Bft) NO 46 0 min 0,000 mm 0,0 UV-I 0 W/m -0,4 C 1,8 C 3,2 km/h (1 Bft) 95,65 %
05.03.2016 00:57 1,7 C 86 % 998,5 hPa 0,0 l/m 4,2 km/h (1 Bft) NO 42 0 min 0,000 mm 0,0 UV-I 0 W/m -0,4 C 1,7 C 6,4 km/h (2 Bft) 100,00 %
05.03.2016 00:58 1,7 C 86 % 998,4 hPa 0,0 l/m 4,5 km/h (1 Bft) NO 37 0 min 0,000 mm 0,0 UV-I 0 W/m -0,4 C 1,7 C 6,4 km/h (2 Bft) 96,15 %
05.03.2016 00:59 1,7 C 86 % 998,4 hPa 0,0 l/m 5,2 km/h (1 Bft) N-NO 26 0 min 0,000 mm 0,0 UV-I 0 W/m -0,4 C 1,7 C 8,0 km/h (2 Bft) 100,00 %
05.03.2016 01:00 1,6 C 87 % 998,4 hPa 0,0 l/m 7,5 km/h (2 Bft) N-NO 27 0 min 0,000 mm 0,0 UV-I 0 W/m -0,3 C 0,5 C 11,3 km/h (2 Bft) 100,00 %
05.03.2016 01:01 1,6 C 87 % 998,4 hPa 0,0 l/m 9,3 km/h (2 Bft) N-NO 16 0 min 0,000 mm 0,0 UV-I 0 W/m -0,3 C -1,1 C 11,3 km/h (2 Bft) 100,00 %
05.03.2016 01:02 1,6 C 86 % 998,3 hPa 0,0 l/m 11,5 km/h (2 Bft) N-NO 22 0 min 0,000 mm 0,0 UV-I 0 W/m -0,5 C -2,8 C 12,9 km/h (3 Bft) 100,00 %
05.03.2016 01:03 1,6 C 86 % 998,3 hPa 0,0 l/m 12,7 km/h (3 Bft) N-NO 20 0 min 0,000 mm 0,0 UV-I 0 W/m -0,5 C -3,6 C 14,5 km/h (3 Bft) 100,00 %
05.03.2016 01:04 1,7 C 86 % 998,3 hPa 0,0 l/m 13,9 km/h (3 Bft) N-NO 28 0 min 0,000 mm 0,0 UV-I 0 W/m -0,4 C -4,3 C 16,1 km/h (3 Bft) 100,00 %
05.03.2016 01:05 1,7 C 86 % 998,2 hPa 0,0 l/m 11,7 km/h (2 Bft) N-NO 19 0 min 0,000 mm 0,0 UV-I 0 W/m -0,4 C -2,8 C 16,1 km/h (3 Bft) 96,30 %
05.03.2016 01:06 1,7 C 86 % 998,2 hPa 0,0 l/m 10,4 km/h (2 Bft) NO 41 0 min 0,000 mm 0,0 UV-I 0 W/m -0,4 C -1,9 C 16,1 km/h (3 Bft) 100,00 %
05.03.2016 01:07 1,7 C 86 % 998,3 hPa 0,0 l/m 5,9 km/h (2 Bft) NO 35 0 min 0,000 mm 0,0 UV-I 0 W/m -0,4 C 1,7 C 8,0 km/h (2 Bft) 100,00 %
05.03.2016 01:08 1,7 C 86 % 998,3 hPa 0,0 l/m 6,3 km/h (2 Bft) NO 46 0 min 0,000 mm 0,0 UV-I 0 W/m -0,4 C 1,7 C 8,0 km/h (2 Bft) 98,15 %
05.03.2016 01:09 1,7 C 86 % 998,3 hPa 0,0 l/m 5,3 km/h (1 Bft) NO 44 0 min 0,000 mm 0,0 UV-I 0 W/m -0,4 C 1,7 C 6,4 km/h (2 Bft) 100,00 %
05.03.2016 01:10 1,7 C 86 % 998,4 hPa 0,0 l/m 4,7 km/h (1 Bft) NO 34 0 min 0,000 mm 0,0 UV-I 0 W/m -0,4 C 1,7 C 8,0 km/h (2 Bft) 100,00 %
05.03.2016 01:11 1,6 C 86 % 998,4 hPa 0,0 l/m 2,8 km/h (1 Bft) NO 46 0 min 0,000 mm 0,0 UV-I 0 W/m -0,5 C 1,6 C 6,4 km/h (2 Bft) 100,00 %
05.03.2016 01:12 1,6 C 86 % 998,4 hPa 0,0 l/m 1,6 km/h (1 Bft) NO 46 0 min 0,000 mm 0,0 UV-I 0 W/m -0,5 C 1,6 C 3,2 km/h (1 Bft) 100,00 %
05.03.2016 01:13 1,7 C 86 % 998,4 hPa 0,0 l/m 1,6 km/h (1 Bft) NO 46 0 min 0,000 mm 0,0 UV-I 0 W/m -0,4 C 1,7 C 3,2 km/h (1 Bft) 100,00 %
05.03.2016 01:14 1,7 C 86 % 998,4 hPa 0,0 l/m 3,1 km/h (1 Bft) O-NO 63 0 min 0,000 mm 0,0 UV-I 0 W/m -0,4 C 1,7 C 6,4 km/h (2 Bft) 100,00 %
05.03.2016 01:15 1,7 C 86 % 998,4 hPa 0,0 l/m 5,2 km/h (1 Bft) NO 53 0 min 0,000 mm 0,0 UV-I 0 W/m -0,4 C 1,7 C 6,4 km/h (2 Bft) 100,00 %
05.03.2016 01:16 1,7 C 86 % 998,3 hPa 0,0 l/m 5,5 km/h (1 Bft) NO 46 0 min 0,000 mm 0,0 UV-I 0 W/m -0,4 C 1,7 C 6,4 km/h (2 Bft) 100,00 %
05.03.2016 01:17 1,7 C 86 % 998,3 hPa 0,0 l/m 5,8 km/h (2 Bft) NO 36 0 min 0,000 mm 0,0 UV-I 0 W/m -0,4 C 1,7 C 6,4 km/h (2 Bft) 100,00 %
05.03.2016 01:18 1,6 C 86 % 998,3 hPa 0,0 l/m 6,3 km/h (2 Bft) NO 42 0 min 0,000 mm 0,0 UV-I 0 W/m -0,5 C 1,6 C 9,7 km/h (2 Bft) 100,00 %
05.03.2016 01:19 1,6 C 86 % 998,3 hPa 0,0 l/m 3,2 km/h (1 Bft) N-NO 32 0 min 0,000 mm 0,0 UV-I 0 W/m -0,5 C 1,6 C 4,8 km/h (1 Bft) 95,65 %
05.03.2016 01:20 1,6 C 86 % 998,3 hPa 0,0 l/m 5,4 km/h (1 Bft) O-NO 59 0 min 0,000 mm 0,0 UV-I 0 W/m -0,5 C 1,6 C 8,0 km/h (2 Bft) 100,00 %
05.03.2016 01:21 1,6 C 86 % 998,3 hPa 0,0 l/m 4,1 km/h (1 Bft) O-NO 68 0 min 0,000 mm 0,0 UV-I 0 W/m -0,5 C 1,6 C 4,8 km/h (1 Bft) 100,00 %
05.03.2016 01:22 1,7 C 86 % 998,3 hPa 0,0 l/m 5,0 km/h (1 Bft) O-NO 58 0 min 0,000 mm 0,0 UV-I 0 W/m -0,4 C 1,7 C 6,4 km/h (2 Bft) 100,00 %
05.03.2016 01:23 1,6 C 86 % 998,3 hPa 0,0 l/m 5,6 km/h (1 Bft) NO 53 0 min 0,000 mm 0,0 UV-I 0 W/m -0,5 C 1,6 C 6,4 km/h (2 Bft) 100,00 %
05.03.2016 01:24 1,6 C 86 % 998,2 hPa 0,0 l/m 7,6 km/h (2 Bft) O-NO 61 0 min 0,000 mm 0,0 UV-I 0 W/m -0,5 C 0,4 C 9,7 km/h (2 Bft) 100,00 %
05.03.2016 01:25 1,6 C 86 % 998,2 hPa 0,0 l/m 8,4 km/h (2 Bft) O-NO 63 0 min 0,000 mm 0,0 UV-I 0 W/m -0,5 C -0,3 C 11,3 km/h (2 Bft) 100,00 %
05.03.2016 01:26 1,6 C 86 % 998,2 hPa 0,0 l/m 6,9 km/h (2 Bft) NO 47 0 min 0,000 mm 0,0 UV-I 0 W/m -0,5 C 1,1 C 9,7 km/h (2 Bft) 100,00 %
05.03.2016 01:27 1,6 C 86 % 998,2 hPa 0,0 l/m 6,4 km/h (2 Bft) O-NO 77 0 min 0,000 mm 0,0 UV-I 0 W/m -0,5 C 1,6 C 8,0 km/h (2 Bft) 100,00 %
05.03.2016 01:28 1,6 C 86 % 998,2 hPa 0,0 l/m 5,3 km/h (1 Bft) NO 46 0 min 0,000 mm 0,0 UV-I 0 W/m -0,5 C 1,6 C 8,0 km/h (2 Bft) 100,00 %
05.03.2016 01:29 1,6 C 86 % 998,2 hPa 0,0 l/m 6,2 km/h (2 Bft) O-NO 59 0 min 0,000 mm 0,0 UV-I 0 W/m -0,5 C 1,6 C 8,0 km/h (2 Bft) 100,00 %
05.03.2016 01:30 1,6 C 86 % 998,2 hPa 0,0 l/m 5,6 km/h (1 Bft) O-NO 71 0 min 0,000 mm 0,0 UV-I 0 W/m -0,5 C 1,6 C 8,0 km/h (2 Bft) 100,00 %
05.03.2016 01:31 1,7 C 86 % 998,2 hPa 0,0 l/m 5,3 km/h (1 Bft) NO 52 0 min 0,000 mm 0,0 UV-I 0 W/m -0,4 C 1,7 C 6,4 km/h (2 Bft) 96,30 %
05.03.2016 01:32 1,6 C 86 % 998,1 hPa 0,0 l/m 5,7 km/h (1 Bft) NO 53 0 min 0,000 mm 0,0 UV-I 0 W/m -0,5 C 1,6 C 6,4 km/h (2 Bft) 100,00 %
05.03.2016 01:33 1,6 C 86 % 998,1 hPa 0,0 l/m 5,7 km/h (1 Bft) NO 55 0 min 0,000 mm 0,0 UV-I 0 W/m -0,5 C 1,6 C 9,7 km/h (2 Bft) 100,00 %
05.03.2016 01:34 1,7 C 86 % 998,0 hPa 0,0 l/m 5,9 km/h (2 Bft) O-NO 65 0 min 0,000 mm 0,0 UV-I 0 W/m -0,4 C 1,7 C 6,4 km/h (2 Bft) 100,00 %
05.03.2016 01:35 1,6 C 86 % 997,9 hPa 0,0 l/m 7,6 km/h (2 Bft) NO 49 0 min 0,000 mm 0,0 UV-I 0 W/m -0,5 C 0,4 C 9,7 km/h (2 Bft) 100,00 %
05.03.2016 01:36 1,6 C 86 % 997,9 hPa 0,0 l/m 6,2 km/h (2 Bft) NO 53 0 min 0,000 mm 0,0 UV-I 0 W/m -0,5 C 1,6 C 8,0 km/h (2 Bft) 100,00 %
05.03.2016 01:37 1,6 C 86 % 997,9 hPa 0,0 l/m 5,0 km/h (1 Bft) NO 53 0 min 0,000 mm 0,0 UV-I 0 W/m -0,5 C 1,6 C 6,4 km/h (2 Bft) 100,00 %
05.03.2016 01:38 1,6 C 86 % 997,9 hPa 0,0 l/m 5,0 km/h (1 Bft) O-NO 60 0 min 0,000 mm 0,0 UV-I 0 W/m -0,5 C 1,6 C 6,4 km/h (2 Bft) 100,00 %
05.03.2016 01:39 1,6 C 86 % 997,9 hPa 0,0 l/m 7,0 km/h (2 Bft) O-NO 57 0 min 0,000 mm 0,0 UV-I 0 W/m -0,5 C 1,0 C 8,0 km/h (2 Bft) 100,00 %
05.03.2016 01:40 1,6 C 86 % 997,9 hPa 0,0 l/m 5,9 km/h (2 Bft) O-NO 62 0 min 0,000 mm 0,0 UV-I 0 W/m -0,5 C 1,6 C 8,0 km/h (2 Bft) 100,00 %
05.03.2016 01:41 1,6 C 86 % 997,9 hPa 0,0 l/m 4,1 km/h (1 Bft) O-NO 61 0 min 0,000 mm 0,0 UV-I 0 W/m -0,5 C 1,6 C 4,8 km/h (1 Bft) 100,00 %
05.03.2016 01:42 1,6 C 86 % 997,9 hPa 0,0 l/m 4,3 km/h (1 Bft) O-NO 60 0 min 0,000 mm 0,0 UV-I 0 W/m -0,5 C 1,6 C 4,8 km/h (1 Bft) 100,00 %
05.03.2016 01:43 1,6 C 86 % 997,8 hPa 0,0 l/m 4,0 km/h (1 Bft) NO 55 0 min 0,000 mm 0,0 UV-I 0 W/m -0,5 C 1,6 C 6,4 km/h (2 Bft) 100,00 %
05.03.2016 01:44 1,5 C 86 % 997,8 hPa 0,0 l/m 3,4 km/h (1 Bft) NO 42 0 min 0,000 mm 0,0 UV-I 0 W/m -0,6 C 1,5 C 4,8 km/h (1 Bft) 100,00 %
05.03.2016 01:45 1,4 C 86 % 997,8 hPa 0,0 l/m 4,3 km/h (1 Bft) NO 53 0 min 0,000 mm 0,0 UV-I 0 W/m -0,7 C 1,4 C 4,8 km/h (1 Bft) 100,00 %
05.03.2016 01:46 1,4 C 87 % 997,8 hPa 0,0 l/m 4,9 km/h (1 Bft) NO 44 0 min 0,000 mm 0,0 UV-I 0 W/m -0,5 C 1,4 C 8,0 km/h (2 Bft) 100,00 %
05.03.2016 01:47 1,4 C 87 % 997,8 hPa 0,0 l/m 3,8 km/h (1 Bft) NO 53 0 min 0,000 mm 0,0 UV-I 0 W/m -0,5 C 1,4 C 6,4 km/h (2 Bft) 100,00 %
05.03.2016 01:48 1,4 C 87 % 997,8 hPa 0,0 l/m 3,4 km/h (1 Bft) NO 53 0 min 0,000 mm 0,0 UV-I 0 W/m -0,5 C 1,4 C 4,8 km/h (1 Bft) 100,00 %
05.03.2016 01:49 1,3 C 87 % 997,8 hPa 0,0 l/m 2,0 km/h (1 Bft) NO 56 0 min 0,000 mm 0,0 UV-I 0 W/m -0,6 C 1,3 C 4,8 km/h (1 Bft) 95,83 %
05.03.2016 01:50 1,3 C 87 % 997,9 hPa 0,0 l/m 2,3 km/h (1 Bft) NO 56 0 min 0,000 mm 0,0 UV-I 0 W/m -0,6 C 1,3 C 3,2 km/h (1 Bft) 100,00 %
05.03.2016 01:51 1,3 C 87 % 997,9 hPa 0,0 l/m 0,1 km/h (0 Bft) NO 56 0 min 0,000 mm 0,0 UV-I 0 W/m -0,6 C 1,3 C 1,6 km/h (1 Bft) 100,00 %
05.03.2016 01:52 1,4 C 87 % 998,1 hPa 0,0 l/m 0,5 km/h (0 Bft) NO 56 0 min 0,000 mm 0,0 UV-I 0 W/m -0,5 C 1,4 C 1,6 km/h (1 Bft) 96,55 %
05.03.2016 01:53 1,4 C 87 % 998,1 hPa 0,0 l/m 1,2 km/h (1 Bft) NO 56 0 min 0,000 mm 0,0 UV-I 0 W/m -0,5 C 1,4 C 3,2 km/h (1 Bft) 100,00 %
05.03.2016 01:54 1,4 C 87 % 998,1 hPa 0,0 l/m 0,1 km/h (0 Bft) NO 56 0 min 0,000 mm 0,0 UV-I 0 W/m -0,5 C 1,4 C 1,6 km/h (1 Bft) 100,00 %
05.03.2016 01:55 1,4 C 87 % 998,1 hPa 0,0 l/m 0,0 km/h (0 Bft) NO 56 0 min 0,000 mm 0,0 UV-I 0 W/m -0,5 C 1,4 C 0,0 km/h (0 Bft) 100,00 %
05.03.2016 01:56 1,3 C 87 % 998,1 hPa 0,0 l/m 0,2 km/h (0 Bft) NO 56 0 min 0,000 mm 0,0 UV-I 0 W/m -0,6 C 1,3 C 1,6 km/h (1 Bft) 100,00 %
05.03.2016 01:57 1,3 C 87 % 998,1 hPa 0,0 l/m 0,4 km/h (0 Bft) NO 56 0 min 0,000 mm 0,0 UV-I 0 W/m -0,6 C 1,3 C 1,6 km/h (1 Bft) 100,00 %
05.03.2016 01:58 1,3 C 87 % 998,1 hPa 0,0 l/m 1,2 km/h (1 Bft) NO 56 0 min 0,000 mm 0,0 UV-I 0 W/m -0,6 C 1,3 C 1,6 km/h (1 Bft) 100,00 %
05.03.2016 01:59 1,3 C 87 % 998,1 hPa 0,0 l/m 0,7 km/h (0 Bft) NO 56 0 min 0,000 mm 0,0 UV-I 0 W/m -0,6 C 1,3 C 1,6 km/h (1 Bft) 100,00 %
05.03.2016 02:00 1,3 C 87 % 998,1 hPa 0,0 l/m 1,1 km/h (1 Bft) NO 56 0 min 0,000 mm 0,0 UV-I 0 W/m -0,6 C 1,3 C 1,6 km/h (1 Bft) 100,00 %
05.03.2016 02:01 1,3 C 87 % 998,1 hPa 0,0 l/m 1,6 km/h (1 Bft) NO 56 0 min 0,000 mm 0,0 UV-I 0 W/m -0,6 C 1,3 C 3,2 km/h (1 Bft) 100,00 %
05.03.2016 02:02 1,3 C 87 % 998,1 hPa 0,0 l/m 3,1 km/h (1 Bft) NO 56 0 min 0,000 mm 0,0 UV-I 0 W/m -0,6 C 1,3 C 4,8 km/h (1 Bft) 100,00 %
05.03.2016 02:03 1,3 C 87 % 998,1 hPa 0,0 l/m 3,4 km/h (1 Bft) NO 56 0 min 0,000 mm 0,0 UV-I 0 W/m -0,6 C 1,3 C 4,8 km/h (1 Bft) 96,15 %
05.03.2016 02:04 1,3 C 87 % 998,0 hPa 0,0 l/m 3,2 km/h (1 Bft) NO 56 0 min 0,000 mm 0,0 UV-I 0 W/m -0,6 C 1,3 C 4,8 km/h (1 Bft) 100,00 %
05.03.2016 02:05 1,3 C 87 % 997,9 hPa 0,0 l/m 3,6 km/h (1 Bft) O-NO 59 0 min 0,000 mm 0,0 UV-I 0 W/m -0,6 C 1,3 C 4,8 km/h (1 Bft) 100,00 %
05.03.2016 02:06 1,3 C 86 % 997,9 hPa 0,0 l/m 3,0 km/h (1 Bft) O-NO 59 0 min 0,000 mm 0,0 UV-I 0 W/m -0,8 C 1,3 C 4,8 km/h (1 Bft) 100,00 %
05.03.2016 02:07 1,4 C 86 % 997,8 hPa 0,0 l/m 3,9 km/h (1 Bft) NO 55 0 min 0,000 mm 0,0 UV-I 0 W/m -0,7 C 1,4 C 6,4 km/h (2 Bft) 100,00 %
05.03.2016 02:08 1,4 C 86 % 997,8 hPa 0,0 l/m 4,6 km/h (1 Bft) NO 55 0 min 0,000 mm 0,0 UV-I 0 W/m -0,7 C 1,4 C 6,4 km/h (2 Bft) 96,30 %
05.03.2016 02:09 1,4 C 86 % 997,8 hPa 0,0 l/m 3,8 km/h (1 Bft) NO 55 0 min 0,000 mm 0,0 UV-I 0 W/m -0,7 C 1,4 C 4,8 km/h (1 Bft) 100,00 %
05.03.2016 02:10 1,4 C 86 % 997,8 hPa 0,0 l/m 3,9 km/h (1 Bft) O-NO 60 0 min 0,000 mm 0,0 UV-I 0 W/m -0,7 C 1,4 C 4,8 km/h (1 Bft) 95,83 %
05.03.2016 02:11 1,4 C 86 % 997,9 hPa 0,0 l/m 3,6 km/h (1 Bft) O-NO 60 0 min 0,000 mm 0,0 UV-I 0 W/m -0,7 C 1,4 C 4,8 km/h (1 Bft) 100,00 %
05.03.2016 02:12 1,4 C 86 % 997,9 hPa 0,0 l/m 3,2 km/h (1 Bft) O-NO 60 0 min 0,000 mm 0,0 UV-I 0 W/m -0,7 C 1,4 C 4,8 km/h (1 Bft) 100,00 %
05.03.2016 02:13 1,4 C 86 % 997,9 hPa 0,0 l/m 3,2 km/h (1 Bft) O-NO 60 0 min 0,000 mm 0,0 UV-I 0 W/m -0,7 C 1,4 C 4,8 km/h (1 Bft) 95,65 %
05.03.2016 02:14 1,4 C 86 % 997,8 hPa 0,0 l/m 3,1 km/h (1 Bft) O-NO 59 0 min 0,000 mm 0,0 UV-I 0 W/m -0,7 C 1,4 C 4,8 km/h (1 Bft) 100,00 %
05.03.2016 02:15 1,3 C 86 % 997,8 hPa 0,0 l/m 3,6 km/h (1 Bft) O-NO 59 0 min 0,000 mm 0,0 UV-I 0 W/m -0,8 C 1,3 C 4,8 km/h (1 Bft) 100,00 %
05.03.2016 02:16 1,3 C 86 % 997,8 hPa 0,0 l/m 3,4 km/h (1 Bft) O-NO 60 0 min 0,000 mm 0,0 UV-I 0 W/m -0,8 C 1,3 C 4,8 km/h (1 Bft) 100,00 %
05.03.2016 02:17 1,3 C 86 % 997,8 hPa 0,0 l/m 3,8 km/h (1 Bft) O-NO 62 0 min 0,000 mm 0,0 UV-I 0 W/m -0,8 C 1,3 C 4,8 km/h (1 Bft) 95,83 %
05.03.2016 02:18 1,3 C 86 % 997,7 hPa 0,0 l/m 5,3 km/h (1 Bft) O-NO 63 0 min 0,000 mm 0,0 UV-I 0 W/m -0,8 C 1,3 C 8,0 km/h (2 Bft) 96,15 %
05.03.2016 02:19 1,3 C 87 % 997,7 hPa 0,0 l/m 5,1 km/h (1 Bft) O-NO 70 0 min 0,000 mm 0,0 UV-I 0 W/m -0,6 C 1,3 C 6,4 km/h (2 Bft) 100,00 %
05.03.2016 02:20 1,2 C 87 % 997,7 hPa 0,0 l/m 6,7 km/h (2 Bft) O-NO 70 0 min 0,000 mm 0,0 UV-I 0 W/m -0,7 C 0,9 C 8,0 km/h (2 Bft) 96,67 %
05.03.2016 02:21 1,2 C 87 % 997,7 hPa 0,0 l/m 6,0 km/h (2 Bft) O-NO 74 0 min 0,000 mm 0,0 UV-I 0 W/m -0,7 C 1,2 C 8,0 km/h (2 Bft) 96,30 %
05.03.2016 02:22 1,2 C 87 % 997,6 hPa 0,0 l/m 6,5 km/h (2 Bft) O-NO 67 0 min 0,000 mm 0,0 UV-I 0 W/m -0,7 C 1,1 C 8,0 km/h (2 Bft) 95,65 %
05.03.2016 02:23 1,2 C 87 % 997,6 hPa 0,0 l/m 4,7 km/h (1 Bft) O-NO 62 0 min 0,000 mm 0,0 UV-I 0 W/m -0,7 C 1,2 C 6,4 km/h (2 Bft) 100,00 %
05.03.2016 02:24 1,2 C 87 % 997,6 hPa 0,0 l/m 5,0 km/h (1 Bft) O-NO 66 0 min 0,000 mm 0,0 UV-I 0 W/m -0,7 C 1,2 C 6,4 km/h (2 Bft) 95,65 %
05.03.2016 02:25 1,2 C 87 % 997,6 hPa 0,0 l/m 4,7 km/h (1 Bft) O-NO 69 0 min 0,000 mm 0,0 UV-I 0 W/m -0,7 C 1,2 C 6,4 km/h (2 Bft) 100,00 %
05.03.2016 02:26 1,1 C 87 % 997,6 hPa 0,0 l/m 4,1 km/h (1 Bft) O-NO 67 0 min 0,000 mm 0,0 UV-I 0 W/m -0,8 C 1,1 C 6,4 km/h (2 Bft) 95,65 %
05.03.2016 02:27 1,1 C 87 % 997,5 hPa 0,0 l/m 5,6 km/h (1 Bft) O-NO 73 0 min 0,000 mm 0,0 UV-I 0 W/m -0,8 C 1,1 C 6,4 km/h (2 Bft) 96,30 %
05.03.2016 02:28 1,1 C 87 % 997,5 hPa 0,0 l/m 4,6 km/h (1 Bft) O-NO 67 0 min 0,000 mm 0,0 UV-I 0 W/m -0,8 C 1,1 C 8,0 km/h (2 Bft) 95,65 %
05.03.2016 02:29 1,1 C 87 % 997,5 hPa 0,0 l/m 5,7 km/h (1 Bft) O-NO 78 0 min 0,000 mm 0,0 UV-I 0 W/m -0,8 C 1,1 C 8,0 km/h (2 Bft) 95,83 %
05.03.2016 02:30 1,1 C 88 % 997,6 hPa 0,0 l/m 5,1 km/h (1 Bft) O-NO 71 0 min 0,000 mm 0,0 UV-I 0 W/m -0,7 C 1,1 C 6,4 km/h (2 Bft) 100,00 %
05.03.2016 02:31 1,1 C 87 % 997,6 hPa 0,0 l/m 4,8 km/h (1 Bft) O-NO 69 0 min 0,000 mm 0,0 UV-I 0 W/m -0,8 C 1,1 C 8,0 km/h (2 Bft) 91,67 %
05.03.2016 02:32 1,2 C 87 % 997,5 hPa 0,0 l/m 5,0 km/h (1 Bft) O-NO 78 0 min 0,000 mm 0,0 UV-I 0 W/m -0,7 C 1,2 C 8,0 km/h (2 Bft) 100,00 %
05.03.2016 02:33 1,2 C 87 % 997,5 hPa 0,0 l/m 3,9 km/h (1 Bft) O-NO 66 0 min 0,000 mm 0,0 UV-I 0 W/m -0,7 C 1,2 C 6,4 km/h (2 Bft) 91,67 %
05.03.2016 02:34 1,2 C 87 % 997,5 hPa 0,0 l/m 5,1 km/h (1 Bft) O-NO 78 0 min 0,000 mm 0,0 UV-I 0 W/m -0,7 C 1,2 C 6,4 km/h (2 Bft) 100,00 %
05.03.2016 02:35 1,2 C 87 % 997,5 hPa 0,0 l/m 5,4 km/h (1 Bft) O-NO 70 0 min 0,000 mm 0,0 UV-I 0 W/m -0,7 C 1,2 C 8,0 km/h (2 Bft) 95,65 %
05.03.2016 02:36 1,2 C 87 % 997,5 hPa 0,0 l/m 4,9 km/h (1 Bft) O-NO 71 0 min 0,000 mm 0,0 UV-I 0 W/m -0,7 C 1,2 C 6,4 km/h (2 Bft) 96,67 %
05.03.2016 02:37 1,2 C 87 % 997,5 hPa 0,0 l/m 4,7 km/h (1 Bft) O-NO 74 0 min 0,000 mm 0,0 UV-I 0 W/m -0,7 C 1,2 C 6,4 km/h (2 Bft) 100,00 %
05.03.2016 02:38 1,2 C 87 % 997,5 hPa 0,0 l/m 8,0 km/h (2 Bft) O 87 0 min 0,000 mm 0,0 UV-I 0 W/m -0,7 C -0,4 C 11,3 km/h (2 Bft) 91,67 %
05.03.2016 02:39 1,2 C 87 % 997,5 hPa 0,0 l/m 5,5 km/h (1 Bft) O-NO 74 0 min 0,000 mm 0,0 UV-I 0 W/m -0,7 C 1,2 C 8,0 km/h (2 Bft) 100,00 %
05.03.2016 02:40 1,2 C 87 % 997,5 hPa 0,0 l/m 5,2 km/h (1 Bft) O 84 0 min 0,000 mm 0,0 UV-I 0 W/m -0,7 C 1,2 C 6,4 km/h (2 Bft) 95,83 %
05.03.2016 02:41 1,2 C 87 % 997,5 hPa 0,0 l/m 5,4 km/h (1 Bft) O-NO 68 0 min 0,000 mm 0,0 UV-I 0 W/m -0,7 C 1,2 C 8,0 km/h (2 Bft) 96,15 %
05.03.2016 02:42 1,2 C 87 % 997,5 hPa 0,0 l/m 4,8 km/h (1 Bft) O-NO 74 0 min 0,000 mm 0,0 UV-I 0 W/m -0,7 C 1,2 C 6,4 km/h (2 Bft) 91,67 %
05.03.2016 02:43 1,2 C 87 % 997,5 hPa 0,0 l/m 5,9 km/h (2 Bft) O 88 0 min 0,000 mm 0,0 UV-I 0 W/m -0,7 C 1,2 C 8,0 km/h (2 Bft) 100,00 %
05.03.2016 02:44 1,2 C 87 % 997,5 hPa 0,0 l/m 3,4 km/h (1 Bft) O 95 0 min 0,000 mm 0,0 UV-I 0 W/m -0,7 C 1,2 C 6,4 km/h (2 Bft) 95,83 %
05.03.2016 02:45 1,2 C 87 % 997,4 hPa 0,0 l/m 3,5 km/h (1 Bft) O 98 0 min 0,000 mm 0,0 UV-I 0 W/m -0,7 C 1,2 C 4,8 km/h (1 Bft) 95,65 %
05.03.2016 02:46 1,2 C 87 % 997,5 hPa 0,0 l/m 4,5 km/h (1 Bft) O 86 0 min 0,000 mm 0,0 UV-I 0 W/m -0,7 C 1,2 C 6,4 km/h (2 Bft) 100,00 %
05.03.2016 02:47 1,2 C 87 % 997,4 hPa 0,0 l/m 5,7 km/h (1 Bft) O 99 0 min 0,000 mm 0,0 UV-I 0 W/m -0,7 C 1,2 C 6,4 km/h (2 Bft) 95,65 %
05.03.2016 02:48 1,2 C 87 % 997,4 hPa 0,0 l/m 4,2 km/h (1 Bft) O-NO 75 0 min 0,000 mm 0,0 UV-I 0 W/m -0,7 C 1,2 C 6,4 km/h (2 Bft) 91,67 %
05.03.2016 02:49 1,2 C 87 % 997,4 hPa 0,0 l/m 4,1 km/h (1 Bft) O 88 0 min 0,000 mm 0,0 UV-I 0 W/m -0,7 C 1,2 C 4,8 km/h (1 Bft) 92,31 %
05.03.2016 02:50 1,2 C 87 % 997,4 hPa 0,0 l/m 5,3 km/h (1 Bft) O 84 0 min 0,000 mm 0,0 UV-I 0 W/m -0,7 C 1,2 C 8,0 km/h (2 Bft) 96,30 %
05.03.2016 02:51 1,2 C 88 % 997,4 hPa 0,0 l/m 7,1 km/h (2 Bft) O-NO 78 0 min 0,000 mm 0,0 UV-I 0 W/m -0,6 C 0,5 C 9,7 km/h (2 Bft) 100,00 %
05.03.2016 02:52 1,2 C 88 % 997,3 hPa 0,0 l/m 7,8 km/h (2 Bft) O-NO 74 0 min 0,000 mm 0,0 UV-I 0 W/m -0,6 C -0,2 C 11,3 km/h (2 Bft) 100,00 %
05.03.2016 02:53 1,2 C 87 % 997,3 hPa 0,0 l/m 6,7 km/h (2 Bft) O 95 0 min 0,000 mm 0,0 UV-I 0 W/m -0,7 C 0,9 C 11,3 km/h (2 Bft) 95,83 %
05.03.2016 02:54 1,2 C 87 % 997,3 hPa 0,0 l/m 6,4 km/h (2 Bft) O-NO 75 0 min 0,000 mm 0,0 UV-I 0 W/m -0,7 C 1,2 C 11,3 km/h (2 Bft) 100,00 %
05.03.2016 02:55 1,2 C 87 % 997,3 hPa 0,0 l/m 6,2 km/h (2 Bft) O 94 0 min 0,000 mm 0,0 UV-I 0 W/m -0,7 C 1,2 C 8,0 km/h (2 Bft) 100,00 %
05.03.2016 02:56 1,2 C 87 % 997,3 hPa 0,0 l/m 6,2 km/h (2 Bft) O-SO 109 0 min 0,000 mm 0,0 UV-I 0 W/m -0,7 C 1,2 C 9,7 km/h (2 Bft) 100,00 %
05.03.2016 02:57 1,2 C 87 % 997,3 hPa 0,0 l/m 8,2 km/h (2 Bft) O 82 0 min 0,000 mm 0,0 UV-I 0 W/m -0,7 C -0,6 C 12,9 km/h (3 Bft) 100,00 %
05.03.2016 02:58 1,2 C 87 % 997,3 hPa 0,0 l/m 6,7 km/h (2 Bft) O-NO 71 0 min 0,000 mm 0,0 UV-I 0 W/m -0,7 C 0,9 C 8,0 km/h (2 Bft) 100,00 %
05.03.2016 02:59 1,2 C 87 % 997,3 hPa 0,0 l/m 5,6 km/h (1 Bft) O 80 0 min 0,000 mm 0,0 UV-I 0 W/m -0,7 C 1,2 C 6,4 km/h (2 Bft) 100,00 %
05.03.2016 03:00 1,2 C 87 % 997,3 hPa 0,0 l/m 8,3 km/h (2 Bft) O 80 0 min 0,000 mm 0,0 UV-I 0 W/m -0,7 C -0,7 C 11,3 km/h (2 Bft) 100,00 %
05.03.2016 03:01 1,2 C 87 % 997,3 hPa 0,0 l/m 7,3 km/h (2 Bft) O 90 0 min 0,000 mm 0,0 UV-I 0 W/m -0,7 C 0,3 C 11,3 km/h (2 Bft) 100,00 %
05.03.2016 03:02 1,2 C 87 % 997,2 hPa 0,0 l/m 7,4 km/h (2 Bft) O 85 0 min 0,000 mm 0,0 UV-I 0 W/m -0,7 C 0,2 C 9,7 km/h (2 Bft) 96,15 %
05.03.2016 03:03 1,2 C 87 % 997,2 hPa 0,0 l/m 6,5 km/h (2 Bft) O 80 0 min 0,000 mm 0,0 UV-I 0 W/m -0,7 C 1,1 C 9,7 km/h (2 Bft) 100,00 %
05.03.2016 03:04 1,2 C 87 % 997,2 hPa 0,0 l/m 6,3 km/h (2 Bft) O 82 0 min 0,000 mm 0,0 UV-I 0 W/m -0,7 C 1,2 C 8,0 km/h (2 Bft) 100,00 %
05.03.2016 03:05 1,2 C 88 % 997,2 hPa 0,0 l/m 6,4 km/h (2 Bft) O 93 0 min 0,000 mm 0,0 UV-I 0 W/m -0,6 C 1,2 C 9,7 km/h (2 Bft) 100,00 %
05.03.2016 03:06 1,1 C 88 % 997,2 hPa 0,0 l/m 5,1 km/h (1 Bft) O 80 0 min 0,000 mm 0,0 UV-I 0 W/m -0,7 C 1,1 C 8,0 km/h (2 Bft) 100,00 %
05.03.2016 03:07 1,1 C 88 % 997,2 hPa 0,0 l/m 5,6 km/h (1 Bft) O 86 0 min 0,000 mm 0,0 UV-I 0 W/m -0,7 C 1,1 C 8,0 km/h (2 Bft) 100,00 %
05.03.2016 03:08 1,1 C 88 % 997,2 hPa 0,0 l/m 6,2 km/h (2 Bft) NO 55 0 min 0,000 mm 0,0 UV-I 0 W/m -0,7 C 1,1 C 8,0 km/h (2 Bft) 100,00 %
05.03.2016 03:09 1,1 C 88 % 997,1 hPa 0,0 l/m 6,0 km/h (2 Bft) O-NO 63 0 min 0,000 mm 0,0 UV-I 0 W/m -0,7 C 1,1 C 8,0 km/h (2 Bft) 96,30 %
05.03.2016 03:10 1,2 C 88 % 997,1 hPa 0,0 l/m 6,3 km/h (2 Bft) O 81 0 min 0,000 mm 0,0 UV-I 0 W/m -0,6 C 1,2 C 8,0 km/h (2 Bft) 100,00 %
05.03.2016 03:11 1,2 C 88 % 997,0 hPa 0,0 l/m 6,5 km/h (2 Bft) O-NO 71 0 min 0,000 mm 0,0 UV-I 0 W/m -0,6 C 1,1 C 11,3 km/h (2 Bft) 100,00 %
05.03.2016 03:12 1,2 C 87 % 997,1 hPa 0,0 l/m 6,2 km/h (2 Bft) O-NO 69 0 min 0,000 mm 0,0 UV-I 0 W/m -0,7 C 1,2 C 8,0 km/h (2 Bft) 100,00 %
05.03.2016 03:13 1,2 C 87 % 997,1 hPa 0,0 l/m 7,0 km/h (2 Bft) O 82 0 min 0,000 mm 0,0 UV-I 0 W/m -0,7 C 0,6 C 11,3 km/h (2 Bft) 100,00 %
05.03.2016 03:14 1,2 C 87 % 997,1 hPa 0,0 l/m 4,9 km/h (1 Bft) O-NO 74 0 min 0,000 mm 0,0 UV-I 0 W/m -0,7 C 1,2 C 6,4 km/h (2 Bft) 100,00 %
05.03.2016 03:15 1,1 C 87 % 997,1 hPa 0,0 l/m 6,1 km/h (2 Bft) O-NO 71 0 min 0,000 mm 0,0 UV-I 0 W/m -0,8 C 1,1 C 9,7 km/h (2 Bft) 100,00 %
05.03.2016 03:16 1,2 C 88 % 997,1 hPa 0,0 l/m 6,8 km/h (2 Bft) O 82 0 min 0,000 mm 0,0 UV-I 0 W/m -0,6 C 0,8 C 11,3 km/h (2 Bft) 100,00 %
05.03.2016 03:17 1,1 C 88 % 997,1 hPa 0,0 l/m 6,4 km/h (2 Bft) O-NO 70 0 min 0,000 mm 0,0 UV-I 0 W/m -0,7 C 1,1 C 9,7 km/h (2 Bft) 96,15 %
05.03.2016 03:18 1,1 C 88 % 997,1 hPa 0,0 l/m 3,9 km/h (1 Bft) NO 55 0 min 0,000 mm 0,0 UV-I 0 W/m -0,7 C 1,1 C 6,4 km/h (2 Bft) 100,00 %
05.03.2016 03:19 1,1 C 88 % 997,0 hPa 0,0 l/m 4,8 km/h (1 Bft) NO 53 0 min 0,000 mm 0,0 UV-I 0 W/m -0,7 C 1,1 C 6,4 km/h (2 Bft) 100,00 %
05.03.2016 03:20 1,1 C 88 % 997,0 hPa 0,0 l/m 3,0 km/h (1 Bft) NO 53 0 min 0,000 mm 0,0 UV-I 0 W/m -0,7 C 1,1 C 4,8 km/h (1 Bft) 100,00 %
05.03.2016 03:21 1,0 C 88 % 996,9 hPa 0,0 l/m 2,6 km/h (1 Bft) NO 53 0 min 0,000 mm 0,0 UV-I 0 W/m -0,8 C 1,0 C 3,2 km/h (1 Bft) 100,00 %
05.03.2016 03:22 0,8 C 87 % 996,9 hPa 0,0 l/m 3,2 km/h (1 Bft) NO 53 0 min 0,000 mm 0,0 UV-I 0 W/m -1,1 C 0,8 C 4,8 km/h (1 Bft) 100,00 %
05.03.2016 03:23 0,7 C 88 % 996,9 hPa 0,0 l/m 3,5 km/h (1 Bft) NO 53 0 min 0,000 mm 0,0 UV-I 0 W/m -1,1 C 0,7 C 4,8 km/h (1 Bft) 100,00 %
05.03.2016 03:24 0,6 C 88 % 996,8 hPa 0,0 l/m 2,7 km/h (1 Bft) NO 53 0 min 0,000 mm 0,0 UV-I 0 W/m -1,2 C 0,6 C 3,2 km/h (1 Bft) 100,00 %
05.03.2016 03:25 0,5 C 88 % 996,8 hPa 0,0 l/m 2,2 km/h (1 Bft) NO 53 0 min 0,000 mm 0,0 UV-I 0 W/m -1,3 C 0,5 C 3,2 km/h (1 Bft) 100,00 %
05.03.2016 03:26 0,4 C 88 % 996,9 hPa 0,0 l/m 1,6 km/h (1 Bft) NO 53 0 min 0,000 mm 0,0 UV-I 0 W/m -1,3 C 0,4 C 3,2 km/h (1 Bft) 100,00 %
05.03.2016 03:27 0,3 C 89 % 996,9 hPa 0,0 l/m 2,1 km/h (1 Bft) NO 53 0 min 0,000 mm 0,0 UV-I 0 W/m -1,3 C 0,3 C 3,2 km/h (1 Bft) 100,00 %
05.03.2016 03:28 0,3 C 89 % 996,9 hPa 0,0 l/m 0,9 km/h (0 Bft) NO 53 0 min 0,000 mm 0,0 UV-I 0 W/m -1,3 C 0,3 C 3,2 km/h (1 Bft) 100,00 %
05.03.2016 03:29 0,3 C 90 % 996,9 hPa 0,0 l/m 0,0 km/h (0 Bft) NO 53 0 min 0,000 mm 0,0 UV-I 0 W/m -1,1 C 0,3 C 0,0 km/h (0 Bft) 100,00 %
05.03.2016 03:30 0,2 C 90 % 996,9 hPa 0,0 l/m 0,0 km/h (0 Bft) NO 53 0 min 0,000 mm 0,0 UV-I 0 W/m -1,2 C 0,2 C 0,0 km/h (0 Bft) 100,00 %
05.03.2016 03:31 0,2 C 90 % 996,9 hPa 0,0 l/m 0,0 km/h (0 Bft) NO 53 0 min 0,000 mm 0,0 UV-I 0 W/m -1,2 C 0,2 C 0,0 km/h (0 Bft) 100,00 %
05.03.2016 03:32 0,2 C 90 % 996,9 hPa 0,0 l/m 1,5 km/h (1 Bft) NO 53 0 min 0,000 mm 0,0 UV-I 0 W/m -1,2 C 0,2 C 3,2 km/h (1 Bft) 100,00 %
05.03.2016 03:33 0,2 C 90 % 996,9 hPa 0,0 l/m 1,9 km/h (1 Bft) NO 53 0 min 0,000 mm 0,0 UV-I 0 W/m -1,2 C 0,2 C 3,2 km/h (1 Bft) 100,00 %
05.03.2016 03:34 0,2 C 90 % 996,9 hPa 0,0 l/m 1,7 km/h (1 Bft) NO 53 0 min 0,000 mm 0,0 UV-I 0 W/m -1,2 C 0,2 C 3,2 km/h (1 Bft) 100,00 %
05.03.2016 03:35 0,2 C 90 % 996,9 hPa 0,0 l/m 0,2 km/h (0 Bft) NO 53 0 min 0,000 mm 0,0 UV-I 0 W/m -1,2 C 0,2 C 1,6 km/h (1 Bft) 100,00 %
05.03.2016 03:36 0,2 C 90 % 996,9 hPa 0,0 l/m 0,7 km/h (0 Bft) NO 53 0 min 0,000 mm 0,0 UV-I 0 W/m -1,2 C 0,2 C 1,6 km/h (1 Bft) 96,88 %
05.03.2016 03:37 0,2 C 90 % 996,8 hPa 0,0 l/m 1,1 km/h (1 Bft) NO 53 0 min 0,000 mm 0,0 UV-I 0 W/m -1,2 C 0,2 C 1,6 km/h (1 Bft) 100,00 %
05.03.2016 03:38 0,2 C 91 % 996,8 hPa 0,0 l/m 1,1 km/h (1 Bft) NO 53 0 min 0,000 mm 0,0 UV-I 0 W/m -1,1 C 0,2 C 1,6 km/h (1 Bft) 100,00 %
05.03.2016 03:39 0,2 C 90 % 996,8 hPa 0,0 l/m 1,1 km/h (1 Bft) NO 53 0 min 0,000 mm 0,0 UV-I 0 W/m -1,2 C 0,2 C 1,6 km/h (1 Bft) 100,00 %
05.03.2016 03:40 0,2 C 90 % 996,8 hPa 0,0 l/m 1,0 km/h (0 Bft) NO 53 0 min 0,000 mm 0,0 UV-I 0 W/m -1,2 C 0,2 C 1,6 km/h (1 Bft) 100,00 %
05.03.2016 03:41 0,2 C 90 % 996,8 hPa 0,0 l/m 1,0 km/h (0 Bft) NO 53 0 min 0,000 mm 0,0 UV-I 0 W/m -1,2 C 0,2 C 1,6 km/h (1 Bft) 100,00 %
05.03.2016 03:42 0,1 C 91 % 996,8 hPa 0,0 l/m 0,0 km/h (0 Bft) NO 53 0 min 0,000 mm 0,0 UV-I 0 W/m -1,2 C 0,1 C 0,0 km/h (0 Bft) 100,00 %
05.03.2016 03:43 0,1 C 91 % 996,8 hPa 0,0 l/m 0,1 km/h (0 Bft) NO 53 0 min 0,000 mm 0,0 UV-I 0 W/m -1,2 C 0,1 C 1,6 km/h (1 Bft) 100,00 %
05.03.2016 03:44 0,1 C 91 % 996,8 hPa 0,0 l/m 1,7 km/h (1 Bft) NO 40 0 min 0,000 mm 0,0 UV-I 0 W/m -1,2 C 0,1 C 3,2 km/h (1 Bft) 97,37 %
05.03.2016 03:45 0,1 C 91 % 996,8 hPa 0,0 l/m 2,5 km/h (1 Bft) N-NO 17 0 min 0,000 mm 0,0 UV-I 0 W/m -1,2 C 0,1 C 3,2 km/h (1 Bft) 100,00 %
05.03.2016 03:46 0,0 C 91 % 996,9 hPa 0,0 l/m 2,6 km/h (1 Bft) N-NW 335 0 min 0,000 mm 0,0 UV-I 0 W/m -1,3 C 0,0 C 3,2 km/h (1 Bft) 100,00 %
05.03.2016 03:47 -0,1 C 91 % 996,8 hPa 0,0 l/m 3,2 km/h (1 Bft) W-NW 290 0 min 0,000 mm 0,0 UV-I 0 W/m -1,4 C -0,1 C 4,8 km/h (1 Bft) 100,00 %
05.03.2016 03:48 -0,2 C 91 % 996,9 hPa 0,0 l/m 3,0 km/h (1 Bft) W-NW 290 0 min 0,000 mm 0,0 UV-I 0 W/m -1,5 C -0,2 C 3,2 km/h (1 Bft) 100,00 %
05.03.2016 03:49 -0,2 C 91 % 996,9 hPa 0,0 l/m 2,3 km/h (1 Bft) W-NW 300 0 min 0,000 mm 0,0 UV-I 0 W/m -1,5 C -0,2 C 3,2 km/h (1 Bft) 100,00 %
05.03.2016 03:50 -0,2 C 91 % 996,9 hPa 0,0 l/m 2,0 km/h (1 Bft) W-NW 300 0 min 0,000 mm 0,0 UV-I 0 W/m -1,5 C -0,2 C 3,2 km/h (1 Bft) 95,65 %
05.03.2016 03:51 -0,2 C 92 % 996,8 hPa 0,0 l/m 1,4 km/h (1 Bft) W-NW 301 0 min 0,000 mm 0,0 UV-I 0 W/m -1,3 C -0,2 C 3,2 km/h (1 Bft) 100,00 %
05.03.2016 03:52 -0,3 C 91 % 996,8 hPa 0,0 l/m 1,7 km/h (1 Bft) NW 313 0 min 0,000 mm 0,0 UV-I 0 W/m -1,6 C -0,3 C 3,2 km/h (1 Bft) 100,00 %
05.03.2016 03:53 -0,3 C 92 % 996,8 hPa 0,0 l/m 1,3 km/h (1 Bft) NW 314 0 min 0,000 mm 0,0 UV-I 0 W/m -1,4 C -0,3 C 3,2 km/h (1 Bft) 100,00 %
05.03.2016 03:54 -0,3 C 92 % 996,7 hPa 0,0 l/m 0,2 km/h (0 Bft) NW 314 0 min 0,000 mm 0,0 UV-I 0 W/m -1,4 C -0,3 C 1,6 km/h (1 Bft) 100,00 %
05.03.2016 03:55 -0,3 C 92 % 996,8 hPa 0,0 l/m 1,7 km/h (1 Bft) NW 312 0 min 0,000 mm 0,0 UV-I 0 W/m -1,4 C -0,3 C 3,2 km/h (1 Bft) 100,00 %
05.03.2016 03:56 -0,4 C 92 % 996,8 hPa 0,0 l/m 1,5 km/h (1 Bft) NW 312 0 min 0,000 mm 0,0 UV-I 0 W/m -1,5 C -0,4 C 3,2 km/h (1 Bft) 100,00 %
05.03.2016 03:57 -0,3 C 92 % 996,8 hPa 0,0 l/m 1,1 km/h (1 Bft) NW 312 0 min 0,000 mm 0,0 UV-I 0 W/m -1,4 C -0,3 C 1,6 km/h (1 Bft) 96,67 %
05.03.2016 03:58 -0,3 C 93 % 996,8 hPa 0,0 l/m 1,6 km/h (1 Bft) NW 312 0 min 0,000 mm 0,0 UV-I 0 W/m -1,3 C -0,3 C 3,2 km/h (1 Bft) 100,00 %
05.03.2016 03:59 -0,3 C 93 % 996,7 hPa 0,0 l/m 1,3 km/h (1 Bft) NW 312 0 min 0,000 mm 0,0 UV-I 0 W/m -1,3 C -0,3 C 1,6 km/h (1 Bft) 95,65 %
05.03.2016 04:00 -0,2 C 93 % 996,7 hPa 0,0 l/m 2,0 km/h (1 Bft) NW 315 0 min 0,000 mm 0,0 UV-I 0 W/m -1,2 C -0,2 C 3,2 km/h (1 Bft) 100,00 %
05.03.2016 04:03 -0,1 C 92 % 996,7 hPa 0,0 l/m 3,5 km/h (1 Bft) N-NO 17 0 min 0,000 mm 0,0 UV-I 0 W/m -1,2 C -0,1 C 4,8 km/h (1 Bft) 100,00 %
05.03.2016 04:04 -0,1 C 93 % 996,7 hPa 0,0 l/m 1,6 km/h (1 Bft) N-NO 17 0 min 0,000 mm 0,0 UV-I 0 W/m -1,1 C -0,1 C 3,2 km/h (1 Bft) 100,00 %
05.03.2016 04:05 -0,1 C 92 % 996,8 hPa 0,0 l/m 0,0 km/h (0 Bft) N-NO 17 0 min 0,000 mm 0,0 UV-I 0 W/m -1,2 C -0,1 C 0,0 km/h (0 Bft) 96,15 %
05.03.2016 04:06 -0,1 C 92 % 996,8 hPa 0,0 l/m 1,5 km/h (1 Bft) N 355 0 min 0,000 mm 0,0 UV-I 0 W/m -1,2 C -0,1 C 3,2 km/h (1 Bft) 100,00 %
05.03.2016 04:07 -0,1 C 92 % 996,9 hPa 0,0 l/m 4,0 km/h (1 Bft) SW 235 0 min 0,000 mm 0,0 UV-I 0 W/m -1,2 C -0,1 C 6,4 km/h (2 Bft) 100,00 %
05.03.2016 04:08 -0,1 C 92 % 996,9 hPa 0,0 l/m 5,7 km/h (1 Bft) SW 235 0 min 0,000 mm 0,0 UV-I 0 W/m -1,2 C -0,1 C 6,4 km/h (2 Bft) 100,00 %
05.03.2016 04:09 -0,1 C 91 % 996,9 hPa 0,0 l/m 5,4 km/h (1 Bft) SW 236 0 min 0,000 mm 0,0 UV-I 0 W/m -1,4 C -0,1 C 6,4 km/h (2 Bft) 100,00 %
05.03.2016 04:10 -0,2 C 91 % 996,9 hPa 0,0 l/m 2,7 km/h (1 Bft) SW 236 0 min 0,000 mm 0,0 UV-I 0 W/m -1,5 C -0,2 C 3,2 km/h (1 Bft) 100,00 %
05.03.2016 04:11 -0,2 C 91 % 996,9 hPa 0,0 l/m 1,7 km/h (1 Bft) SW 236 0 min 0,000 mm 0,0 UV-I 0 W/m -1,5 C -0,2 C 3,2 km/h (1 Bft) 100,00 %
05.03.2016 04:12 -0,3 C 91 % 996,9 hPa 0,0 l/m 0,5 km/h (0 Bft) SW 236 0 min 0,000 mm 0,0 UV-I 0 W/m -1,6 C -0,3 C 1,6 km/h (1 Bft) 100,00 %
05.03.2016 04:13 -0,3 C 92 % 996,9 hPa 0,0 l/m 1,4 km/h (1 Bft) SW 236 0 min 0,000 mm 0,0 UV-I 0 W/m -1,4 C -0,3 C 3,2 km/h (1 Bft) 100,00 %
05.03.2016 04:14 -0,4 C 92 % 996,9 hPa 0,0 l/m 3,1 km/h (1 Bft) SW 236 0 min 0,000 mm 0,0 UV-I 0 W/m -1,5 C -0,4 C 3,2 km/h (1 Bft) 96,55 %
05.03.2016 04:15 -0,4 C 92 % 996,9 hPa 0,0 l/m 2,8 km/h (1 Bft) SW 236 0 min 0,000 mm 0,0 UV-I 0 W/m -1,5 C -0,4 C 3,2 km/h (1 Bft) 100,00 %
05.03.2016 04:16 -0,4 C 92 % 996,9 hPa 0,0 l/m 2,3 km/h (1 Bft) SW 235 0 min 0,000 mm 0,0 UV-I 0 W/m -1,5 C -0,4 C 3,2 km/h (1 Bft) 100,00 %
05.03.2016 04:17 -0,4 C 92 % 996,9 hPa 0,0 l/m 0,8 km/h (0 Bft) SW 236 0 min 0,000 mm 0,0 UV-I 0 W/m -1,5 C -0,4 C 1,6 km/h (1 Bft) 100,00 %
05.03.2016 04:18 -0,5 C 92 % 996,8 hPa 0,0 l/m 3,4 km/h (1 Bft) SW 235 0 min 0,000 mm 0,0 UV-I 0 W/m -1,6 C -0,5 C 4,8 km/h (1 Bft) 100,00 %
05.03.2016 04:19 -0,6 C 92 % 996,8 hPa 0,0 l/m 3,9 km/h (1 Bft) S-SW 196 0 min 0,000 mm 0,0 UV-I 0 W/m -1,7 C -0,6 C 4,8 km/h (1 Bft) 100,00 %
05.03.2016 04:20 -0,6 C 92 % 996,8 hPa 0,0 l/m 4,1 km/h (1 Bft) S-SW 193 0 min 0,000 mm 0,0 UV-I 0 W/m -1,7 C -0,6 C 4,8 km/h (1 Bft) 91,30 %
05.03.2016 04:21 -0,6 C 92 % 996,7 hPa 0,0 l/m 3,2 km/h (1 Bft) S-SW 193 0 min 0,000 mm 0,0 UV-I 0 W/m -1,7 C -0,6 C 4,8 km/h (1 Bft) 95,83 %
05.03.2016 04:22 -0,7 C 93 % 996,7 hPa 0,0 l/m 1,8 km/h (1 Bft) S-SW 193 0 min 0,000 mm 0,0 UV-I 0 W/m -1,7 C -0,7 C 3,2 km/h (1 Bft) 100,00 %
05.03.2016 04:23 -0,7 C 93 % 996,8 hPa 0,0 l/m 1,0 km/h (0 Bft) S-SW 193 0 min 0,000 mm 0,0 UV-I 0 W/m -1,7 C -0,7 C 1,6 km/h (1 Bft) 100,00 %
05.03.2016 04:24 -0,7 C 93 % 996,9 hPa 0,0 l/m 2,9 km/h (1 Bft) S-SW 193 0 min 0,000 mm 0,0 UV-I 0 W/m -1,7 C -0,7 C 3,2 km/h (1 Bft) 92,86 %
05.03.2016 04:25 -0,7 C 93 % 996,9 hPa 0,0 l/m 2,1 km/h (1 Bft) S-SW 193 0 min 0,000 mm 0,0 UV-I 0 W/m -1,7 C -0,7 C 3,2 km/h (1 Bft) 100,00 %
05.03.2016 04:26 -0,7 C 93 % 996,8 hPa 0,0 l/m 0,6 km/h (0 Bft) S-SW 193 0 min 0,000 mm 0,0 UV-I 0 W/m -1,7 C -0,7 C 1,6 km/h (1 Bft) 95,65 %
05.03.2016 04:27 -0,6 C 94 % 996,9 hPa 0,0 l/m 1,6 km/h (1 Bft) S-SW 193 0 min 0,000 mm 0,0 UV-I 0 W/m -1,4 C -0,6 C 3,2 km/h (1 Bft) 100,00 %
05.03.2016 04:28 -0,6 C 94 % 996,9 hPa 0,0 l/m 3,4 km/h (1 Bft) S-SW 193 0 min 0,000 mm 0,0 UV-I 0 W/m -1,4 C -0,6 C 4,8 km/h (1 Bft) 96,55 %
05.03.2016 04:29 -0,6 C 93 % 996,8 hPa 0,0 l/m 3,4 km/h (1 Bft) S-SW 193 0 min 0,000 mm 0,0 UV-I 0 W/m -1,6 C -0,6 C 4,8 km/h (1 Bft) 96,30 %
05.03.2016 04:30 -0,6 C 93 % 996,9 hPa 0,0 l/m 2,1 km/h (1 Bft) S-SW 193 0 min 0,000 mm 0,0 UV-I 0 W/m -1,6 C -0,6 C 3,2 km/h (1 Bft) 100,00 %
05.03.2016 04:31 -0,7 C 93 % 996,9 hPa 0,0 l/m 1,1 km/h (1 Bft) S-SW 193 0 min 0,000 mm 0,0 UV-I 0 W/m -1,7 C -0,7 C 1,6 km/h (1 Bft) 91,30 %
05.03.2016 04:32 -0,7 C 93 % 996,9 hPa 0,0 l/m 0,1 km/h (0 Bft) S-SW 193 0 min 0,000 mm 0,0 UV-I 0 W/m -1,7 C -0,7 C 1,6 km/h (1 Bft) 100,00 %
05.03.2016 04:33 -0,7 C 93 % 996,9 hPa 0,0 l/m 0,6 km/h (0 Bft) S-SW 193 0 min 0,000 mm 0,0 UV-I 0 W/m -1,7 C -0,7 C 1,6 km/h (1 Bft) 91,30 %
05.03.2016 04:34 -0,7 C 93 % 996,9 hPa 0,0 l/m 0,8 km/h (0 Bft) S-SW 193 0 min 0,000 mm 0,0 UV-I 0 W/m -1,7 C -0,7 C 1,6 km/h (1 Bft) 100,00 %
05.03.2016 04:35 -0,8 C 93 % 996,8 hPa 0,0 l/m 1,3 km/h (1 Bft) S-SW 193 0 min 0,000 mm 0,0 UV-I 0 W/m -1,8 C -0,8 C 1,6 km/h (1 Bft) 96,55 %
05.03.2016 04:36 -0,8 C 93 % 996,8 hPa 0,0 l/m 0,0 km/h (0 Bft) S-SW 193 0 min 0,000 mm 0,0 UV-I 0 W/m -1,8 C -0,8 C 0,0 km/h (0 Bft) 95,65 %
05.03.2016 04:37 -0,8 C 94 % 996,8 hPa 0,0 l/m 0,0 km/h (0 Bft) S-SW 193 0 min 0,000 mm 0,0 UV-I 0 W/m -1,6 C -0,8 C 0,0 km/h (0 Bft) 100,00 %
05.03.2016 04:38 -0,7 C 94 % 996,8 hPa 0,0 l/m 0,0 km/h (0 Bft) S-SW 193 0 min 0,000 mm 0,0 UV-I 0 W/m -1,5 C -0,7 C 0,0 km/h (0 Bft) 95,83 %
05.03.2016 04:39 -0,7 C 94 % 996,7 hPa 0,0 l/m 0,3 km/h (0 Bft) S-SW 193 0 min 0,000 mm 0,0 UV-I 0 W/m -1,5 C -0,7 C 1,6 km/h (1 Bft) 100,00 %
05.03.2016 04:40 -0,7 C 94 % 996,7 hPa 0,0 l/m 1,6 km/h (1 Bft) S-SW 193 0 min 0,000 mm 0,0 UV-I 0 W/m -1,5 C -0,7 C 1,6 km/h (1 Bft) 95,83 %
05.03.2016 04:41 -0,7 C 94 % 996,6 hPa 0,0 l/m 1,5 km/h (1 Bft) S-SW 193 0 min 0,000 mm 0,0 UV-I 0 W/m -1,5 C -0,7 C 3,2 km/h (1 Bft) 100,00 %
05.03.2016 04:42 -0,7 C 93 % 996,6 hPa 0,0 l/m 1,5 km/h (1 Bft) S-SW 193 0 min 0,000 mm 0,0 UV-I 0 W/m -1,7 C -0,7 C 1,6 km/h (1 Bft) 95,83 %
05.03.2016 04:43 -0,7 C 94 % 996,6 hPa 0,0 l/m 0,4 km/h (0 Bft) S-SW 193 0 min 0,000 mm 0,0 UV-I 0 W/m -1,5 C -0,7 C 1,6 km/h (1 Bft) 100,00 %
05.03.2016 04:44 -0,7 C 94 % 996,7 hPa 0,0 l/m 0,0 km/h (0 Bft) S-SW 193 0 min 0,000 mm 0,0 UV-I 0 W/m -1,5 C -0,7 C 0,0 km/h (0 Bft) 96,30 %
05.03.2016 04:45 -0,7 C 94 % 996,7 hPa 0,0 l/m 0,0 km/h (0 Bft) S-SW 193 0 min 0,000 mm 0,0 UV-I 0 W/m -1,5 C -0,7 C 0,0 km/h (0 Bft) 95,65 %
05.03.2016 04:46 -0,7 C 94 % 996,6 hPa 0,0 l/m 0,0 km/h (0 Bft) S-SW 193 0 min 0,000 mm 0,0 UV-I 0 W/m -1,5 C -0,7 C 0,0 km/h (0 Bft) 100,00 %
05.03.2016 04:47 -0,7 C 94 % 996,6 hPa 0,0 l/m 0,0 km/h (0 Bft) S-SW 193 0 min 0,000 mm 0,0 UV-I 0 W/m -1,5 C -0,7 C 0,0 km/h (0 Bft) 96,15 %
05.03.2016 04:48 -0,7 C 94 % 996,6 hPa 0,0 l/m 0,0 km/h (0 Bft) S-SW 193 0 min 0,000 mm 0,0 UV-I 0 W/m -1,5 C -0,7 C 0,0 km/h (0 Bft) 100,00 %
05.03.2016 04:49 -0,7 C 94 % 996,6 hPa 0,0 l/m 0,5 km/h (0 Bft) S-SW 193 0 min 0,000 mm 0,0 UV-I 0 W/m -1,5 C -0,7 C 1,6 km/h (1 Bft) 95,65 %
05.03.2016 04:50 -0,8 C 93 % 996,6 hPa 0,0 l/m 0,4 km/h (0 Bft) S-SW 193 0 min 0,000 mm 0,0 UV-I 0 W/m -1,8 C -0,8 C 1,6 km/h (1 Bft) 96,30 %
05.03.2016 04:51 -0,8 C 93 % 996,6 hPa 0,0 l/m 0,0 km/h (0 Bft) S-SW 193 0 min 0,000 mm 0,0 UV-I 0 W/m -1,8 C -0,8 C 0,0 km/h (0 Bft) 96,15 %
05.03.2016 04:52 -0,8 C 94 % 996,6 hPa 0,0 l/m 0,0 km/h (0 Bft) S-SW 193 0 min 0,000 mm 0,0 UV-I 0 W/m -1,6 C -0,8 C 0,0 km/h (0 Bft) 95,83 %
05.03.2016 04:53 -0,8 C 93 % 996,6 hPa 0,0 l/m 0,0 km/h (0 Bft) S-SW 193 0 min 0,000 mm 0,0 UV-I 0 W/m -1,8 C -0,8 C 0,0 km/h (0 Bft) 100,00 %
05.03.2016 04:54 -0,8 C 94 % 996,6 hPa 0,0 l/m 0,0 km/h (0 Bft) S-SW 193 0 min 0,000 mm 0,0 UV-I 0 W/m -1,6 C -0,8 C 0,0 km/h (0 Bft) 100,00 %
05.03.2016 04:55 -0,9 C 94 % 996,6 hPa 0,0 l/m 0,0 km/h (0 Bft) S-SW 193 0 min 0,000 mm 0,0 UV-I 0 W/m -1,7 C -0,9 C 0,0 km/h (0 Bft) 96,30 %
05.03.2016 04:56 -0,9 C 94 % 996,6 hPa 0,0 l/m 0,0 km/h (0 Bft) S-SW 193 0 min 0,000 mm 0,0 UV-I 0 W/m -1,7 C -0,9 C 0,0 km/h (0 Bft) 96,15 %
05.03.2016 04:57 -0,9 C 94 % 996,5 hPa 0,0 l/m 0,1 km/h (0 Bft) S-SW 193 0 min 0,000 mm 0,0 UV-I 0 W/m -1,7 C -0,9 C 1,6 km/h (1 Bft) 100,00 %
05.03.2016 04:58 -0,8 C 94 % 996,5 hPa 0,0 l/m 0,0 km/h (0 Bft) S-SW 193 0 min 0,000 mm 0,0 UV-I 0 W/m -1,6 C -0,8 C 0,0 km/h (0 Bft) 92,31 %
05.03.2016 04:59 -0,8 C 94 % 996,4 hPa 0,0 l/m 0,0 km/h (0 Bft) S-SW 193 0 min 0,000 mm 0,0 UV-I 0 W/m -1,6 C -0,8 C 0,0 km/h (0 Bft) 100,00 %
05.03.2016 05:00 -0,8 C 94 % 996,4 hPa 0,0 l/m 0,0 km/h (0 Bft) S-SW 193 0 min 0,000 mm 0,0 UV-I 0 W/m -1,6 C -0,8 C 0,0 km/h (0 Bft) 100,00 %
05.03.2016 05:01 -0,8 C 94 % 996,5 hPa 0,0 l/m 0,0 km/h (0 Bft) S-SW 193 0 min 0,000 mm 0,0 UV-I 0 W/m -1,6 C -0,8 C 0,0 km/h (0 Bft) 87,50 %
05.03.2016 05:02 -0,8 C 94 % 996,5 hPa 0,0 l/m 0,0 km/h (0 Bft) S-SW 193 0 min 0,000 mm 0,0 UV-I 0 W/m -1,6 C -0,8 C 0,0 km/h (0 Bft) 100,00 %
05.03.2016 05:03 -0,8 C 94 % 996,5 hPa 0,0 l/m 0,0 km/h (0 Bft) S-SW 193 0 min 0,000 mm 0,0 UV-I 0 W/m -1,6 C -0,8 C 0,0 km/h (0 Bft) 100,00 %
05.03.2016 05:04 -0,9 C 94 % 996,5 hPa 0,0 l/m 0,0 km/h (0 Bft) S-SW 193 0 min 0,000 mm 0,0 UV-I 0 W/m -1,7 C -0,9 C 0,0 km/h (0 Bft) 100,00 %
05.03.2016 05:05 -0,9 C 94 % 996,6 hPa 0,0 l/m 0,0 km/h (0 Bft) S-SW 193 0 min 0,000 mm 0,0 UV-I 0 W/m -1,7 C -0,9 C 0,0 km/h (0 Bft) 100,00 %
05.03.2016 05:06 -0,9 C 94 % 996,6 hPa 0,0 l/m 0,0 km/h (0 Bft) S-SW 193 0 min 0,000 mm 0,0 UV-I 0 W/m -1,7 C -0,9 C 0,0 km/h (0 Bft) 100,00 %
05.03.2016 05:07 -0,9 C 94 % 996,6 hPa 0,0 l/m 0,1 km/h (0 Bft) S-SW 193 0 min 0,000 mm 0,0 UV-I 0 W/m -1,7 C -0,9 C 1,6 km/h (1 Bft) 95,83 %
05.03.2016 05:08 -0,9 C 94 % 996,6 hPa 0,0 l/m 0,0 km/h (0 Bft) S-SW 193 0 min 0,000 mm 0,0 UV-I 0 W/m -1,7 C -0,9 C 0,0 km/h (0 Bft) 100,00 %
05.03.2016 05:09 -0,9 C 94 % 996,6 hPa 0,0 l/m 1,3 km/h (1 Bft) S-SW 193 0 min 0,000 mm 0,0 UV-I 0 W/m -1,7 C -0,9 C 1,6 km/h (1 Bft) 100,00 %
05.03.2016 05:10 -0,9 C 94 % 996,6 hPa 0,0 l/m 1,5 km/h (1 Bft) S-SW 193 0 min 0,000 mm 0,0 UV-I 0 W/m -1,7 C -0,9 C 1,6 km/h (1 Bft) 100,00 %
05.03.2016 05:11 -0,9 C 94 % 996,6 hPa 0,0 l/m 1,9 km/h (1 Bft) S-SW 193 0 min 0,000 mm 0,0 UV-I 0 W/m -1,7 C -0,9 C 3,2 km/h (1 Bft) 100,00 %
05.03.2016 05:12 -0,9 C 94 % 996,6 hPa 0,0 l/m 2,5 km/h (1 Bft) S-SW 193 0 min 0,000 mm 0,0 UV-I 0 W/m -1,7 C -0,9 C 3,2 km/h (1 Bft) 100,00 %
05.03.2016 05:13 -1,0 C 94 % 996,6 hPa 0,0 l/m 2,0 km/h (1 Bft) S-SW 193 0 min 0,000 mm 0,0 UV-I 0 W/m -1,8 C -1,0 C 3,2 km/h (1 Bft) 100,00 %
05.03.2016 05:14 -1,0 C 94 % 996,6 hPa 0,0 l/m 3,2 km/h (1 Bft) S-SW 193 0 min 0,000 mm 0,0 UV-I 0 W/m -1,8 C -1,0 C 4,8 km/h (1 Bft) 95,65 %
05.03.2016 05:15 -1,0 C 94 % 996,7 hPa 0,0 l/m 3,2 km/h (1 Bft) S-SW 193 0 min 0,000 mm 0,0 UV-I 0 W/m -1,8 C -1,0 C 4,8 km/h (1 Bft) 100,00 %
05.03.2016 05:16 -1,0 C 94 % 996,6 hPa 0,0 l/m 2,5 km/h (1 Bft) S-SW 193 0 min 0,000 mm 0,0 UV-I 0 W/m -1,8 C -1,0 C 3,2 km/h (1 Bft) 100,00 %
05.03.2016 05:17 -1,1 C 94 % 996,5 hPa 0,0 l/m 1,1 km/h (1 Bft) S-SW 193 0 min 0,000 mm 0,0 UV-I 0 W/m -1,9 C -1,1 C 1,6 km/h (1 Bft) 95,83 %
05.03.2016 05:18 -1,1 C 94 % 996,5 hPa 0,0 l/m 0,0 km/h (0 Bft) S-SW 193 0 min 0,000 mm 0,0 UV-I 0 W/m -1,9 C -1,1 C 0,0 km/h (0 Bft) 100,00 %
05.03.2016 05:19 -1,1 C 94 % 996,5 hPa 0,0 l/m 0,0 km/h (0 Bft) S-SW 193 0 min 0,000 mm 0,0 UV-I 0 W/m -1,9 C -1,1 C 0,0 km/h (0 Bft) 100,00 %
05.03.2016 05:20 -1,1 C 94 % 996,4 hPa 0,0 l/m 0,0 km/h (0 Bft) S-SW 193 0 min 0,000 mm 0,0 UV-I 0 W/m -1,9 C -1,1 C 0,0 km/h (0 Bft) 93,33 %
05.03.2016 05:21 -1,1 C 94 % 996,4 hPa 0,0 l/m 0,0 km/h (0 Bft) S-SW 193 0 min 0,000 mm 0,0 UV-I 0 W/m -1,9 C -1,1 C 0,0 km/h (0 Bft) 100,00 %
05.03.2016 05:22 -1,1 C 94 % 996,4 hPa 0,0 l/m 0,0 km/h (0 Bft) S-SW 193 0 min 0,000 mm 0,0 UV-I 0 W/m -1,9 C -1,1 C 0,0 km/h (0 Bft) 100,00 %
05.03.2016 05:23 -1,1 C 94 % 996,5 hPa 0,0 l/m 1,5 km/h (1 Bft) S-SW 193 0 min 0,000 mm 0,0 UV-I 0 W/m -1,9 C -1,1 C 3,2 km/h (1 Bft) 100,00 %
05.03.2016 05:24 -1,2 C 94 % 996,5 hPa 0,0 l/m 1,8 km/h (1 Bft) S-SW 193 0 min 0,000 mm 0,0 UV-I 0 W/m -2,0 C -1,2 C 3,2 km/h (1 Bft) 95,83 %
05.03.2016 05:25 -1,2 C 94 % 996,5 hPa 0,0 l/m 1,2 km/h (1 Bft) S-SW 193 0 min 0,000 mm 0,0 UV-I 0 W/m -2,0 C -1,2 C 1,6 km/h (1 Bft) 100,00 %
05.03.2016 05:26 -1,2 C 94 % 996,5 hPa 0,0 l/m 0,0 km/h (0 Bft) S-SW 193 0 min 0,000 mm 0,0 UV-I 0 W/m -2,0 C -1,2 C 0,0 km/h (0 Bft) 100,00 %
05.03.2016 05:27 -1,2 C 94 % 996,4 hPa 0,0 l/m 0,0 km/h (0 Bft) S-SW 193 0 min 0,000 mm 0,0 UV-I 0 W/m -2,0 C -1,2 C 0,0 km/h (0 Bft) 100,00 %
05.03.2016 05:28 -1,2 C 94 % 996,4 hPa 0,0 l/m 0,1 km/h (0 Bft) S-SW 193 0 min 0,000 mm 0,0 UV-I 0 W/m -2,0 C -1,2 C 1,6 km/h (1 Bft) 100,00 %
05.03.2016 05:29 -1,2 C 95 % 996,4 hPa 0,0 l/m 1,5 km/h (1 Bft) S-SW 193 0 min 0,000 mm 0,0 UV-I 0 W/m -1,9 C -1,2 C 3,2 km/h (1 Bft) 100,00 %
05.03.2016 05:30 -1,1 C 95 % 996,3 hPa 0,0 l/m 2,4 km/h (1 Bft) S-SW 193 0 min 0,000 mm 0,0 UV-I 0 W/m -1,8 C -1,1 C 3,2 km/h (1 Bft) 100,00 %
05.03.2016 05:31 -1,1 C 95 % 996,3 hPa 0,0 l/m 2,3 km/h (1 Bft) S-SW 193 0 min 0,000 mm 0,0 UV-I 0 W/m -1,8 C -1,1 C 3,2 km/h (1 Bft) 96,15 %
05.03.2016 05:32 -1,1 C 95 % 996,2 hPa 0,0 l/m 2,3 km/h (1 Bft) S-SW 193 0 min 0,000 mm 0,0 UV-I 0 W/m -1,8 C -1,1 C 3,2 km/h (1 Bft) 100,00 %
05.03.2016 05:33 -1,1 C 95 % 996,2 hPa 0,0 l/m 1,7 km/h (1 Bft) S-SW 193 0 min 0,000 mm 0,0 UV-I 0 W/m -1,8 C -1,1 C 3,2 km/h (1 Bft) 100,00 %
05.03.2016 05:34 -1,0 C 95 % 996,3 hPa 0,0 l/m 1,7 km/h (1 Bft) S-SW 193 0 min 0,000 mm 0,0 UV-I 0 W/m -1,7 C -1,0 C 3,2 km/h (1 Bft) 100,00 %
05.03.2016 05:35 -1,0 C 95 % 996,3 hPa 0,0 l/m 1,9 km/h (1 Bft) S-SW 193 0 min 0,000 mm 0,0 UV-I 0 W/m -1,7 C -1,0 C 3,2 km/h (1 Bft) 100,00 %
05.03.2016 05:36 -1,0 C 95 % 996,2 hPa 0,0 l/m 2,2 km/h (1 Bft) S-SW 193 0 min 0,000 mm 0,0 UV-I 0 W/m -1,7 C -1,0 C 3,2 km/h (1 Bft) 100,00 %
05.03.2016 05:37 -1,0 C 95 % 996,2 hPa 0,0 l/m 2,0 km/h (1 Bft) S-SW 193 0 min 0,000 mm 0,0 UV-I 0 W/m -1,7 C -1,0 C 3,2 km/h (1 Bft) 95,65 %
05.03.2016 05:38 -1,0 C 95 % 996,2 hPa 0,0 l/m 1,6 km/h (1 Bft) S-SW 193 0 min 0,000 mm 0,0 UV-I 0 W/m -1,7 C -1,0 C 3,2 km/h (1 Bft) 100,00 %
05.03.2016 05:39 -1,0 C 95 % 996,2 hPa 0,0 l/m 1,4 km/h (1 Bft) S-SW 193 0 min 0,000 mm 0,0 UV-I 0 W/m -1,7 C -1,0 C 3,2 km/h (1 Bft) 100,00 %
05.03.2016 05:40 -1,0 C 95 % 996,1 hPa 0,0 l/m 1,3 km/h (1 Bft) S-SW 193 0 min 0,000 mm 0,0 UV-I 0 W/m -1,7 C -1,0 C 1,6 km/h (1 Bft) 100,00 %
05.03.2016 05:41 -1,0 C 95 % 996,1 hPa 0,0 l/m 1,5 km/h (1 Bft) S-SW 193 0 min 0,000 mm 0,0 UV-I 0 W/m -1,7 C -1,0 C 3,2 km/h (1 Bft) 100,00 %
05.03.2016 05:42 -1,0 C 95 % 996,1 hPa 0,0 l/m 1,5 km/h (1 Bft) S-SW 193 0 min 0,000 mm 0,0 UV-I 0 W/m -1,7 C -1,0 C 1,6 km/h (1 Bft) 100,00 %
05.03.2016 05:43 -1,0 C 95 % 996,1 hPa 0,0 l/m 1,8 km/h (1 Bft) S-SW 193 0 min 0,000 mm 0,0 UV-I 0 W/m -1,7 C -1,0 C 3,2 km/h (1 Bft) 100,00 %
05.03.2016 05:44 -0,9 C 95 % 996,2 hPa 0,0 l/m 1,4 km/h (1 Bft) S-SW 193 0 min 0,000 mm 0,0 UV-I 0 W/m -1,6 C -0,9 C 1,6 km/h (1 Bft) 100,00 %
05.03.2016 05:45 -0,9 C 95 % 996,2 hPa 0,0 l/m 0,6 km/h (0 Bft) S-SW 193 0 min 0,000 mm 0,0 UV-I 0 W/m -1,6 C -0,9 C 1,6 km/h (1 Bft) 100,00 %
05.03.2016 05:46 -0,9 C 95 % 996,2 hPa 0,0 l/m 0,2 km/h (0 Bft) S-SW 193 0 min 0,000 mm 0,0 UV-I 0 W/m -1,6 C -0,9 C 1,6 km/h (1 Bft) 100,00 %
05.03.2016 05:47 -0,9 C 95 % 996,2 hPa 0,0 l/m 1,0 km/h (0 Bft) S-SW 193 0 min 0,000 mm 0,0 UV-I 0 W/m -1,6 C -0,9 C 3,2 km/h (1 Bft) 100,00 %
05.03.2016 05:48 -0,9 C 95 % 996,1 hPa 0,0 l/m 2,3 km/h (1 Bft) S-SW 193 0 min 0,000 mm 0,0 UV-I 0 W/m -1,6 C -0,9 C 3,2 km/h (1 Bft) 100,00 %
05.03.2016 05:49 -0,9 C 95 % 996,1 hPa 0,0 l/m 3,5 km/h (1 Bft) S-SW 192 0 min 0,000 mm 0,0 UV-I 0 W/m -1,6 C -0,9 C 4,8 km/h (1 Bft) 100,00 %
05.03.2016 05:50 -0,9 C 95 % 996,1 hPa 0,0 l/m 3,4 km/h (1 Bft) SO 142 0 min 0,000 mm 0,0 UV-I 0 W/m -1,6 C -0,9 C 4,8 km/h (1 Bft) 100,00 %
05.03.2016 05:51 -0,9 C 95 % 996,0 hPa 0,0 l/m 3,9 km/h (1 Bft) SO 136 0 min 0,000 mm 0,0 UV-I 0 W/m -1,6 C -0,9 C 4,8 km/h (1 Bft) 100,00 %
05.03.2016 05:52 -0,8 C 95 % 996,0 hPa 0,0 l/m 3,1 km/h (1 Bft) O-SO 113 0 min 0,000 mm 0,0 UV-I 0 W/m -1,5 C -0,8 C 4,8 km/h (1 Bft) 100,00 %
05.03.2016 05:53 -0,8 C 94 % 996,0 hPa 0,0 l/m 3,2 km/h (1 Bft) O-SO 109 0 min 0,000 mm 0,0 UV-I 0 W/m -1,6 C -0,8 C 4,8 km/h (1 Bft) 95,83 %
05.03.2016 05:54 -0,8 C 94 % 996,0 hPa 0,0 l/m 2,8 km/h (1 Bft) O-SO 109 0 min 0,000 mm 0,0 UV-I 0 W/m -1,6 C -0,8 C 3,2 km/h (1 Bft) 95,83 %
05.03.2016 05:55 -0,8 C 94 % 996,0 hPa 0,0 l/m 3,6 km/h (1 Bft) O 93 0 min 0,000 mm 0,0 UV-I 0 W/m -1,6 C -0,8 C 4,8 km/h (1 Bft) 100,00 %
05.03.2016 05:56 -0,8 C 94 % 996,0 hPa 0,0 l/m 4,3 km/h (1 Bft) O-NO 59 0 min 0,000 mm 0,0 UV-I 0 W/m -1,6 C -0,8 C 6,4 km/h (2 Bft) 100,00 %
05.03.2016 05:57 -0,8 C 94 % 996,0 hPa 0,0 l/m 4,1 km/h (1 Bft) O-NO 59 0 min 0,000 mm 0,0 UV-I 0 W/m -1,6 C -0,8 C 6,4 km/h (2 Bft) 100,00 %
05.03.2016 05:58 -0,8 C 94 % 996,0 hPa 0,0 l/m 2,2 km/h (1 Bft) O-NO 59 0 min 0,000 mm 0,0 UV-I 0 W/m -1,6 C -0,8 C 3,2 km/h (1 Bft) 100,00 %
05.03.2016 05:59 -0,7 C 94 % 996,0 hPa 0,0 l/m 3,0 km/h (1 Bft) NO 45 0 min 0,000 mm 0,0 UV-I 0 W/m -1,5 C -0,7 C 4,8 km/h (1 Bft) 100,00 %
05.03.2016 06:00 -0,7 C 94 % 996,0 hPa 0,0 l/m 2,3 km/h (1 Bft) NO 45 0 min 0,000 mm 0,0 UV-I 0 W/m -1,5 C -0,7 C 3,2 km/h (1 Bft) 100,00 %
05.03.2016 06:01 -0,7 C 95 % 996,0 hPa 0,0 l/m 1,9 km/h (1 Bft) NO 45 0 min 0,000 mm 0,0 UV-I 0 W/m -1,4 C -0,7 C 3,2 km/h (1 Bft) 100,00 %
05.03.2016 06:02 -0,7 C 95 % 996,0 hPa 0,0 l/m 2,2 km/h (1 Bft) O-NO 72 0 min 0,000 mm 0,0 UV-I 0 W/m -1,4 C -0,7 C 4,8 km/h (1 Bft) 100,00 %
05.03.2016 06:03 -0,7 C 95 % 996,0 hPa 0,0 l/m 4,7 km/h (1 Bft) O-NO 72 0 min 0,000 mm 0,0 UV-I 0 W/m -1,4 C -0,7 C 6,4 km/h (2 Bft) 100,00 %
05.03.2016 06:04 -0,7 C 95 % 996,0 hPa 0,0 l/m 5,3 km/h (1 Bft) O-NO 59 0 min 0,000 mm 0,0 UV-I 0 W/m -1,4 C -0,7 C 6,4 km/h (2 Bft) 100,00 %
05.03.2016 06:05 -0,7 C 94 % 996,0 hPa 0,0 l/m 5,2 km/h (1 Bft) O-NO 71 0 min 0,000 mm 0,0 UV-I 0 W/m -1,5 C -0,7 C 6,4 km/h (2 Bft) 100,00 %
05.03.2016 06:06 -0,7 C 94 % 995,9 hPa 0,0 l/m 4,6 km/h (1 Bft) O-NO 58 0 min 0,000 mm 0,0 UV-I 0 W/m -1,5 C -0,7 C 6,4 km/h (2 Bft) 100,00 %
05.03.2016 06:07 -0,6 C 94 % 995,9 hPa 0,0 l/m 6,2 km/h (2 Bft) O-NO 71 0 min 0,000 mm 0,0 UV-I 0 W/m -1,4 C -0,6 C 8,0 km/h (2 Bft) 95,65 %
05.03.2016 06:08 -0,6 C 94 % 995,9 hPa 0,0 l/m 4,6 km/h (1 Bft) O 81 0 min 0,000 mm 0,0 UV-I 0 W/m -1,4 C -0,6 C 6,4 km/h (2 Bft) 100,00 %
05.03.2016 06:09 -0,6 C 94 % 995,9 hPa 0,0 l/m 5,3 km/h (1 Bft) NO 55 0 min 0,000 mm 0,0 UV-I 0 W/m -1,4 C -0,6 C 6,4 km/h (2 Bft) 100,00 %
05.03.2016 06:10 -0,6 C 94 % 995,9 hPa 0,0 l/m 4,1 km/h (1 Bft) NO 55 0 min 0,000 mm 0,0 UV-I 0 W/m -1,4 C -0,6 C 4,8 km/h (1 Bft) 100,00 %
05.03.2016 06:11 -0,6 C 94 % 995,9 hPa 0,0 l/m 4,1 km/h (1 Bft) NO 55 0 min 0,000 mm 0,0 UV-I 0 W/m -1,4 C -0,6 C 4,8 km/h (1 Bft) 100,00 %
05.03.2016 06:12 -0,6 C 94 % 995,8 hPa 0,0 l/m 4,9 km/h (1 Bft) NO 51 0 min 0,000 mm 0,0 UV-I 0 W/m -1,4 C -0,6 C 6,4 km/h (2 Bft) 100,00 %
05.03.2016 06:13 -0,6 C 94 % 995,8 hPa 0,0 l/m 6,4 km/h (2 Bft) O-NO 57 0 min 0,000 mm 0,0 UV-I 0 W/m -1,4 C -0,6 C 8,0 km/h (2 Bft) 100,00 %
05.03.2016 06:14 -0,6 C 94 % 995,8 hPa 0,0 l/m 5,6 km/h (1 Bft) NO 56 0 min 0,000 mm 0,0 UV-I 0 W/m -1,4 C -0,6 C 8,0 km/h (2 Bft) 100,00 %
05.03.2016 06:15 -0,6 C 94 % 995,8 hPa 0,0 l/m 7,0 km/h (2 Bft) NO 48 0 min 0,000 mm 0,0 UV-I 0 W/m -1,4 C -1,2 C 8,0 km/h (2 Bft) 100,00 %
05.03.2016 06:16 -0,6 C 94 % 995,8 hPa 0,0 l/m 7,0 km/h (2 Bft) NO 53 0 min 0,000 mm 0,0 UV-I 0 W/m -1,4 C -1,2 C 9,7 km/h (2 Bft) 100,00 %
05.03.2016 06:17 -0,6 C 94 % 995,7 hPa 0,0 l/m 8,5 km/h (2 Bft) O-NO 57 0 min 0,000 mm 0,0 UV-I 0 W/m -1,4 C -2,8 C 11,3 km/h (2 Bft) 100,00 %
05.03.2016 06:18 -0,6 C 94 % 995,6 hPa 0,0 l/m 8,3 km/h (2 Bft) O 83 0 min 0,000 mm 0,0 UV-I 0 W/m -1,4 C -2,6 C 11,3 km/h (2 Bft) 100,00 %
05.03.2016 06:19 -0,6 C 94 % 995,6 hPa 0,0 l/m 8,5 km/h (2 Bft) O-NO 59 0 min 0,000 mm 0,0 UV-I 0 W/m -1,4 C -2,8 C 11,3 km/h (2 Bft) 100,00 %
05.03.2016 06:20 -0,6 C 94 % 995,6 hPa 0,0 l/m 9,7 km/h (2 Bft) O 80 0 min 0,000 mm 0,0 UV-I 0 W/m -1,4 C -3,9 C 14,5 km/h (3 Bft) 100,00 %
05.03.2016 06:21 -0,6 C 94 % 995,7 hPa 0,0 l/m 9,8 km/h (2 Bft) O-NO 60 0 min 0,000 mm 0,0 UV-I 0 W/m -1,4 C -3,9 C 14,5 km/h (3 Bft) 100,00 %
05.03.2016 06:22 -0,6 C 94 % 996,0 hPa 0,0 l/m 6,7 km/h (2 Bft) N-NO 28 0 min 0,000 mm 0,0 UV-I 0 W/m -1,4 C -0,9 C 9,7 km/h (2 Bft) 100,00 %
05.03.2016 06:23 -0,6 C 94 % 996,3 hPa 0,0 l/m 0,9 km/h (0 Bft) N-NO 28 0 min 0,000 mm 0,0 UV-I 0 W/m -1,4 C -0,6 C 3,2 km/h (1 Bft) 100,00 %
05.03.2016 06:24 -0,6 C 94 % 996,5 hPa 0,0 l/m 2,7 km/h (1 Bft) W-SW 238 0 min 0,000 mm 0,0 UV-I 0 W/m -1,4 C -0,6 C 4,8 km/h (1 Bft) 100,00 %
05.03.2016 06:25 -0,6 C 94 % 996,5 hPa 0,0 l/m 6,8 km/h (2 Bft) W-SW 251 0 min 0,000 mm 0,0 UV-I 0 W/m -1,4 C -1,0 C 9,7 km/h (2 Bft) 100,00 %
05.03.2016 06:26 -0,6 C 94 % 996,6 hPa 0,0 l/m 5,2 km/h (1 Bft) W 266 0 min 0,000 mm 0,0 UV-I 0 W/m -1,4 C -0,6 C 8,0 km/h (2 Bft) 100,00 %
05.03.2016 06:27 -0,6 C 94 % 996,6 hPa 0,0 l/m 4,2 km/h (1 Bft) W-SW 250 0 min 0,000 mm 0,0 UV-I 0 W/m -1,4 C -0,6 C 6,4 km/h (2 Bft) 100,00 %
05.03.2016 06:28 -0,6 C 94 % 996,4 hPa 0,0 l/m 1,1 km/h (1 Bft) W-SW 250 0 min 0,000 mm 0,0 UV-I 0 W/m -1,4 C -0,6 C 1,6 km/h (1 Bft) 100,00 %
05.03.2016 06:29 -0,6 C 94 % 996,3 hPa 0,0 l/m 1,3 km/h (1 Bft) W-SW 250 0 min 0,000 mm 0,0 UV-I 0 W/m -1,4 C -0,6 C 3,2 km/h (1 Bft) 100,00 %
05.03.2016 06:30 -0,6 C 94 % 996,1 hPa 0,0 l/m 1,4 km/h (1 Bft) W 259 0 min 0,000 mm 0,0 UV-I 0 W/m -1,4 C -0,6 C 3,2 km/h (1 Bft) 100,00 %
05.03.2016 06:31 -0,6 C 94 % 996,3 hPa 0,0 l/m 1,3 km/h (1 Bft) W 259 0 min 0,000 mm 0,0 UV-I 0 W/m -1,4 C -0,6 C 3,2 km/h (1 Bft) 95,83 %
05.03.2016 06:32 -0,6 C 94 % 996,3 hPa 0,0 l/m 0,3 km/h (0 Bft) W 259 0 min 0,000 mm 0,0 UV-I 0 W/m -1,4 C -0,6 C 1,6 km/h (1 Bft) 100,00 %
05.03.2016 06:33 -0,6 C 94 % 996,4 hPa 0,0 l/m 2,0 km/h (1 Bft) W 259 0 min 0,000 mm 0,0 UV-I 0 W/m -1,4 C -0,6 C 3,2 km/h (1 Bft) 93,33 %
05.03.2016 06:34 -0,6 C 94 % 996,4 hPa 0,0 l/m 1,3 km/h (1 Bft) W 259 0 min 0,000 mm 0,0 UV-I 0 W/m -1,4 C -0,6 C 3,2 km/h (1 Bft) 100,00 %
05.03.2016 06:35 -0,7 C 94 % 996,4 hPa 0,0 l/m 0,2 km/h (0 Bft) W 259 0 min 0,000 mm 0,0 UV-I 0 W/m -1,5 C -0,7 C 1,6 km/h (1 Bft) 82,61 %
05.03.2016 06:36 -0,6 C 94 % 996,3 hPa 0,0 l/m 1,8 km/h (1 Bft) N 355 0 min 0,000 mm 0,0 UV-I 0 W/m -1,4 C -0,6 C 4,8 km/h (1 Bft) 100,00 %
05.03.2016 06:37 -0,6 C 94 % 996,2 hPa 0,0 l/m 5,1 km/h (1 Bft) NO 35 0 min 0,000 mm 0,0 UV-I 0 W/m -1,4 C -0,6 C 6,4 km/h (2 Bft) 96,15 %
05.03.2016 06:38 -0,6 C 94 % 996,1 hPa 0,0 l/m 5,2 km/h (1 Bft) NO 35 0 min 0,000 mm 0,0 UV-I 0 W/m -1,4 C -0,6 C 6,4 km/h (2 Bft) 95,83 %
05.03.2016 06:39 -0,6 C 94 % 996,1 hPa 0,0 l/m 3,9 km/h (1 Bft) N-NO 22 0 min 0,000 mm 0,0 UV-I 0 W/m -1,4 C -0,6 C 6,4 km/h (2 Bft) 100,00 %
05.03.2016 06:40 -0,6 C 94 % 996,1 hPa 0,0 l/m 2,2 km/h (1 Bft) N-NO 22 0 min 0,000 mm 0,0 UV-I 0 W/m -1,4 C -0,6 C 3,2 km/h (1 Bft) 96,30 %
05.03.2016 06:41 -0,6 C 94 % 996,1 hPa 0,0 l/m 0,2 km/h (0 Bft) N-NO 22 0 min 0,000 mm 0,0 UV-I 0 W/m -1,4 C -0,6 C 1,6 km/h (1 Bft) 100,00 %
05.03.2016 06:42 -0,6 C 94 % 996,1 hPa 0,0 l/m 0,3 km/h (0 Bft) N-NO 22 0 min 0,000 mm 0,0 UV-I 0 W/m -1,4 C -0,6 C 1,6 km/h (1 Bft) 96,30 %
05.03.2016 06:43 -0,6 C 94 % 996,1 hPa 0,0 l/m 0,1 km/h (0 Bft) N-NO 22 0 min 0,000 mm 0,0 UV-I 0 W/m -1,4 C -0,6 C 1,6 km/h (1 Bft) 100,00 %
05.03.2016 06:44 -0,6 C 94 % 996,1 hPa 0,0 l/m 1,5 km/h (1 Bft) N-NO 22 0 min 0,000 mm 0,0 UV-I 0 W/m -1,4 C -0,6 C 3,2 km/h (1 Bft) 95,83 %
05.03.2016 06:45 -0,6 C 94 % 996,1 hPa 0,0 l/m 3,0 km/h (1 Bft) NO 37 0 min 0,000 mm 0,0 UV-I 0 W/m -1,4 C -0,6 C 4,8 km/h (1 Bft) 100,00 %
05.03.2016 06:46 -0,6 C 94 % 996,0 hPa 0,0 l/m 4,5 km/h (1 Bft) O-NO 60 0 min 0,000 mm 0,0 UV-I 2 W/m -1,4 C -0,6 C 6,4 km/h (2 Bft) 95,83 %
05.03.2016 06:47 -0,6 C 94 % 996,0 hPa 0,0 l/m 5,1 km/h (1 Bft) O-NO 65 0 min 0,000 mm 0,0 UV-I 5 W/m -1,4 C -0,6 C 8,0 km/h (2 Bft) 96,15 %
05.03.2016 06:48 -0,7 C 94 % 995,9 hPa 0,0 l/m 5,6 km/h (1 Bft) O-NO 66 0 min 0,000 mm 0,0 UV-I 5 W/m -1,5 C -0,7 C 8,0 km/h (2 Bft) 100,00 %
05.03.2016 06:49 -0,7 C 94 % 995,8 hPa 0,0 l/m 5,4 km/h (1 Bft) NO 40 0 min 0,000 mm 0,0 UV-I 5 W/m -1,5 C -0,7 C 6,4 km/h (2 Bft) 92,31 %
05.03.2016 06:50 -0,7 C 94 % 995,8 hPa 0,0 l/m 5,6 km/h (1 Bft) O-NO 66 0 min 0,000 mm 0,0 UV-I 7 W/m -1,5 C -0,7 C 6,4 km/h (2 Bft) 100,00 %
05.03.2016 06:51 -0,7 C 94 % 995,8 hPa 0,0 l/m 3,6 km/h (1 Bft) O-NO 66 0 min 0,000 mm 0,0 UV-I 8 W/m -1,5 C -0,7 C 6,4 km/h (2 Bft) 95,65 %
05.03.2016 06:52 -0,7 C 94 % 995,9 hPa 0,0 l/m 3,7 km/h (1 Bft) O-NO 65 0 min 0,000 mm 0,0 UV-I 9 W/m -1,5 C -0,7 C 6,4 km/h (2 Bft) 100,00 %
05.03.2016 06:53 -0,7 C 94 % 995,9 hPa 0,0 l/m 2,8 km/h (1 Bft) O-NO 65 0 min 0,000 mm 0,0 UV-I 9 W/m -1,5 C -0,7 C 4,8 km/h (1 Bft) 95,65 %
05.03.2016 06:54 -0,7 C 94 % 995,9 hPa 0,0 l/m 3,5 km/h (1 Bft) O-NO 65 0 min 0,000 mm 0,0 UV-I 10 W/m -1,5 C -0,7 C 4,8 km/h (1 Bft) 100,00 %
05.03.2016 06:55 -0,7 C 94 % 995,9 hPa 0,0 l/m 3,6 km/h (1 Bft) O-NO 65 0 min 0,000 mm 0,0 UV-I 11 W/m -1,5 C -0,7 C 4,8 km/h (1 Bft) 95,83 %
05.03.2016 06:56 -0,7 C 94 % 995,9 hPa 0,0 l/m 2,7 km/h (1 Bft) O-NO 65 0 min 0,000 mm 0,0 UV-I 11 W/m -1,5 C -0,7 C 3,2 km/h (1 Bft) 92,31 %
05.03.2016 06:57 -0,7 C 95 % 995,9 hPa 0,0 l/m 3,1 km/h (1 Bft) O-NO 65 0 min 0,000 mm 0,0 UV-I 12 W/m -1,4 C -0,7 C 4,8 km/h (1 Bft) 100,00 %
05.03.2016 06:58 -0,7 C 95 % 995,9 hPa 0,0 l/m 3,2 km/h (1 Bft) N-NO 21 0 min 0,000 mm 0,0 UV-I 12 W/m -1,4 C -0,7 C 4,8 km/h (1 Bft) 96,55 %
05.03.2016 06:59 -0,7 C 95 % 995,9 hPa 0,0 l/m 4,1 km/h (1 Bft) NO 38 0 min 0,000 mm 0,0 UV-I 14 W/m -1,4 C -0,7 C 6,4 km/h (2 Bft) 100,00 %
05.03.2016 07:00 -0,7 C 95 % 995,9 hPa 0,0 l/m 4,5 km/h (1 Bft) N-NO 32 0 min 0,000 mm 0,0 UV-I 14 W/m -1,4 C -0,7 C 8,0 km/h (2 Bft) 95,65 %
05.03.2016 07:01 -0,7 C 95 % 995,9 hPa 0,0 l/m 3,4 km/h (1 Bft) NO 38 0 min 0,000 mm 0,0 UV-I 14 W/m -1,4 C -0,7 C 4,8 km/h (1 Bft) 100,00 %
05.03.2016 07:02 -0,7 C 95 % 995,8 hPa 0,0 l/m 3,0 km/h (1 Bft) O-NO 74 0 min 0,000 mm 0,0 UV-I 16 W/m -1,4 C -0,7 C 4,8 km/h (1 Bft) 96,15 %
05.03.2016 07:03 -0,7 C 95 % 995,8 hPa 0,0 l/m 6,4 km/h (2 Bft) O-NO 63 0 min 0,000 mm 0,0 UV-I 17 W/m -1,4 C -0,7 C 8,0 km/h (2 Bft) 96,30 %
05.03.2016 07:04 -0,7 C 95 % 995,7 hPa 0,0 l/m 5,5 km/h (1 Bft) O-NO 57 0 min 0,000 mm 0,0 UV-I 18 W/m -1,4 C -0,7 C 6,4 km/h (2 Bft) 92,86 %
05.03.2016 07:05 -0,7 C 95 % 995,7 hPa 0,0 l/m 6,6 km/h (2 Bft) NO 56 0 min 0,000 mm 0,0 UV-I 19 W/m -1,4 C -0,9 C 9,7 km/h (2 Bft) 100,00 %
05.03.2016 07:06 -0,7 C 95 % 995,7 hPa 0,0 l/m 7,0 km/h (2 Bft) NO 46 0 min 0,000 mm 0,0 UV-I 19 W/m -1,4 C -1,3 C 9,7 km/h (2 Bft) 100,00 %
05.03.2016 07:07 -0,6 C 95 % 995,7 hPa 0,0 l/m 7,8 km/h (2 Bft) O-NO 62 0 min 0,000 mm 0,0 UV-I 21 W/m -1,3 C -2,1 C 9,7 km/h (2 Bft) 100,00 %
05.03.2016 07:08 -0,6 C 95 % 995,7 hPa 0,0 l/m 6,1 km/h (2 Bft) O-NO 57 0 min 0,000 mm 0,0 UV-I 21 W/m -1,3 C -0,6 C 8,0 km/h (2 Bft) 100,00 %
05.03.2016 07:09 -0,5 C 95 % 995,7 hPa 0,0 l/m 5,4 km/h (1 Bft) NO 35 0 min 0,000 mm 0,0 UV-I 23 W/m -1,2 C -0,5 C 8,0 km/h (2 Bft) 100,00 %
05.03.2016 07:10 -0,5 C 95 % 995,7 hPa 0,0 l/m 6,3 km/h (2 Bft) NO 48 0 min 0,000 mm 0,0 UV-I 24 W/m -1,2 C -0,5 C 8,0 km/h (2 Bft) 100,00 %
05.03.2016 07:11 -0,4 C 95 % 995,6 hPa 0,0 l/m 6,7 km/h (2 Bft) NO 47 0 min 0,000 mm 0,0 UV-I 25 W/m -1,1 C -0,7 C 9,7 km/h (2 Bft) 100,00 %
05.03.2016 07:12 -0,4 C 95 % 995,6 hPa 0,0 l/m 7,2 km/h (2 Bft) O-NO 71 0 min 0,000 mm 0,0 UV-I 26 W/m -1,1 C -1,2 C 9,7 km/h (2 Bft) 100,00 %
05.03.2016 07:13 -0,4 C 95 % 995,5 hPa 0,0 l/m 10,3 km/h (2 Bft) O-NO 57 0 min 0,000 mm 0,0 UV-I 26 W/m -1,1 C -4,1 C 14,5 km/h (3 Bft) 96,15 %
05.03.2016 07:14 -0,3 C 95 % 995,6 hPa 0,0 l/m 10,8 km/h (2 Bft) O-NO 65 0 min 0,000 mm 0,0 UV-I 28 W/m -1,0 C -4,4 C 14,5 km/h (3 Bft) 100,00 %
05.03.2016 07:15 -0,3 C 95 % 995,5 hPa 0,0 l/m 9,3 km/h (2 Bft) NO 51 0 min 0,000 mm 0,0 UV-I 28 W/m -1,0 C -3,2 C 14,5 km/h (3 Bft) 100,00 %
05.03.2016 07:16 -0,3 C 95 % 995,6 hPa 0,0 l/m 6,0 km/h (2 Bft) O-NO 63 0 min 0,000 mm 0,0 UV-I 29 W/m -1,0 C -0,3 C 8,0 km/h (2 Bft) 100,00 %
05.03.2016 07:17 -0,3 C 95 % 995,8 hPa 0,0 l/m 5,4 km/h (1 Bft) NO 55 0 min 0,000 mm 0,0 UV-I 30 W/m -1,0 C -0,3 C 6,4 km/h (2 Bft) 96,15 %
05.03.2016 07:18 -0,3 C 95 % 995,8 hPa 0,0 l/m 4,2 km/h (1 Bft) O-NO 58 0 min 0,000 mm 0,0 UV-I 32 W/m -1,0 C -0,3 C 4,8 km/h (1 Bft) 100,00 %
05.03.2016 07:19 -0,3 C 95 % 995,8 hPa 0,0 l/m 5,9 km/h (2 Bft) NO 42 0 min 0,000 mm 0,0 UV-I 32 W/m -1,0 C -0,3 C 9,7 km/h (2 Bft) 100,00 %
05.03.2016 07:20 -0,2 C 94 % 995,9 hPa 0,0 l/m 6,8 km/h (2 Bft) O 79 0 min 0,000 mm 0,0 UV-I 33 W/m -1,0 C -0,6 C 9,7 km/h (2 Bft) 100,00 %
05.03.2016 07:21 -0,2 C 94 % 995,9 hPa 0,0 l/m 5,8 km/h (2 Bft) NO 47 0 min 0,000 mm 0,0 UV-I 34 W/m -1,0 C -0,2 C 8,0 km/h (2 Bft) 100,00 %
05.03.2016 07:22 -0,2 C 94 % 995,9 hPa 0,0 l/m 7,0 km/h (2 Bft) NO 53 0 min 0,000 mm 0,0 UV-I 35 W/m -1,0 C -0,8 C 9,7 km/h (2 Bft) 100,00 %
05.03.2016 07:23 -0,2 C 94 % 995,9 hPa 0,0 l/m 7,8 km/h (2 Bft) O-NO 62 0 min 0,000 mm 0,0 UV-I 36 W/m -1,0 C -1,7 C 11,3 km/h (2 Bft) 100,00 %
05.03.2016 07:24 -0,2 C 94 % 995,9 hPa 0,0 l/m 7,2 km/h (2 Bft) O-NO 59 0 min 0,000 mm 0,0 UV-I 37 W/m -1,0 C -1,0 C 9,7 km/h (2 Bft) 100,00 %
05.03.2016 07:25 -0,2 C 94 % 996,0 hPa 0,0 l/m 5,6 km/h (1 Bft) O-NO 59 0 min 0,000 mm 0,0 UV-I 39 W/m -1,0 C -0,2 C 8,0 km/h (2 Bft) 100,00 %
05.03.2016 07:26 -0,2 C 94 % 996,0 hPa 0,0 l/m 4,3 km/h (1 Bft) O-NO 57 0 min 0,000 mm 0,0 UV-I 39 W/m -1,0 C -0,2 C 6,4 km/h (2 Bft) 100,00 %
05.03.2016 07:27 -0,2 C 94 % 996,0 hPa 0,0 l/m 3,1 km/h (1 Bft) NO 53 0 min 0,000 mm 0,0 UV-I 40 W/m -1,0 C -0,2 C 4,8 km/h (1 Bft) 100,00 %
05.03.2016 07:28 -0,2 C 94 % 996,1 hPa 0,0 l/m 3,6 km/h (1 Bft) NO 49 0 min 0,000 mm 0,0 UV-I 40 W/m -1,0 C -0,2 C 4,8 km/h (1 Bft) 100,00 %
05.03.2016 07:29 -0,2 C 94 % 996,0 hPa 0,0 l/m 3,7 km/h (1 Bft) O-NO 59 0 min 0,000 mm 0,0 UV-I 42 W/m -1,0 C -0,2 C 4,8 km/h (1 Bft) 100,00 %
05.03.2016 07:30 -0,1 C 94 % 996,0 hPa 0,0 l/m 4,3 km/h (1 Bft) NO 53 0 min 0,000 mm 0,0 UV-I 42 W/m -0,9 C -0,1 C 4,8 km/h (1 Bft) 100,00 %
05.03.2016 07:31 -0,1 C 94 % 995,9 hPa 0,0 l/m 5,8 km/h (2 Bft) NO 34 0 min 0,000 mm 0,0 UV-I 44 W/m -0,9 C -0,1 C 8,0 km/h (2 Bft) 100,00 %
05.03.2016 07:32 -0,1 C 94 % 995,9 hPa 0,0 l/m 6,0 km/h (2 Bft) O-NO 61 0 min 0,000 mm 0,0 UV-I 44 W/m -0,9 C -0,1 C 6,4 km/h (2 Bft) 100,00 %
05.03.2016 07:33 -0,1 C 94 % 996,0 hPa 0,0 l/m 3,7 km/h (1 Bft) NO 51 0 min 0,000 mm 0,0 UV-I 45 W/m -0,9 C -0,1 C 6,4 km/h (2 Bft) 100,00 %
05.03.2016 07:34 -0,1 C 94 % 996,0 hPa 0,0 l/m 4,4 km/h (1 Bft) NO 55 0 min 0,000 mm 0,0 UV-I 46 W/m -0,9 C -0,1 C 6,4 km/h (2 Bft) 100,00 %
05.03.2016 07:35 -0,1 C 94 % 996,0 hPa 0,0 l/m 5,8 km/h (2 Bft) O-NO 59 0 min 0,000 mm 0,0 UV-I 46 W/m -0,9 C -0,1 C 8,0 km/h (2 Bft) 100,00 %
05.03.2016 07:36 0,0 C 94 % 996,0 hPa 0,0 l/m 7,9 km/h (2 Bft) O-NO 63 0 min 0,000 mm 0,0 UV-I 47 W/m -0,8 C -1,5 C 9,7 km/h (2 Bft) 100,00 %
05.03.2016 07:37 0,0 C 94 % 996,1 hPa 0,0 l/m 5,5 km/h (1 Bft) O-NO 61 0 min 0,000 mm 0,0 UV-I 47 W/m -0,8 C 0,0 C 6,4 km/h (2 Bft) 100,00 %
05.03.2016 07:38 0,0 C 94 % 996,1 hPa 0,0 l/m 3,7 km/h (1 Bft) O-NO 63 0 min 0,000 mm 0,0 UV-I 47 W/m -0,8 C 0,0 C 4,8 km/h (1 Bft) 96,15 %
05.03.2016 07:39 0,0 C 94 % 996,1 hPa 0,0 l/m 3,6 km/h (1 Bft) NO 55 0 min 0,000 mm 0,0 UV-I 47 W/m -0,8 C 0,0 C 4,8 km/h (1 Bft) 95,83 %
05.03.2016 07:40 0,0 C 94 % 996,1 hPa 0,0 l/m 2,9 km/h (1 Bft) N-NO 28 0 min 0,000 mm 0,0 UV-I 48 W/m -0,8 C 0,0 C 4,8 km/h (1 Bft) 96,15 %
05.03.2016 07:41 0,0 C 94 % 996,1 hPa 0,0 l/m 5,5 km/h (1 Bft) N-NO 32 0 min 0,000 mm 0,0 UV-I 49 W/m -0,8 C 0,0 C 9,7 km/h (2 Bft) 100,00 %
05.03.2016 07:42 0,1 C 94 % 996,2 hPa 0,0 l/m 5,9 km/h (2 Bft) NO 44 0 min 0,000 mm 0,0 UV-I 49 W/m -0,7 C 0,1 C 8,0 km/h (2 Bft) 100,00 %
05.03.2016 07:43 0,1 C 94 % 996,2 hPa 0,0 l/m 3,9 km/h (1 Bft) NO 38 0 min 0,000 mm 0,0 UV-I 50 W/m -0,7 C 0,1 C 6,4 km/h (2 Bft) 100,00 %
05.03.2016 07:44 0,1 C 94 % 996,2 hPa 0,0 l/m 4,2 km/h (1 Bft) N-NO 14 0 min 0,000 mm 0,0 UV-I 51 W/m -0,7 C 0,1 C 6,4 km/h (2 Bft) 100,00 %
05.03.2016 07:45 0,1 C 94 % 996,1 hPa 0,0 l/m 4,3 km/h (1 Bft) N-NO 31 0 min 0,000 mm 0,0 UV-I 52 W/m -0,7 C 0,1 C 6,4 km/h (2 Bft) 100,00 %
05.03.2016 07:46 0,1 C 94 % 996,2 hPa 0,0 l/m 5,9 km/h (2 Bft) N-NO 17 0 min 0,000 mm 0,0 UV-I 53 W/m -0,7 C 0,1 C 12,9 km/h (3 Bft) 100,00 %
05.03.2016 07:47 0,1 C 94 % 996,2 hPa 0,0 l/m 7,3 km/h (2 Bft) NO 42 0 min 0,000 mm 0,0 UV-I 53 W/m -0,7 C -0,8 C 9,7 km/h (2 Bft) 100,00 %
05.03.2016 07:48 0,1 C 94 % 996,1 hPa 0,0 l/m 7,0 km/h (2 Bft) NO 39 0 min 0,000 mm 0,0 UV-I 54 W/m -0,7 C -0,5 C 9,7 km/h (2 Bft) 100,00 %
05.03.2016 07:49 0,1 C 94 % 996,1 hPa 0,0 l/m 7,0 km/h (2 Bft) NO 42 0 min 0,000 mm 0,0 UV-I 54 W/m -0,7 C -0,5 C 9,7 km/h (2 Bft) 98,65 %
05.03.2016 07:50 0,1 C 94 % 996,1 hPa 0,0 l/m 4,1 km/h (1 Bft) NO 34 0 min 0,000 mm 0,0 UV-I 54 W/m -0,7 C 0,1 C 6,4 km/h (2 Bft) 100,00 %
05.03.2016 07:51 0,1 C 94 % 996,1 hPa 0,0 l/m 4,3 km/h (1 Bft) N-NO 28 0 min 0,000 mm 0,0 UV-I 55 W/m -0,7 C 0,1 C 6,4 km/h (2 Bft) 100,00 %
05.03.2016 07:52 0,1 C 94 % 996,2 hPa 0,0 l/m 2,6 km/h (1 Bft) N-NO 33 0 min 0,000 mm 0,0 UV-I 56 W/m -0,7 C 0,1 C 3,2 km/h (1 Bft) 100,00 %
05.03.2016 07:53 0,1 C 94 % 996,1 hPa 0,0 l/m 3,1 km/h (1 Bft) N-NO 33 0 min 0,000 mm 0,0 UV-I 56 W/m -0,7 C 0,1 C 4,8 km/h (1 Bft) 100,00 %
05.03.2016 07:54 0,2 C 94 % 996,1 hPa 0,0 l/m 4,8 km/h (1 Bft) NO 48 0 min 0,000 mm 0,0 UV-I 58 W/m -0,6 C 0,2 C 6,4 km/h (2 Bft) 100,00 %
05.03.2016 07:55 0,2 C 94 % 996,1 hPa 0,0 l/m 6,7 km/h (2 Bft) O-NO 63 0 min 0,000 mm 0,0 UV-I 58 W/m -0,6 C -0,1 C 8,0 km/h (2 Bft) 100,00 %
05.03.2016 07:56 0,2 C 94 % 996,1 hPa 0,0 l/m 5,8 km/h (2 Bft) NO 44 0 min 0,000 mm 0,0 UV-I 59 W/m -0,6 C 0,2 C 8,0 km/h (2 Bft) 100,00 %
05.03.2016 07:57 0,2 C 94 % 996,1 hPa 0,0 l/m 4,9 km/h (1 Bft) N-NO 33 0 min 0,000 mm 0,0 UV-I 60 W/m -0,6 C 0,2 C 6,4 km/h (2 Bft) 100,00 %
05.03.2016 07:58 0,2 C 94 % 996,1 hPa 0,0 l/m 7,6 km/h (2 Bft) NO 41 0 min 0,000 mm 0,0 UV-I 61 W/m -0,6 C -1,0 C 9,7 km/h (2 Bft) 100,00 %
05.03.2016 07:59 0,2 C 94 % 996,1 hPa 0,0 l/m 6,6 km/h (2 Bft) N-NO 26 0 min 0,000 mm 0,0 UV-I 62 W/m -0,6 C 0,0 C 9,7 km/h (2 Bft) 100,00 %
05.03.2016 08:00 0,2 C 94 % 996,0 hPa 0,0 l/m 4,9 km/h (1 Bft) NO 49 0 min 0,025 mm 0,0 UV-I 63 W/m -0,6 C 0,2 C 8,0 km/h (2 Bft) 100,00 %
05.03.2016 08:02 0,2 C 94 % 996,0 hPa 0,0 l/m 6,3 km/h (2 Bft) NO 51 0 min 0,000 mm 0,0 UV-I 67 W/m -0,6 C 0,2 C 9,7 km/h (2 Bft) 100,00 %
05.03.2016 08:03 0,2 C 94 % 996,0 hPa 0,0 l/m 4,3 km/h (1 Bft) NO 53 0 min 0,000 mm 0,0 UV-I 70 W/m -0,6 C 0,2 C 6,4 km/h (2 Bft) 96,15 %
05.03.2016 08:04 0,3 C 94 % 996,1 hPa 0,0 l/m 5,8 km/h (2 Bft) O-NO 61 0 min 0,000 mm 0,0 UV-I 71 W/m -0,5 C 0,3 C 6,4 km/h (2 Bft) 100,00 %
05.03.2016 08:05 0,3 C 94 % 996,1 hPa 0,0 l/m 5,6 km/h (1 Bft) NO 52 0 min 0,000 mm 0,0 UV-I 74 W/m -0,5 C 0,3 C 6,4 km/h (2 Bft) 100,00 %
05.03.2016 08:06 0,3 C 94 % 996,1 hPa 0,0 l/m 5,6 km/h (1 Bft) NO 52 0 min 0,000 mm 0,0 UV-I 77 W/m -0,5 C 0,3 C 8,0 km/h (2 Bft) 100,00 %
05.03.2016 08:07 0,3 C 94 % 996,1 hPa 0,0 l/m 7,7 km/h (2 Bft) NO 50 0 min 0,000 mm 0,0 UV-I 77 W/m -0,5 C -1,0 C 9,7 km/h (2 Bft) 100,00 %
05.03.2016 08:08 0,3 C 94 % 996,1 hPa 0,0 l/m 7,6 km/h (2 Bft) NO 41 0 min 0,000 mm 0,0 UV-I 80 W/m -0,5 C -0,9 C 9,7 km/h (2 Bft) 100,00 %
05.03.2016 08:09 0,3 C 94 % 996,1 hPa 0,0 l/m 6,3 km/h (2 Bft) O-NO 65 0 min 0,000 mm 0,0 UV-I 82 W/m -0,5 C 0,3 C 8,0 km/h (2 Bft) 100,00 %
05.03.2016 08:10 0,3 C 94 % 996,2 hPa 0,0 l/m 7,8 km/h (2 Bft) O-NO 62 0 min 0,000 mm 0,0 UV-I 84 W/m -0,5 C -1,1 C 9,7 km/h (2 Bft) 100,00 %
05.03.2016 08:11 0,3 C 94 % 996,2 hPa 0,0 l/m 7,5 km/h (2 Bft) NO 53 0 min 0,000 mm 0,0 UV-I 86 W/m -0,5 C -0,8 C 9,7 km/h (2 Bft) 100,00 %
05.03.2016 08:12 0,3 C 93 % 996,2 hPa 0,0 l/m 7,9 km/h (2 Bft) NO 53 0 min 0,000 mm 0,0 UV-I 88 W/m -0,7 C -1,2 C 9,7 km/h (2 Bft) 100,00 %
05.03.2016 08:13 0,3 C 93 % 996,2 hPa 0,0 l/m 5,6 km/h (1 Bft) O-NO 67 0 min 0,000 mm 0,0 UV-I 90 W/m -0,7 C 0,3 C 6,4 km/h (2 Bft) 100,00 %
05.03.2016 08:14 0,3 C 93 % 996,2 hPa 0,0 l/m 7,4 km/h (2 Bft) NO 52 0 min 0,000 mm 0,0 UV-I 90 W/m -0,7 C -0,7 C 9,7 km/h (2 Bft) 100,00 %
05.03.2016 08:15 0,3 C 93 % 996,2 hPa 0,0 l/m 7,2 km/h (2 Bft) O-NO 68 0 min 0,000 mm 0,0 UV-I 92 W/m -0,7 C -0,5 C 9,7 km/h (2 Bft) 100,00 %
05.03.2016 08:16 0,3 C 93 % 996,2 hPa 0,0 l/m 7,0 km/h (2 Bft) O-NO 60 0 min 0,000 mm 0,0 UV-I 94 W/m -0,7 C -0,3 C 9,7 km/h (2 Bft) 100,00 %
05.03.2016 08:17 0,3 C 93 % 996,1 hPa 0,0 l/m 6,7 km/h (2 Bft) N-NO 30 0 min 0,000 mm 0,0 UV-I 95 W/m -0,7 C 0,0 C 8,0 km/h (2 Bft) 100,00 %
05.03.2016 08:18 0,3 C 93 % 996,1 hPa 0,0 l/m 7,6 km/h (2 Bft) O-NO 64 0 min 0,000 mm 0,0 UV-I 97 W/m -0,7 C -0,9 C 9,7 km/h (2 Bft) 100,00 %
05.03.2016 08:19 0,3 C 93 % 996,1 hPa 0,0 l/m 7,7 km/h (2 Bft) NO 49 0 min 0,000 mm 0,0 UV-I 99 W/m -0,7 C -1,0 C 9,7 km/h (2 Bft) 100,00 %
05.03.2016 08:20 0,3 C 93 % 996,1 hPa 0,0 l/m 8,2 km/h (2 Bft) O-NO 59 0 min 0,000 mm 0,0 UV-I 101 W/m -0,7 C -1,5 C 9,7 km/h (2 Bft) 100,00 %
05.03.2016 08:21 0,3 C 93 % 996,1 hPa 0,0 l/m 7,3 km/h (2 Bft) NO 46 0 min 0,000 mm 0,0 UV-I 104 W/m -0,7 C -0,6 C 9,7 km/h (2 Bft) 95,83 %
05.03.2016 08:22 0,3 C 93 % 996,1 hPa 0,0 l/m 6,6 km/h (2 Bft) O-NO 57 0 min 0,000 mm 0,0 UV-I 111 W/m -0,7 C 0,1 C 9,7 km/h (2 Bft) 92,31 %
05.03.2016 08:23 0,3 C 93 % 996,1 hPa 0,0 l/m 5,8 km/h (2 Bft) O-NO 59 0 min 0,000 mm 0,0 UV-I 118 W/m -0,7 C 0,3 C 6,4 km/h (2 Bft) 100,00 %
05.03.2016 08:24 0,3 C 93 % 996,1 hPa 0,0 l/m 7,1 km/h (2 Bft) NO 53 0 min 0,000 mm 0,0 UV-I 122 W/m -0,7 C -0,4 C 9,7 km/h (2 Bft) 100,00 %
05.03.2016 08:25 0,3 C 94 % 996,1 hPa 0,0 l/m 7,8 km/h (2 Bft) NO 44 0 min 0,000 mm 0,0 UV-I 132 W/m -0,5 C -1,1 C 9,7 km/h (2 Bft) 96,30 %
05.03.2016 08:26 0,3 C 94 % 996,1 hPa 0,0 l/m 7,6 km/h (2 Bft) O-NO 61 0 min 0,000 mm 0,0 UV-I 133 W/m -0,5 C -0,9 C 9,7 km/h (2 Bft) 100,00 %
05.03.2016 08:27 0,4 C 94 % 996,1 hPa 0,0 l/m 7,9 km/h (2 Bft) O-NO 61 0 min 0,000 mm 0,0 UV-I 137 W/m -0,5 C -1,1 C 12,9 km/h (3 Bft) 100,00 %
05.03.2016 08:28 0,4 C 94 % 996,2 hPa 0,0 l/m 7,3 km/h (2 Bft) NO 51 0 min 0,000 mm 0,0 UV-I 144 W/m -0,5 C -0,5 C 9,7 km/h (2 Bft) 100,00 %
05.03.2016 08:29 0,4 C 94 % 996,2 hPa 0,0 l/m 6,2 km/h (2 Bft) NO 43 0 min 0,000 mm 0,0 UV-I 154 W/m -0,5 C 0,4 C 8,0 km/h (2 Bft) 100,00 %
05.03.2016 08:30 0,4 C 94 % 996,2 hPa 0,0 l/m 6,4 km/h (2 Bft) O-NO 57 0 min 0,000 mm 0,0 UV-I 160 W/m -0,5 C 0,4 C 9,7 km/h (2 Bft) 95,83 %
05.03.2016 08:31 0,4 C 94 % 996,2 hPa 0,0 l/m 8,2 km/h (2 Bft) O-NO 61 0 min 0,000 mm 0,0 UV-I 161 W/m -0,5 C -1,4 C 9,7 km/h (2 Bft) 96,15 %
05.03.2016 08:32 0,4 C 94 % 996,2 hPa 0,0 l/m 7,4 km/h (2 Bft) NO 51 0 min 0,000 mm 0,0 UV-I 161 W/m -0,5 C -0,6 C 9,7 km/h (2 Bft) 100,00 %
05.03.2016 08:33 0,5 C 93 % 996,2 hPa 0,0 l/m 6,5 km/h (2 Bft) O-NO 57 1 min 0,000 mm 0,0 UV-I 167 W/m -0,5 C 0,4 C 9,7 km/h (2 Bft) 95,83 %
05.03.2016 08:34 0,5 C 94 % 996,2 hPa 0,0 l/m 7,0 km/h (2 Bft) O-NO 57 0 min 0,000 mm 0,0 UV-I 167 W/m -0,4 C -0,1 C 9,7 km/h (2 Bft) 91,30 %
05.03.2016 08:35 0,5 C 94 % 996,2 hPa 0,0 l/m 6,7 km/h (2 Bft) NO 40 0 min 0,000 mm 0,0 UV-I 156 W/m -0,4 C 0,2 C 9,7 km/h (2 Bft) 91,67 %
05.03.2016 08:36 0,6 C 94 % 996,2 hPa 0,0 l/m 9,6 km/h (2 Bft) NO 54 0 min 0,000 mm 0,0 UV-I 153 W/m -0,3 C -2,5 C 14,5 km/h (3 Bft) 100,00 %
05.03.2016 08:37 0,6 C 94 % 996,3 hPa 0,0 l/m 9,9 km/h (2 Bft) O-NO 78 0 min 0,000 mm 0,0 UV-I 157 W/m -0,3 C -2,7 C 12,9 km/h (3 Bft) 96,15 %
05.03.2016 08:38 0,6 C 93 % 996,3 hPa 0,0 l/m 7,8 km/h (2 Bft) O 82 0 min 0,000 mm 0,2 UV-I 164 W/m -0,4 C -0,8 C 11,3 km/h (2 Bft) 100,00 %
05.03.2016 08:39 0,6 C 93 % 996,3 hPa 0,0 l/m 8,0 km/h (2 Bft) O-NO 58 0 min 0,000 mm 0,5 UV-I 167 W/m -0,4 C -1,0 C 11,3 km/h (2 Bft) 92,59 %
05.03.2016 08:40 0,7 C 93 % 996,3 hPa 0,0 l/m 8,1 km/h (2 Bft) O-NO 60 1 min 0,000 mm 0,5 UV-I 195 W/m -0,3 C -1,0 C 9,7 km/h (2 Bft) 95,83 %
05.03.2016 08:41 0,7 C 93 % 996,3 hPa 0,0 l/m 8,4 km/h (2 Bft) O-NO 58 1 min 0,000 mm 0,5 UV-I 207 W/m -0,3 C -1,3 C 12,9 km/h (3 Bft) 100,00 %
05.03.2016 08:42 0,7 C 93 % 996,3 hPa 0,0 l/m 5,1 km/h (1 Bft) NO 52 1 min 0,000 mm 0,5 UV-I 202 W/m -0,3 C 0,7 C 6,4 km/h (2 Bft) 96,30 %
05.03.2016 08:43 0,7 C 93 % 996,3 hPa 0,0 l/m 7,5 km/h (2 Bft) O-NO 59 0 min 0,000 mm 0,5 UV-I 174 W/m -0,3 C -0,4 C 14,5 km/h (3 Bft) 100,00 %
05.03.2016 08:44 0,7 C 93 % 996,3 hPa 0,0 l/m 8,0 km/h (2 Bft) N-NO 30 1 min 0,000 mm 0,5 UV-I 208 W/m -0,3 C -0,9 C 14,5 km/h (3 Bft) 93,33 %
05.03.2016 08:45 0,8 C 93 % 996,3 hPa 0,0 l/m 7,0 km/h (2 Bft) NO 51 1 min 0,000 mm 0,5 UV-I 203 W/m -0,2 C 0,2 C 11,3 km/h (2 Bft) 100,00 %
05.03.2016 08:46 0,8 C 93 % 996,4 hPa 0,0 l/m 7,2 km/h (2 Bft) O-NO 57 1 min 0,000 mm 0,5 UV-I 212 W/m -0,2 C -0,0 C 11,3 km/h (2 Bft) 96,30 %
05.03.2016 08:47 0,8 C 93 % 996,3 hPa 0,0 l/m 7,8 km/h (2 Bft) NO 42 1 min 0,000 mm 0,5 UV-I 223 W/m -0,2 C -0,6 C 11,3 km/h (2 Bft) 100,00 %
05.03.2016 08:48 0,8 C 93 % 996,4 hPa 0,0 l/m 6,7 km/h (2 Bft) NO 44 1 min 0,000 mm 0,5 UV-I 228 W/m -0,2 C 0,5 C 9,7 km/h (2 Bft) 96,30 %
05.03.2016 08:49 0,8 C 93 % 996,3 hPa 0,0 l/m 8,2 km/h (2 Bft) NO 46 1 min 0,000 mm 0,6 UV-I 221 W/m -0,2 C -1,0 C 12,9 km/h (3 Bft) 95,65 %
05.03.2016 08:50 0,8 C 93 % 996,3 hPa 0,0 l/m 10,1 km/h (2 Bft) NO 47 1 min 0,000 mm 0,6 UV-I 206 W/m -0,2 C -2,6 C 12,9 km/h (3 Bft) 95,83 %
05.03.2016 08:51 0,9 C 92 % 996,3 hPa 0,0 l/m 10,9 km/h (2 Bft) O-NO 59 0 min 0,000 mm 0,6 UV-I 186 W/m -0,2 C -3,2 C 14,5 km/h (3 Bft) 95,65 %
05.03.2016 08:52 0,9 C 92 % 996,4 hPa 0,0 l/m 10,6 km/h (2 Bft) O-NO 57 1 min 0,000 mm 0,6 UV-I 198 W/m -0,2 C -2,9 C 14,5 km/h (3 Bft) 100,00 %
05.03.2016 08:53 0,9 C 93 % 996,3 hPa 0,0 l/m 12,5 km/h (3 Bft) NO 55 1 min 0,000 mm 0,6 UV-I 226 W/m -0,1 C -4,3 C 14,5 km/h (3 Bft) 96,15 %
05.03.2016 08:54 0,9 C 92 % 996,3 hPa 0,0 l/m 15,4 km/h (3 Bft) NO 52 1 min 0,000 mm 0,6 UV-I 262 W/m -0,2 C -6,1 C 17,7 km/h (3 Bft) 91,67 %
05.03.2016 08:55 0,9 C 92 % 996,3 hPa 0,0 l/m 10,8 km/h (2 Bft) O-NO 67 1 min 0,000 mm 0,7 UV-I 306 W/m -0,2 C -3,1 C 16,1 km/h (3 Bft) 100,00 %
05.03.2016 08:56 1,1 C 93 % 996,3 hPa 0,0 l/m 11,1 km/h (2 Bft) N-NO 29 1 min 0,000 mm 0,7 UV-I 309 W/m 0,1 C -3,1 C 14,5 km/h (3 Bft) 100,00 %
05.03.2016 08:57 1,1 C 92 % 996,3 hPa 0,0 l/m 12,7 km/h (3 Bft) O-NO 59 1 min 0,000 mm 0,7 UV-I 312 W/m -0,1 C -4,2 C 16,1 km/h (3 Bft) 96,30 %
05.03.2016 08:58 1,1 C 92 % 996,3 hPa 0,0 l/m 14,2 km/h (3 Bft) NO 51 1 min 0,000 mm 0,7 UV-I 306 W/m -0,1 C -5,2 C 16,1 km/h (3 Bft) 96,15 %
05.03.2016 08:59 1,1 C 92 % 996,3 hPa 0,0 l/m 12,6 km/h (3 Bft) N-NO 26 1 min 0,000 mm 0,7 UV-I 288 W/m -0,1 C -4,1 C 16,1 km/h (3 Bft) 100,00 %
05.03.2016 09:00 1,2 C 92 % 996,2 hPa 0,0 l/m 8,0 km/h (2 Bft) NO 39 1 min 0,051 mm 0,7 UV-I 297 W/m 0,0 C -0,4 C 9,7 km/h (2 Bft) 92,31 %
05.03.2016 09:02 1,3 C 92 % 996,3 hPa 0,0 l/m 10,6 km/h (2 Bft) NO 56 2 min 0,000 mm 0,7 UV-I 311 W/m 0,1 C -2,5 C 14,5 km/h (3 Bft) 98,00 %
05.03.2016 09:03 1,3 C 92 % 996,3 hPa 0,0 l/m 11,6 km/h (2 Bft) NO 41 1 min 0,000 mm 0,7 UV-I 320 W/m 0,1 C -3,2 C 16,1 km/h (3 Bft) 100,00 %
05.03.2016 09:04 1,3 C 92 % 996,3 hPa 0,0 l/m 8,8 km/h (2 Bft) NO 54 1 min 0,000 mm 0,7 UV-I 307 W/m 0,1 C -1,0 C 14,5 km/h (3 Bft) 100,00 %
05.03.2016 09:05 1,4 C 92 % 996,2 hPa 0,0 l/m 11,0 km/h (2 Bft) NO 50 1 min 0,000 mm 0,7 UV-I 312 W/m 0,2 C -2,7 C 16,1 km/h (3 Bft) 100,00 %
05.03.2016 09:06 1,4 C 92 % 996,3 hPa 0,0 l/m 13,3 km/h (3 Bft) NO 54 1 min 0,000 mm 0,7 UV-I 327 W/m 0,2 C -4,3 C 16,1 km/h (3 Bft) 96,55 %
05.03.2016 09:07 1,4 C 91 % 996,3 hPa 0,0 l/m 11,9 km/h (2 Bft) O-NO 59 1 min 0,000 mm 0,7 UV-I 322 W/m 0,1 C -3,3 C 16,1 km/h (3 Bft) 100,00 %
05.03.2016 09:08 1,5 C 91 % 996,3 hPa 0,0 l/m 8,7 km/h (2 Bft) NO 38 1 min 0,000 mm 0,7 UV-I 305 W/m 0,2 C -0,7 C 11,3 km/h (2 Bft) 96,15 %
05.03.2016 09:09 1,5 C 91 % 996,3 hPa 0,0 l/m 10,2 km/h (2 Bft) O-NO 71 1 min 0,000 mm 0,8 UV-I 312 W/m 0,2 C -2,0 C 14,5 km/h (3 Bft) 95,83 %
05.03.2016 09:10 1,5 C 91 % 996,3 hPa 0,0 l/m 10,3 km/h (2 Bft) O-NO 57 1 min 0,000 mm 0,8 UV-I 308 W/m 0,2 C -2,0 C 14,5 km/h (3 Bft) 100,00 %
05.03.2016 09:11 1,6 C 91 % 996,2 hPa 0,0 l/m 12,1 km/h (2 Bft) NO 47 1 min 0,000 mm 0,8 UV-I 294 W/m 0,3 C -3,2 C 14,5 km/h (3 Bft) 100,00 %
05.03.2016 09:12 1,6 C 91 % 996,2 hPa 0,0 l/m 9,9 km/h (2 Bft) O-NO 65 1 min 0,000 mm 0,8 UV-I 296 W/m 0,3 C -1,6 C 12,9 km/h (3 Bft) 100,00 %
05.03.2016 09:13 1,6 C 91 % 996,3 hPa 0,0 l/m 9,1 km/h (2 Bft) O-NO 65 1 min 0,000 mm 0,7 UV-I 294 W/m 0,3 C -0,9 C 12,9 km/h (3 Bft) 100,00 %
05.03.2016 09:14 1,7 C 91 % 996,3 hPa 0,0 l/m 9,2 km/h (2 Bft) O-NO 76 1 min 0,000 mm 0,8 UV-I 312 W/m 0,4 C -0,9 C 11,3 km/h (2 Bft) 100,00 %
05.03.2016 09:15 1,7 C 91 % 996,2 hPa 0,0 l/m 10,3 km/h (2 Bft) NO 50 1 min 0,000 mm 0,8 UV-I 303 W/m 0,4 C -1,8 C 14,5 km/h (3 Bft) 100,00 %
05.03.2016 09:16 1,7 C 90 % 996,2 hPa 0,0 l/m 8,0 km/h (2 Bft) NO 52 1 min 0,000 mm 0,8 UV-I 308 W/m 0,2 C 0,1 C 12,9 km/h (3 Bft) 100,00 %
05.03.2016 09:17 1,7 C 90 % 996,2 hPa 0,0 l/m 8,9 km/h (2 Bft) NO 42 1 min 0,000 mm 0,8 UV-I 312 W/m 0,2 C -0,7 C 11,3 km/h (2 Bft) 100,00 %
05.03.2016 09:18 1,7 C 91 % 996,2 hPa 0,0 l/m 8,3 km/h (2 Bft) NO 55 1 min 0,000 mm 0,8 UV-I 310 W/m 0,4 C -0,1 C 11,3 km/h (2 Bft) 95,83 %
05.03.2016 09:19 1,8 C 91 % 996,2 hPa 0,0 l/m 10,0 km/h (2 Bft) NO 46 1 min 0,000 mm 0,8 UV-I 302 W/m 0,5 C -1,5 C 12,9 km/h (3 Bft) 100,00 %
05.03.2016 09:20 1,8 C 91 % 996,2 hPa 0,0 l/m 8,9 km/h (2 Bft) NO 56 1 min 0,000 mm 0,8 UV-I 306 W/m 0,5 C -0,6 C 12,9 km/h (3 Bft) 100,00 %
05.03.2016 09:21 1,8 C 90 % 996,2 hPa 0,0 l/m 8,9 km/h (2 Bft) O-NO 63 1 min 0,000 mm 0,8 UV-I 305 W/m 0,3 C -0,6 C 12,9 km/h (3 Bft) 100,00 %
05.03.2016 09:22 1,8 C 90 % 996,2 hPa 0,0 l/m 8,5 km/h (2 Bft) NO 40 1 min 0,000 mm 0,8 UV-I 290 W/m 0,3 C -0,2 C 12,9 km/h (3 Bft) 100,00 %
05.03.2016 09:23 1,9 C 91 % 996,2 hPa 0,0 l/m 13,0 km/h (3 Bft) O-NO 64 1 min 0,000 mm 0,8 UV-I 290 W/m 0,6 C -3,5 C 16,1 km/h (3 Bft) 100,00 %
05.03.2016 09:24 1,9 C 90 % 996,2 hPa 0,0 l/m 14,2 km/h (3 Bft) NO 45 1 min 0,000 mm 0,8 UV-I 291 W/m 0,4 C -4,2 C 19,3 km/h (3 Bft) 100,00 %
05.03.2016 09:25 1,9 C 90 % 996,2 hPa 0,0 l/m 14,3 km/h (3 Bft) NO 53 1 min 0,000 mm 0,8 UV-I 278 W/m 0,4 C -4,3 C 19,3 km/h (3 Bft) 100,00 %
05.03.2016 09:26 2,0 C 90 % 996,2 hPa 0,0 l/m 12,5 km/h (3 Bft) O-NO 74 1 min 0,000 mm 0,8 UV-I 295 W/m 0,5 C -3,0 C 17,7 km/h (3 Bft) 100,00 %
05.03.2016 09:27 2,0 C 89 % 996,2 hPa 0,0 l/m 11,6 km/h (2 Bft) O-NO 74 1 min 0,000 mm 0,8 UV-I 322 W/m 0,4 C -2,4 C 14,5 km/h (3 Bft) 100,00 %
05.03.2016 09:28 2,0 C 89 % 996,2 hPa 0,0 l/m 11,3 km/h (2 Bft) NO 37 1 min 0,000 mm 0,8 UV-I 287 W/m 0,4 C -2,2 C 16,1 km/h (3 Bft) 100,00 %
05.03.2016 09:29 2,1 C 89 % 996,3 hPa 0,0 l/m 9,6 km/h (2 Bft) NO 54 1 min 0,000 mm 0,8 UV-I 248 W/m 0,5 C -0,8 C 12,9 km/h (3 Bft) 96,15 %
05.03.2016 09:30 2,1 C 90 % 996,3 hPa 0,0 l/m 7,8 km/h (2 Bft) O-NO 70 1 min 0,000 mm 0,8 UV-I 258 W/m 0,6 C 0,7 C 14,5 km/h (3 Bft) 100,00 %
05.03.2016 09:31 2,1 C 89 % 996,2 hPa 0,0 l/m 9,7 km/h (2 Bft) O-NO 59 1 min 0,000 mm 0,8 UV-I 267 W/m 0,5 C -0,9 C 16,1 km/h (3 Bft) 95,65 %
05.03.2016 09:32 2,1 C 89 % 996,3 hPa 0,0 l/m 11,3 km/h (2 Bft) NO 55 1 min 0,000 mm 0,8 UV-I 257 W/m 0,5 C -2,1 C 16,1 km/h (3 Bft) 93,33 %
05.03.2016 09:33 2,1 C 89 % 996,3 hPa 0,0 l/m 9,6 km/h (2 Bft) O-NO 57 1 min 0,000 mm 0,8 UV-I 260 W/m 0,5 C -0,8 C 14,5 km/h (3 Bft) 100,00 %
05.03.2016 09:34 2,2 C 89 % 996,3 hPa 0,0 l/m 15,2 km/h (3 Bft) O-NO 61 1 min 0,000 mm 0,8 UV-I 262 W/m 0,6 C -4,4 C 19,3 km/h (3 Bft) 95,65 %
05.03.2016 09:35 2,2 C 89 % 996,3 hPa 0,0 l/m 14,1 km/h (3 Bft) O-NO 59 1 min 0,000 mm 0,8 UV-I 271 W/m 0,6 C -3,8 C 17,7 km/h (3 Bft) 100,00 %
05.03.2016 09:36 2,2 C 89 % 996,2 hPa 0,0 l/m 14,6 km/h (3 Bft) O-NO 58 1 min 0,000 mm 0,8 UV-I 248 W/m 0,6 C -4,1 C 17,7 km/h (3 Bft) 96,15 %
05.03.2016 09:37 2,2 C 89 % 996,2 hPa 0,0 l/m 13,9 km/h (3 Bft) NO 36 0 min 0,000 mm 0,8 UV-I 238 W/m 0,6 C -3,7 C 17,7 km/h (3 Bft) 95,83 %
05.03.2016 09:38 2,2 C 89 % 996,2 hPa 0,0 l/m 14,1 km/h (3 Bft) NO 45 1 min 0,000 mm 0,9 UV-I 249 W/m 0,6 C -3,8 C 19,3 km/h (3 Bft) 100,00 %
05.03.2016 09:39 2,2 C 89 % 996,3 hPa 0,0 l/m 11,9 km/h (2 Bft) O-NO 67 1 min 0,000 mm 0,9 UV-I 250 W/m 0,6 C -2,4 C 16,1 km/h (3 Bft) 100,00 %
05.03.2016 09:40 2,2 C 89 % 996,3 hPa 0,0 l/m 13,3 km/h (3 Bft) NO 45 1 min 0,000 mm 0,9 UV-I 249 W/m 0,6 C -3,3 C 16,1 km/h (3 Bft) 100,00 %
05.03.2016 09:41 2,2 C 89 % 996,3 hPa 0,0 l/m 8,3 km/h (2 Bft) NO 44 0 min 0,000 mm 0,9 UV-I 238 W/m 0,6 C 0,4 C 14,5 km/h (3 Bft) 100,00 %
05.03.2016 09:42 2,3 C 89 % 996,4 hPa 0,0 l/m 10,6 km/h (2 Bft) O-NO 70 1 min 0,000 mm 0,9 UV-I 259 W/m 0,7 C -1,4 C 16,1 km/h (3 Bft) 96,15 %
05.03.2016 09:43 2,3 C 89 % 996,4 hPa 0,0 l/m 11,1 km/h (2 Bft) O-NO 69 1 min 0,000 mm 0,9 UV-I 261 W/m 0,7 C -1,7 C 12,9 km/h (3 Bft) 100,00 %
05.03.2016 09:44 2,3 C 89 % 996,4 hPa 0,0 l/m 11,3 km/h (2 Bft) NO 44 1 min 0,000 mm 0,9 UV-I 276 W/m 0,7 C -1,9 C 16,1 km/h (3 Bft) 100,00 %
05.03.2016 09:45 2,3 C 89 % 996,4 hPa 0,0 l/m 8,4 km/h (2 Bft) NO 36 1 min 0,000 mm 1,0 UV-I 296 W/m 0,7 C 0,4 C 11,3 km/h (2 Bft) 100,00 %
05.03.2016 09:46 2,3 C 89 % 996,4 hPa 0,0 l/m 9,8 km/h (2 Bft) O-NO 58 1 min 0,000 mm 1,0 UV-I 302 W/m 0,7 C -0,8 C 12,9 km/h (3 Bft) 100,00 %
05.03.2016 09:47 2,3 C 89 % 996,4 hPa 0,0 l/m 8,7 km/h (2 Bft) NO 34 1 min 0,000 mm 1,0 UV-I 300 W/m 0,7 C 0,1 C 11,3 km/h (2 Bft) 100,00 %
05.03.2016 09:48 2,4 C 89 % 996,3 hPa 0,0 l/m 9,3 km/h (2 Bft) NO 35 1 min 0,000 mm 1,0 UV-I 295 W/m 0,8 C -0,2 C 14,5 km/h (3 Bft) 98,60 %
05.03.2016 09:49 2,4 C 89 % 996,3 hPa 0,0 l/m 7,2 km/h (2 Bft) NO 53 1 min 0,000 mm 1,0 UV-I 299 W/m 0,8 C 1,6 C 12,9 km/h (3 Bft) 100,00 %
05.03.2016 09:50 2,5 C 88 % 996,3 hPa 0,0 l/m 12,4 km/h (3 Bft) NO 54 1 min 0,000 mm 1,0 UV-I 304 W/m 0,7 C -2,4 C 14,5 km/h (3 Bft) 100,00 %
05.03.2016 09:51 2,5 C 88 % 996,3 hPa 0,0 l/m 8,9 km/h (2 Bft) NO 34 1 min 0,000 mm 1,0 UV-I 296 W/m 0,7 C 0,2 C 14,5 km/h (3 Bft) 95,65 %
05.03.2016 09:52 2,5 C 88 % 996,3 hPa 0,0 l/m 6,8 km/h (2 Bft) NO 44 1 min 0,000 mm 1,1 UV-I 328 W/m 0,7 C 2,1 C 9,7 km/h (2 Bft) 100,00 %
05.03.2016 09:53 2,6 C 88 % 996,4 hPa 0,0 l/m 8,2 km/h (2 Bft) NO 51 1 min 0,000 mm 1,1 UV-I 328 W/m 0,8 C 0,9 C 12,9 km/h (3 Bft) 100,00 %
05.03.2016 09:54 2,6 C 88 % 996,4 hPa 0,0 l/m 8,3 km/h (2 Bft) O-NO 78 1 min 0,000 mm 1,1 UV-I 323 W/m 0,8 C 0,8 C 14,5 km/h (3 Bft) 100,00 %
05.03.2016 09:55 2,7 C 87 % 996,4 hPa 0,0 l/m 7,9 km/h (2 Bft) O-NO 78 1 min 0,000 mm 1,1 UV-I 324 W/m 0,8 C 1,3 C 12,9 km/h (3 Bft) 100,00 %
05.03.2016 09:56 2,7 C 87 % 996,4 hPa 0,0 l/m 8,4 km/h (2 Bft) O-NO 71 1 min 0,000 mm 1,1 UV-I 328 W/m 0,8 C 0,8 C 11,3 km/h (2 Bft) 100,00 %
05.03.2016 09:57 2,7 C 87 % 996,4 hPa 0,0 l/m 10,6 km/h (2 Bft) O-NO 63 1 min 0,000 mm 1,1 UV-I 322 W/m 0,8 C -0,9 C 12,9 km/h (3 Bft) 100,00 %
05.03.2016 09:58 2,7 C 87 % 996,4 hPa 0,0 l/m 6,6 km/h (2 Bft) O-NO 60 1 min 0,000 mm 1,1 UV-I 319 W/m 0,8 C 2,5 C 8,0 km/h (2 Bft) 100,00 %
05.03.2016 09:59 2,7 C 88 % 996,4 hPa 0,0 l/m 4,6 km/h (1 Bft) O 80 1 min 0,000 mm 1,1 UV-I 319 W/m 0,9 C 2,7 C 6,4 km/h (2 Bft) 100,00 %
05.03.2016 10:00 2,7 C 87 % 996,5 hPa 0,0 l/m 2,4 km/h (1 Bft) NO 55 1 min 0,000 mm 1,1 UV-I 309 W/m 0,8 C 2,7 C 4,8 km/h (1 Bft) 100,00 %
05.03.2016 10:01 2,7 C 87 % 996,5 hPa 0,0 l/m 4,4 km/h (1 Bft) NO 53 1 min 0,102 mm 1,1 UV-I 312 W/m 0,8 C 2,7 C 6,4 km/h (2 Bft) 100,00 %
05.03.2016 10:02 2,8 C 88 % 996,5 hPa 0,0 l/m 4,0 km/h (1 Bft) O-NO 71 1 min 0,000 mm 1,1 UV-I 313 W/m 1,0 C 2,8 C 6,4 km/h (2 Bft) 95,83 %
05.03.2016 10:03 2,8 C 88 % 996,4 hPa 0,0 l/m 4,8 km/h (1 Bft) O-NO 57 1 min 0,000 mm 1,1 UV-I 274 W/m 1,0 C 2,8 C 8,0 km/h (2 Bft) 100,00 %
05.03.2016 10:04 2,9 C 88 % 996,4 hPa 0,0 l/m 6,6 km/h (2 Bft) NO 49 1 min 0,000 mm 1,1 UV-I 288 W/m 1,1 C 2,7 C 8,0 km/h (2 Bft) 100,00 %
05.03.2016 10:05 2,9 C 88 % 996,4 hPa 0,0 l/m 5,8 km/h (2 Bft) O-NO 67 1 min 0,000 mm 1,1 UV-I 293 W/m 1,1 C 2,9 C 8,0 km/h (2 Bft) 100,00 %
05.03.2016 10:06 3,0 C 87 % 996,4 hPa 0,0 l/m 7,9 km/h (2 Bft) O-NO 66 1 min 0,000 mm 1,1 UV-I 316 W/m 1,1 C 1,6 C 12,9 km/h (3 Bft) 100,00 %
05.03.2016 10:07 3,0 C 87 % 996,4 hPa 0,0 l/m 7,4 km/h (2 Bft) O 92 1 min 0,000 mm 1,1 UV-I 322 W/m 1,1 C 2,1 C 9,7 km/h (2 Bft) 100,00 %
05.03.2016 10:08 3,0 C 86 % 996,3 hPa 0,0 l/m 6,1 km/h (2 Bft) O-NO 63 1 min 0,000 mm 1,2 UV-I 319 W/m 0,9 C 3,0 C 11,3 km/h (2 Bft) 100,00 %
05.03.2016 10:09 3,0 C 86 % 996,3 hPa 0,0 l/m 3,5 km/h (1 Bft) NO 55 1 min 0,000 mm 1,2 UV-I 324 W/m 0,9 C 3,0 C 4,8 km/h (1 Bft) 100,00 %
05.03.2016 10:10 3,1 C 87 % 996,3 hPa 0,0 l/m 6,3 km/h (2 Bft) NO 53 1 min 0,000 mm 1,2 UV-I 328 W/m 1,2 C 3,1 C 8,0 km/h (2 Bft) 100,00 %
05.03.2016 10:11 3,1 C 87 % 996,3 hPa 0,0 l/m 5,2 km/h (1 Bft) NO 55 1 min 0,000 mm 1,2 UV-I 337 W/m 1,2 C 3,1 C 6,4 km/h (2 Bft) 100,00 %
05.03.2016 10:12 3,1 C 87 % 996,3 hPa 0,0 l/m 7,2 km/h (2 Bft) NO 40 1 min 0,000 mm 1,2 UV-I 332 W/m 1,2 C 2,3 C 11,3 km/h (2 Bft) 95,65 %
05.03.2016 10:13 3,2 C 88 % 996,3 hPa 0,0 l/m 10,0 km/h (2 Bft) NO 49 1 min 0,000 mm 1,2 UV-I 338 W/m 1,4 C 0,1 C 14,5 km/h (3 Bft) 100,00 %
05.03.2016 10:14 3,2 C 87 % 996,3 hPa 0,0 l/m 9,8 km/h (2 Bft) O-NO 63 1 min 0,000 mm 1,3 UV-I 347 W/m 1,2 C 0,2 C 12,9 km/h (3 Bft) 96,55 %
05.03.2016 10:15 3,2 C 86 % 996,3 hPa 0,0 l/m 7,4 km/h (2 Bft) O-NO 76 1 min 0,000 mm 1,3 UV-I 344 W/m 1,1 C 2,3 C 11,3 km/h (2 Bft) 100,00 %
05.03.2016 10:16 3,3 C 86 % 996,4 hPa 0,0 l/m 10,5 km/h (2 Bft) O-NO 57 1 min 0,000 mm 1,3 UV-I 335 W/m 1,2 C -0,2 C 14,5 km/h (3 Bft) 96,15 %
05.03.2016 10:17 3,2 C 86 % 996,4 hPa 0,0 l/m 10,0 km/h (2 Bft) O-NO 78 1 min 0,000 mm 1,3 UV-I 346 W/m 1,1 C 0,1 C 12,9 km/h (3 Bft) 96,30 %
05.03.2016 10:18 3,3 C 86 % 996,4 hPa 0,0 l/m 9,6 km/h (2 Bft) O-NO 76 1 min 0,000 mm 1,3 UV-I 358 W/m 1,2 C 0,5 C 14,5 km/h (3 Bft) 100,00 %
05.03.2016 10:19 3,3 C 87 % 996,4 hPa 0,0 l/m 6,0 km/h (2 Bft) O-NO 75 1 min 0,000 mm 1,3 UV-I 348 W/m 1,3 C 3,3 C 9,7 km/h (2 Bft) 95,83 %
05.03.2016 10:20 3,3 C 86 % 996,3 hPa 0,0 l/m 9,3 km/h (2 Bft) NO 36 1 min 0,000 mm 1,3 UV-I 349 W/m 1,2 C 0,7 C 14,5 km/h (3 Bft) 100,00 %
05.03.2016 10:21 3,3 C 86 % 996,3 hPa 0,0 l/m 9,1 km/h (2 Bft) NO 41 1 min 0,000 mm 1,3 UV-I 339 W/m 1,2 C 0,9 C 11,3 km/h (2 Bft) 91,67 %
05.03.2016 10:22 3,4 C 87 % 996,3 hPa 0,0 l/m 7,4 km/h (2 Bft) N-NO 32 1 min 0,000 mm 1,3 UV-I 344 W/m 1,4 C 2,5 C 11,3 km/h (2 Bft) 100,00 %
05.03.2016 10:23 3,4 C 87 % 996,4 hPa 0,0 l/m 8,0 km/h (2 Bft) NO 51 1 min 0,000 mm 1,3 UV-I 334 W/m 1,4 C 1,9 C 14,5 km/h (3 Bft) 96,15 %
05.03.2016 10:24 3,4 C 86 % 996,3 hPa 0,0 l/m 10,7 km/h (2 Bft) O-NO 69 1 min 0,000 mm 1,3 UV-I 323 W/m 1,3 C -0,2 C 12,9 km/h (3 Bft) 94,74 %
05.03.2016 10:25 3,4 C 86 % 996,3 hPa 0,0 l/m 9,8 km/h (2 Bft) NO 56 1 min 0,000 mm 1,4 UV-I 364 W/m 1,3 C 0,5 C 12,9 km/h (3 Bft) 100,00 %
05.03.2016 10:26 3,4 C 85 % 996,3 hPa 0,0 l/m 7,9 km/h (2 Bft) NO 41 1 min 0,000 mm 1,4 UV-I 382 W/m 1,1 C 2,0 C 9,7 km/h (2 Bft) 91,30 %
05.03.2016 10:27 3,4 C 86 % 996,3 hPa 0,0 l/m 6,7 km/h (2 Bft) NO 47 1 min 0,000 mm 1,4 UV-I 371 W/m 1,3 C 3,1 C 9,7 km/h (2 Bft) 100,00 %
05.03.2016 10:28 3,5 C 87 % 996,3 hPa 0,0 l/m 6,4 km/h (2 Bft) NO 38 1 min 0,000 mm 1,4 UV-I 364 W/m 1,5 C 3,5 C 9,7 km/h (2 Bft) 96,15 %
05.03.2016 10:29 3,6 C 87 % 996,2 hPa 0,0 l/m 7,3 km/h (2 Bft) NO 45 1 min 0,000 mm 1,4 UV-I 364 W/m 1,6 C 2,8 C 9,7 km/h (2 Bft) 100,00 %
05.03.2016 10:30 3,6 C 86 % 996,2 hPa 0,0 l/m 7,6 km/h (2 Bft) O-NO 65 1 min 0,000 mm 1,3 UV-I 305 W/m 1,5 C 2,5 C 11,3 km/h (2 Bft) 93,33 %
05.03.2016 10:31 3,6 C 85 % 996,3 hPa 0,0 l/m 8,9 km/h (2 Bft) O-NO 59 1 min 0,000 mm 1,4 UV-I 315 W/m 1,3 C 1,4 C 16,1 km/h (3 Bft) 100,00 %
05.03.2016 10:32 3,5 C 85 % 996,2 hPa 0,0 l/m 9,0 km/h (2 Bft) O-NO 74 1 min 0,000 mm 1,4 UV-I 348 W/m 1,2 C 1,2 C 11,3 km/h (2 Bft) 96,30 %
05.03.2016 10:33 3,5 C 85 % 996,2 hPa 0,0 l/m 7,4 km/h (2 Bft) NO 46 1 min 0,000 mm 1,4 UV-I 357 W/m 1,2 C 2,6 C 11,3 km/h (2 Bft) 95,65 %
05.03.2016 10:34 3,5 C 86 % 996,2 hPa 0,0 l/m 5,8 km/h (2 Bft) NO 40 1 min 0,000 mm 1,3 UV-I 318 W/m 1,4 C 3,5 C 8,0 km/h (2 Bft) 100,00 %
05.03.2016 10:35 3,6 C 86 % 996,1 hPa 0,0 l/m 7,3 km/h (2 Bft) NO 46 1 min 0,000 mm 1,4 UV-I 339 W/m 1,5 C 2,8 C 11,3 km/h (2 Bft) 92,31 %
05.03.2016 10:36 3,6 C 85 % 996,1 hPa 0,0 l/m 10,2 km/h (2 Bft) NO 48 1 min 0,000 mm 1,5 UV-I 362 W/m 1,3 C 0,4 C 12,9 km/h (3 Bft) 100,00 %
05.03.2016 10:37 3,6 C 86 % 996,2 hPa 0,0 l/m 11,1 km/h (2 Bft) NO 43 1 min 0,000 mm 1,5 UV-I 355 W/m 1,5 C -0,3 C 16,1 km/h (3 Bft) 100,00 %
05.03.2016 10:38 3,6 C 86 % 996,2 hPa 0,0 l/m 9,5 km/h (2 Bft) NO 51 1 min 0,000 mm 1,4 UV-I 318 W/m 1,5 C 0,9 C 11,3 km/h (2 Bft) 93,33 %
05.03.2016 10:39 3,6 C 86 % 996,2 hPa 0,0 l/m 8,8 km/h (2 Bft) N-NO 19 0 min 0,000 mm 1,4 UV-I 289 W/m 1,5 C 1,5 C 11,3 km/h (2 Bft) 96,15 %
05.03.2016 10:40 3,6 C 85 % 996,2 hPa 0,0 l/m 8,1 km/h (2 Bft) NO 52 0 min 0,000 mm 1,3 UV-I 279 W/m 1,3 C 2,0 C 11,3 km/h (2 Bft) 100,00 %
05.03.2016 10:41 3,7 C 87 % 996,2 hPa 0,0 l/m 5,5 km/h (1 Bft) N-NO 22 1 min 0,000 mm 1,4 UV-I 316 W/m 1,7 C 3,7 C 8,0 km/h (2 Bft) 100,00 %
05.03.2016 10:42 3,7 C 86 % 996,2 hPa 0,0 l/m 9,9 km/h (2 Bft) NO 35 1 min 0,000 mm 1,4 UV-I 325 W/m 1,6 C 0,7 C 14,5 km/h (3 Bft) 96,30 %
05.03.2016 10:43 3,7 C 86 % 996,2 hPa 0,0 l/m 10,2 km/h (2 Bft) N-NO 31 1 min 0,000 mm 1,6 UV-I 377 W/m 1,6 C 0,5 C 14,5 km/h (3 Bft) 100,00 %
05.03.2016 10:44 3,8 C 87 % 996,2 hPa 0,0 l/m 8,9 km/h (2 Bft) O-NO 62 1 min 0,000 mm 1,7 UV-I 483 W/m 1,8 C 1,6 C 14,5 km/h (3 Bft) 100,00 %
05.03.2016 10:45 3,8 C 86 % 996,1 hPa 0,0 l/m 9,9 km/h (2 Bft) NO 44 1 min 0,000 mm 1,7 UV-I 482 W/m 1,7 C 0,8 C 14,5 km/h (3 Bft) 98,56 %
05.03.2016 10:46 3,9 C 86 % 996,1 hPa 0,0 l/m 7,4 km/h (2 Bft) NO 37 1 min 0,000 mm 1,8 UV-I 509 W/m 1,8 C 3,0 C 11,3 km/h (2 Bft) 100,00 %
05.03.2016 10:47 4,0 C 85 % 996,1 hPa 0,0 l/m 10,7 km/h (2 Bft) NO 46 1 min 0,000 mm 1,8 UV-I 528 W/m 1,7 C 0,5 C 14,5 km/h (3 Bft) 100,00 %
05.03.2016 10:48 4,1 C 85 % 996,1 hPa 0,0 l/m 10,1 km/h (2 Bft) O-NO 64 1 min 0,000 mm 1,8 UV-I 501 W/m 1,8 C 1,0 C 14,5 km/h (3 Bft) 100,00 %
05.03.2016 10:49 4,0 C 84 % 996,2 hPa 0,0 l/m 8,5 km/h (2 Bft) O-NO 64 1 min 0,000 mm 1,7 UV-I 434 W/m 1,5 C 2,1 C 12,9 km/h (3 Bft) 100,00 %
05.03.2016 10:50 3,9 C 84 % 996,2 hPa 0,0 l/m 9,3 km/h (2 Bft) NO 53 1 min 0,000 mm 1,5 UV-I 318 W/m 1,4 C 1,4 C 12,9 km/h (3 Bft) 100,00 %
05.03.2016 10:51 3,9 C 84 % 996,2 hPa 0,0 l/m 10,8 km/h (2 Bft) O-NO 74 0 min 0,000 mm 1,4 UV-I 252 W/m 1,4 C 0,3 C 17,7 km/h (3 Bft) 100,00 %
05.03.2016 10:52 3,9 C 85 % 996,2 hPa 0,0 l/m 11,9 km/h (2 Bft) NO 43 0 min 0,000 mm 1,3 UV-I 195 W/m 1,6 C -0,4 C 16,1 km/h (3 Bft) 100,00 %
05.03.2016 10:53 3,9 C 86 % 996,2 hPa 0,0 l/m 11,8 km/h (2 Bft) NO 44 0 min 0,000 mm 1,3 UV-I 201 W/m 1,8 C -0,4 C 14,5 km/h (3 Bft) 100,00 %
05.03.2016 10:54 3,9 C 85 % 996,2 hPa 0,0 l/m 10,5 km/h (2 Bft) O-NO 57 0 min 0,000 mm 1,3 UV-I 199 W/m 1,6 C 0,5 C 16,1 km/h (3 Bft) 100,00 %
05.03.2016 10:55 3,9 C 85 % 996,2 hPa 0,0 l/m 13,8 km/h (3 Bft) O-NO 62 0 min 0,000 mm 1,3 UV-I 209 W/m 1,6 C -1,6 C 16,1 km/h (3 Bft) 96,67 %
05.03.2016 10:56 3,8 C 84 % 996,2 hPa 0,0 l/m 8,4 km/h (2 Bft) O-NO 76 0 min 0,000 mm 1,4 UV-I 236 W/m 1,4 C 2,0 C 12,9 km/h (3 Bft) 96,15 %
05.03.2016 10:57 3,8 C 85 % 996,2 hPa 0,0 l/m 7,3 km/h (2 Bft) O-NO 71 1 min 0,000 mm 1,5 UV-I 351 W/m 1,5 C 3,0 C 9,7 km/h (2 Bft) 100,00 %
05.03.2016 10:58 3,9 C 86 % 996,1 hPa 0,0 l/m 8,9 km/h (2 Bft) NO 55 1 min 0,000 mm 1,5 UV-I 345 W/m 1,8 C 1,7 C 11,3 km/h (2 Bft) 100,00 %
05.03.2016 10:59 3,9 C 85 % 996,1 hPa 0,0 l/m 6,6 km/h (2 Bft) NO 34 0 min 0,000 mm 1,4 UV-I 283 W/m 1,6 C 3,7 C 9,7 km/h (2 Bft) 100,00 %
05.03.2016 11:00 4,0 C 86 % 996,1 hPa 0,0 l/m 6,9 km/h (2 Bft) O-NO 62 0 min 0,000 mm 1,3 UV-I 248 W/m 1,9 C 3,5 C 9,7 km/h (2 Bft) 100,00 %
05.03.2016 11:01 4,0 C 86 % 996,1 hPa 0,0 l/m 5,2 km/h (1 Bft) NO 55 0 min 0,127 mm 1,4 UV-I 273 W/m 1,9 C 4,0 C 9,7 km/h (2 Bft) 100,00 %
05.03.2016 11:02 4,1 C 85 % 996,0 hPa 0,0 l/m 9,7 km/h (2 Bft) NO 53 1 min 0,000 mm 1,5 UV-I 339 W/m 1,8 C 1,3 C 14,5 km/h (3 Bft) 100,00 %
05.03.2016 11:03 4,1 C 85 % 996,0 hPa 0,0 l/m 8,3 km/h (2 Bft) NO 53 1 min 0,000 mm 1,7 UV-I 426 W/m 1,8 C 2,4 C 9,7 km/h (2 Bft) 100,00 %
05.03.2016 11:04 4,2 C 86 % 996,0 hPa 0,0 l/m 6,9 km/h (2 Bft) O-NO 67 1 min 0,000 mm 1,8 UV-I 484 W/m 2,1 C 3,8 C 11,3 km/h (2 Bft) 100,00 %
05.03.2016 11:05 4,3 C 86 % 996,0 hPa 0,0 l/m 5,9 km/h (2 Bft) N-NO 15 1 min 0,000 mm 2,0 UV-I 526 W/m 2,2 C 4,3 C 8,0 km/h (2 Bft) 100,00 %
05.03.2016 11:06 4,5 C 85 % 996,0 hPa 0,0 l/m 5,5 km/h (1 Bft) N-NO 33 1 min 0,000 mm 2,3 UV-I 678 W/m 2,2 C 4,5 C 8,0 km/h (2 Bft) 100,00 %
05.03.2016 11:07 4,7 C 85 % 996,1 hPa 0,0 l/m 10,1 km/h (2 Bft) NO 53 1 min 0,000 mm 2,2 UV-I 710 W/m 2,4 C 1,7 C 14,5 km/h (3 Bft) 100,00 %
05.03.2016 11:08 4,7 C 85 % 996,1 hPa 0,0 l/m 8,5 km/h (2 Bft) N-NO 28 1 min 0,000 mm 2,2 UV-I 659 W/m 2,4 C 2,9 C 11,3 km/h (2 Bft) 95,65 %
05.03.2016 11:09 4,8 C 86 % 996,1 hPa 0,0 l/m 7,8 km/h (2 Bft) NO 49 1 min 0,000 mm 2,0 UV-I 607 W/m 2,7 C 3,6 C 11,3 km/h (2 Bft) 95,83 %
05.03.2016 11:10 4,9 C 84 % 996,1 hPa 0,0 l/m 8,2 km/h (2 Bft) NO 48 1 min 0,000 mm 2,1 UV-I 552 W/m 2,4 C 3,3 C 16,1 km/h (3 Bft) 100,00 %
05.03.2016 11:11 4,9 C 84 % 996,1 hPa 0,0 l/m 8,2 km/h (2 Bft) NO 53 1 min 0,000 mm 1,9 UV-I 438 W/m 2,4 C 3,3 C 11,3 km/h (2 Bft) 100,00 %
05.03.2016 11:12 4,9 C 84 % 996,1 hPa 0,0 l/m 7,3 km/h (2 Bft) N-NO 12 1 min 0,000 mm 2,1 UV-I 376 W/m 2,4 C 4,1 C 12,9 km/h (3 Bft) 96,15 %
05.03.2016 11:13 5,0 C 85 % 996,1 hPa 0,0 l/m 7,2 km/h (2 Bft) N-NO 24 1 min 0,000 mm 2,2 UV-I 376 W/m 2,7 C 4,3 C 11,3 km/h (2 Bft) 100,00 %
05.03.2016 11:14 5,1 C 83 % 996,1 hPa 0,0 l/m 9,5 km/h (2 Bft) O-NO 76 1 min 0,000 mm 2,4 UV-I 695 W/m 2,5 C 2,5 C 12,9 km/h (3 Bft) 100,00 %
05.03.2016 11:15 5,1 C 82 % 996,1 hPa 0,0 l/m 9,0 km/h (2 Bft) O-NO 77 1 min 0,000 mm 2,4 UV-I 700 W/m 2,3 C 2,9 C 12,9 km/h (3 Bft) 100,00 %
05.03.2016 11:16 4,9 C 83 % 996,1 hPa 0,0 l/m 6,0 km/h (2 Bft) NO 40 1 min 0,000 mm 2,4 UV-I 687 W/m 2,3 C 4,9 C 8,0 km/h (2 Bft) 97,44 %
05.03.2016 11:17 5,0 C 83 % 996,0 hPa 0,0 l/m 7,2 km/h (2 Bft) N-NO 32 1 min 0,000 mm 2,4 UV-I 677 W/m 2,4 C 4,3 C 9,7 km/h (2 Bft) 100,00 %
05.03.2016 11:18 5,2 C 86 % 996,0 hPa 0,0 l/m 9,7 km/h (2 Bft) NO 54 1 min 0,000 mm 2,4 UV-I 672 W/m 3,1 C 2,5 C 14,5 km/h (3 Bft) 93,33 %
05.03.2016 11:19 5,3 C 84 % 996,0 hPa 0,0 l/m 8,0 km/h (2 Bft) O-NO 63 1 min 0,000 mm 2,4 UV-I 667 W/m 2,8 C 3,9 C 9,7 km/h (2 Bft) 100,00 %
05.03.2016 11:20 5,4 C 83 % 996,1 hPa 0,0 l/m 8,5 km/h (2 Bft) NO 40 1 min 0,000 mm 2,3 UV-I 662 W/m 2,7 C 3,6 C 14,5 km/h (3 Bft) 100,00 %
05.03.2016 11:21 5,5 C 85 % 996,1 hPa 0,0 l/m 10,8 km/h (2 Bft) O-NO 64 1 min 0,000 mm 2,3 UV-I 660 W/m 3,2 C 2,1 C 14,5 km/h (3 Bft) 100,00 %
05.03.2016 11:22 5,6 C 82 % 996,0 hPa 0,0 l/m 9,0 km/h (2 Bft) N-NO 16 1 min 0,000 mm 2,4 UV-I 651 W/m 2,8 C 3,5 C 12,9 km/h (3 Bft) 100,00 %
05.03.2016 11:23 5,5 C 82 % 996,0 hPa 0,0 l/m 6,3 km/h (2 Bft) N 9 1 min 0,000 mm 2,3 UV-I 649 W/m 2,7 C 5,5 C 8,0 km/h (2 Bft) 98,62 %
05.03.2016 11:24 5,7 C 84 % 996,0 hPa 0,0 l/m 9,1 km/h (2 Bft) NO 38 1 min 0,000 mm 2,3 UV-I 640 W/m 3,2 C 3,5 C 14,5 km/h (3 Bft) 100,00 %
05.03.2016 11:25 5,8 C 83 % 996,0 hPa 0,0 l/m 12,1 km/h (2 Bft) NO 36 1 min 0,000 mm 2,3 UV-I 641 W/m 3,1 C 1,6 C 16,1 km/h (3 Bft) 100,00 %
05.03.2016 11:26 5,8 C 83 % 996,0 hPa 0,0 l/m 10,1 km/h (2 Bft) O-NO 70 1 min 0,000 mm 2,3 UV-I 632 W/m 3,1 C 2,9 C 14,5 km/h (3 Bft) 100,00 %
05.03.2016 11:27 5,8 C 81 % 996,0 hPa 0,0 l/m 7,8 km/h (2 Bft) O-NO 69 1 min 0,000 mm 2,3 UV-I 630 W/m 2,8 C 4,6 C 11,3 km/h (2 Bft) 100,00 %
05.03.2016 11:28 5,7 C 80 % 996,0 hPa 0,0 l/m 6,1 km/h (2 Bft) N-NO 33 1 min 0,000 mm 2,3 UV-I 623 W/m 2,5 C 5,7 C 8,0 km/h (2 Bft) 100,00 %
05.03.2016 11:29 5,6 C 82 % 996,0 hPa 0,0 l/m 8,2 km/h (2 Bft) N-NO 24 1 min 0,000 mm 2,3 UV-I 623 W/m 2,8 C 4,1 C 12,9 km/h (3 Bft) 95,65 %
05.03.2016 11:30 5,8 C 84 % 996,0 hPa 0,0 l/m 5,3 km/h (1 Bft) NO 36 1 min 0,000 mm 2,3 UV-I 615 W/m 3,3 C 5,8 C 8,0 km/h (2 Bft) 100,00 %
05.03.2016 11:31 5,9 C 84 % 996,0 hPa 0,0 l/m 8,0 km/h (2 Bft) N-NO 26 1 min 0,000 mm 2,3 UV-I 617 W/m 3,4 C 4,5 C 14,5 km/h (3 Bft) 100,00 %
05.03.2016 11:32 6,0 C 82 % 996,0 hPa 0,0 l/m 7,1 km/h (2 Bft) NO 41 1 min 0,000 mm 2,3 UV-I 617 W/m 3,2 C 5,4 C 11,3 km/h (2 Bft) 100,00 %
05.03.2016 11:33 5,9 C 82 % 996,0 hPa 0,0 l/m 8,8 km/h (2 Bft) N-NO 15 1 min 0,000 mm 2,3 UV-I 612 W/m 3,1 C 3,9 C 14,5 km/h (3 Bft) 100,00 %
05.03.2016 11:34 5,9 C 83 % 995,9 hPa 0,0 l/m 9,1 km/h (2 Bft) N-NO 13 1 min 0,000 mm 2,3 UV-I 611 W/m 3,2 C 3,7 C 12,9 km/h (3 Bft) 100,00 %
05.03.2016 11:35 5,9 C 83 % 995,9 hPa 0,0 l/m 7,0 km/h (2 Bft) N 11 1 min 0,000 mm 2,3 UV-I 610 W/m 3,2 C 5,4 C 14,5 km/h (3 Bft) 100,00 %
05.03.2016 11:36 6,0 C 84 % 995,9 hPa 0,0 l/m 7,8 km/h (2 Bft) N-NO 20 1 min 0,000 mm 2,3 UV-I 606 W/m 3,5 C 4,8 C 12,9 km/h (3 Bft) 95,65 %
05.03.2016 11:37 6,1 C 83 % 995,9 hPa 0,0 l/m 9,9 km/h (2 Bft) NO 42 1 min 0,000 mm 2,3 UV-I 606 W/m 3,4 C 3,4 C 14,5 km/h (3 Bft) 100,00 %
05.03.2016 11:38 6,2 C 81 % 995,9 hPa 0,0 l/m 10,1 km/h (2 Bft) NO 40 1 min 0,000 mm 2,3 UV-I 609 W/m 3,2 C 3,3 C 14,5 km/h (3 Bft) 100,00 %
05.03.2016 11:39 6,3 C 82 % 995,9 hPa 0,0 l/m 8,5 km/h (2 Bft) N-NO 19 1 min 0,000 mm 2,3 UV-I 610 W/m 3,5 C 4,6 C 11,3 km/h (2 Bft) 100,00 %
05.03.2016 11:40 6,3 C 80 % 995,9 hPa 0,0 l/m 8,9 km/h (2 Bft) NO 39 1 min 0,000 mm 2,3 UV-I 616 W/m 3,1 C 4,3 C 14,5 km/h (3 Bft) 100,00 %
05.03.2016 11:41 6,2 C 80 % 995,9 hPa 0,0 l/m 6,3 km/h (2 Bft) NO 35 1 min 0,000 mm 2,3 UV-I 622 W/m 3,0 C 6,2 C 9,7 km/h (2 Bft) 100,00 %
05.03.2016 11:42 6,2 C 82 % 995,8 hPa 0,0 l/m 6,9 km/h (2 Bft) N 11 1 min 0,000 mm 2,3 UV-I 622 W/m 3,4 C 5,8 C 12,9 km/h (3 Bft) 92,31 %
05.03.2016 11:43 6,3 C 83 % 995,8 hPa 0,0 l/m 8,9 km/h (2 Bft) O-NO 63 1 min 0,000 mm 2,3 UV-I 619 W/m 3,6 C 4,3 C 12,9 km/h (3 Bft) 100,00 %
05.03.2016 11:44 6,3 C 80 % 995,8 hPa 0,0 l/m 13,8 km/h (3 Bft) O 80 1 min 0,000 mm 2,4 UV-I 628 W/m 3,1 C 1,3 C 16,1 km/h (3 Bft) 96,15 %
05.03.2016 11:45 6,3 C 80 % 995,8 hPa 0,0 l/m 11,9 km/h (2 Bft) O-NO 74 1 min 0,000 mm 2,4 UV-I 635 W/m 3,1 C 2,3 C 16,1 km/h (3 Bft) 93,33 %
05.03.2016 11:46 6,4 C 79 % 995,8 hPa 0,0 l/m 7,6 km/h (2 Bft) O-NO 57 1 min 0,000 mm 2,4 UV-I 638 W/m 3,0 C 5,4 C 9,7 km/h (2 Bft) 100,00 %
05.03.2016 11:47 6,4 C 79 % 995,8 hPa 0,0 l/m 8,6 km/h (2 Bft) O-NO 72 1 min 0,000 mm 2,4 UV-I 642 W/m 3,0 C 4,6 C 12,9 km/h (3 Bft) 95,83 %
05.03.2016 11:48 6,4 C 80 % 995,8 hPa 0,0 l/m 10,5 km/h (2 Bft) O-NO 74 1 min 0,000 mm 2,4 UV-I 645 W/m 3,2 C 3,3 C 14,5 km/h (3 Bft) 95,65 %
05.03.2016 11:49 6,4 C 79 % 995,8 hPa 0,0 l/m 10,9 km/h (2 Bft) O-NO 69 1 min 0,000 mm 2,4 UV-I 638 W/m 3,0 C 3,0 C 14,5 km/h (3 Bft) 100,00 %
05.03.2016 11:50 6,4 C 79 % 995,7 hPa 0,0 l/m 10,4 km/h (2 Bft) O-NO 57 1 min 0,000 mm 2,4 UV-I 633 W/m 3,0 C 3,4 C 16,1 km/h (3 Bft) 100,00 %
05.03.2016 11:51 6,4 C 79 % 995,7 hPa 0,0 l/m 9,5 km/h (2 Bft) NO 38 1 min 0,000 mm 2,4 UV-I 637 W/m 3,0 C 4,0 C 14,5 km/h (3 Bft) 95,65 %
05.03.2016 11:52 6,4 C 79 % 995,7 hPa 0,0 l/m 11,7 km/h (2 Bft) NO 49 1 min 0,000 mm 2,4 UV-I 633 W/m 3,0 C 2,5 C 16,1 km/h (3 Bft) 100,00 %
05.03.2016 11:53 6,4 C 79 % 995,7 hPa 0,0 l/m 5,1 km/h (1 Bft) O-NO 68 1 min 0,000 mm 2,3 UV-I 610 W/m 3,0 C 6,4 C 8,0 km/h (2 Bft) 96,55 %
05.03.2016 11:54 6,5 C 79 % 995,6 hPa 0,0 l/m 8,9 km/h (2 Bft) NO 35 1 min 0,000 mm 2,3 UV-I 613 W/m 3,1 C 4,5 C 16,1 km/h (3 Bft) 96,67 %
05.03.2016 11:55 6,5 C 78 % 995,6 hPa 0,0 l/m 12,4 km/h (3 Bft) NO 53 1 min 0,000 mm 2,2 UV-I 551 W/m 2,9 C 2,3 C 16,1 km/h (3 Bft) 100,00 %
05.03.2016 11:56 6,5 C 78 % 995,6 hPa 0,0 l/m 13,4 km/h (3 Bft) NO 38 1 min 0,000 mm 2,3 UV-I 602 W/m 2,9 C 1,7 C 17,7 km/h (3 Bft) 98,60 %
05.03.2016 11:57 6,6 C 78 % 995,5 hPa 0,0 l/m 13,2 km/h (3 Bft) N-NO 15 1 min 0,000 mm 2,3 UV-I 608 W/m 3,0 C 1,9 C 19,3 km/h (3 Bft) 97,56 %
05.03.2016 11:58 6,6 C 80 % 995,4 hPa 0,0 l/m 10,5 km/h (2 Bft) NO 54 1 min 0,000 mm 2,3 UV-I 593 W/m 3,4 C 3,5 C 14,5 km/h (3 Bft) 96,30 %
05.03.2016 11:59 6,7 C 79 % 995,5 hPa 0,0 l/m 14,1 km/h (3 Bft) N-NO 27 1 min 0,000 mm 2,3 UV-I 608 W/m 3,3 C 1,6 C 19,3 km/h (3 Bft) 100,00 %
05.03.2016 12:00 6,8 C 80 % 995,4 hPa 0,0 l/m 11,4 km/h (2 Bft) NO 41 1 min 0,254 mm 2,3 UV-I 597 W/m 3,6 C 3,2 C 17,7 km/h (3 Bft) 92,59 %
05.03.2016 12:01 6,9 C 80 % 995,4 hPa 0,0 l/m 17,7 km/h (3 Bft) NO 37 1 min 0,000 mm 2,3 UV-I 636 W/m 3,7 C 0,2 C 22,5 km/h (4 Bft) 95,65 %
05.03.2016 12:02 7,1 C 80 % 995,4 hPa 0,0 l/m 9,3 km/h (2 Bft) NO 54 1 min 0,000 mm 2,3 UV-I 616 W/m 3,9 C 4,9 C 12,9 km/h (3 Bft) 100,00 %
05.03.2016 12:03 7,1 C 78 % 995,4 hPa 0,0 l/m 15,7 km/h (3 Bft) O 85 1 min 0,000 mm 2,3 UV-I 633 W/m 3,5 C 1,3 C 22,5 km/h (4 Bft) 91,30 %
05.03.2016 12:04 7,0 C 77 % 995,4 hPa 0,0 l/m 15,0 km/h (3 Bft) NO 53 1 min 0,000 mm 2,3 UV-I 667 W/m 3,2 C 1,5 C 20,9 km/h (4 Bft) 100,00 %
05.03.2016 12:05 6,9 C 77 % 995,4 hPa 0,0 l/m 11,6 km/h (2 Bft) NO 44 1 min 0,000 mm 2,1 UV-I 675 W/m 3,2 C 3,2 C 16,1 km/h (3 Bft) 100,00 %
05.03.2016 12:06 6,8 C 78 % 995,5 hPa 0,0 l/m 9,8 km/h (2 Bft) O-NO 63 1 min 0,000 mm 2,1 UV-I 488 W/m 3,2 C 4,2 C 14,5 km/h (3 Bft) 100,00 %
05.03.2016 12:07 6,9 C 79 % 995,5 hPa 0,0 l/m 10,5 km/h (2 Bft) NO 55 1 min 0,000 mm 2,0 UV-I 485 W/m 3,5 C 3,8 C 17,7 km/h (3 Bft) 96,15 %
05.03.2016 12:08 7,0 C 80 % 995,5 hPa 0,0 l/m 10,5 km/h (2 Bft) NO 50 1 min 0,000 mm 1,7 UV-I 485 W/m 3,8 C 4,0 C 16,1 km/h (3 Bft) 100,00 %
05.03.2016 12:09 7,1 C 77 % 995,6 hPa 0,0 l/m 12,6 km/h (3 Bft) NO 42 1 min 0,000 mm 1,7 UV-I 423 W/m 3,3 C 2,8 C 19,3 km/h (3 Bft) 96,30 %
05.03.2016 12:10 6,9 C 76 % 995,6 hPa 0,0 l/m 17,0 km/h (3 Bft) NO 46 1 min 0,000 mm 2,1 UV-I 392 W/m 3,0 C 0,5 C 19,3 km/h (3 Bft) 100,00 %
05.03.2016 12:11 6,9 C 76 % 995,6 hPa 0,0 l/m 13,9 km/h (3 Bft) O-NO 65 1 min 0,000 mm 1,9 UV-I 392 W/m 3,0 C 1,9 C 19,3 km/h (3 Bft) 100,00 %
05.03.2016 12:12 6,9 C 76 % 995,6 hPa 0,0 l/m 11,4 km/h (2 Bft) O-NO 59 1 min 0,000 mm 2,1 UV-I 494 W/m 3,0 C 3,3 C 16,1 km/h (3 Bft) 97,37 %
05.03.2016 12:13 6,9 C 79 % 995,5 hPa 0,0 l/m 12,5 km/h (3 Bft) O-NO 60 1 min 0,000 mm 2,1 UV-I 518 W/m 3,5 C 2,7 C 17,7 km/h (3 Bft) 100,00 %
05.03.2016 12:14 7,0 C 78 % 995,5 hPa 0,0 l/m 16,0 km/h (3 Bft) NO 51 1 min 0,000 mm 2,2 UV-I 562 W/m 3,4 C 1,0 C 19,3 km/h (3 Bft) 100,00 %
05.03.2016 12:15 7,1 C 78 % 995,5 hPa 0,0 l/m 14,4 km/h (3 Bft) NO 51 1 min 0,000 mm 2,3 UV-I 637 W/m 3,5 C 1,9 C 17,7 km/h (3 Bft) 100,00 %
05.03.2016 12:16 7,2 C 76 % 995,4 hPa 0,0 l/m 18,9 km/h (3 Bft) NO 56 1 min 0,000 mm 2,4 UV-I 651 W/m 3,3 C 0,1 C 22,5 km/h (4 Bft) 100,00 %
05.03.2016 12:17 7,2 C 76 % 995,4 hPa 0,0 l/m 16,5 km/h (3 Bft) NO 54 1 min 0,000 mm 2,4 UV-I 640 W/m 3,3 C 1,1 C 22,5 km/h (4 Bft) 100,00 %
05.03.2016 12:18 7,3 C 77 % 995,4 hPa 0,0 l/m 16,3 km/h (3 Bft) NO 51 1 min 0,000 mm 2,3 UV-I 635 W/m 3,5 C 1,3 C 19,3 km/h (3 Bft) 100,00 %
05.03.2016 12:19 7,3 C 77 % 995,3 hPa 0,0 l/m 15,9 km/h (3 Bft) NO 36 1 min 0,000 mm 2,4 UV-I 626 W/m 3,5 C 1,5 C 19,3 km/h (3 Bft) 100,00 %
05.03.2016 12:20 7,4 C 78 % 995,4 hPa 0,0 l/m 14,6 km/h (3 Bft) O-NO 59 1 min 0,000 mm 2,5 UV-I 657 W/m 3,8 C 2,2 C 22,5 km/h (4 Bft) 100,00 %
05.03.2016 12:21 7,4 C 77 % 995,3 hPa 0,0 l/m 18,5 km/h (3 Bft) O 85 1 min 0,000 mm 2,5 UV-I 665 W/m 3,6 C 0,5 C 22,5 km/h (4 Bft) 100,00 %
05.03.2016 12:22 7,4 C 77 % 995,3 hPa 0,0 l/m 16,3 km/h (3 Bft) NO 34 1 min 0,000 mm 2,5 UV-I 680 W/m 3,6 C 1,4 C 20,9 km/h (4 Bft) 100,00 %
05.03.2016 12:23 7,5 C 78 % 995,3 hPa 0,0 l/m 13,3 km/h (3 Bft) N-NO 25 1 min 0,000 mm 2,5 UV-I 676 W/m 3,9 C 2,9 C 17,7 km/h (3 Bft) 100,00 %
05.03.2016 12:24 7,6 C 78 % 995,3 hPa 0,0 l/m 10,3 km/h (2 Bft) NO 52 1 min 0,000 mm 2,5 UV-I 661 W/m 4,0 C 4,8 C 17,7 km/h (3 Bft) 97,56 %
05.03.2016 12:25 7,7 C 77 % 995,4 hPa 0,0 l/m 15,7 km/h (3 Bft) O 90 1 min 0,000 mm 2,4 UV-I 649 W/m 3,9 C 2,0 C 20,9 km/h (4 Bft) 100,00 %
05.03.2016 12:26 7,7 C 76 % 995,4 hPa 0,0 l/m 8,7 km/h (2 Bft) NO 36 1 min 0,000 mm 2,5 UV-I 634 W/m 3,7 C 5,9 C 12,9 km/h (3 Bft) 92,86 %
05.03.2016 12:27 7,8 C 76 % 995,4 hPa 0,0 l/m 9,0 km/h (2 Bft) O-NO 58 1 min 0,000 mm 2,4 UV-I 604 W/m 3,8 C 5,8 C 12,9 km/h (3 Bft) 100,00 %
05.03.2016 12:28 7,8 C 76 % 995,4 hPa 0,0 l/m 9,8 km/h (2 Bft) O-NO 57 1 min 0,000 mm 2,3 UV-I 604 W/m 3,8 C 5,3 C 12,9 km/h (3 Bft) 100,00 %
05.03.2016 12:29 7,8 C 76 % 995,4 hPa 0,0 l/m 11,3 km/h (2 Bft) O-NO 63 1 min 0,000 mm 2,3 UV-I 595 W/m 3,8 C 4,4 C 17,7 km/h (3 Bft) 96,30 %
05.03.2016 12:30 7,9 C 76 % 995,3 hPa 0,0 l/m 13,6 km/h (3 Bft) O-NO 59 1 min 0,000 mm 2,2 UV-I 530 W/m 3,9 C 3,3 C 17,7 km/h (3 Bft) 100,00 %
05.03.2016 12:31 7,8 C 76 % 995,3 hPa 0,0 l/m 13,5 km/h (3 Bft) NO 51 1 min 0,000 mm 2,2 UV-I 563 W/m 3,8 C 3,2 C 17,7 km/h (3 Bft) 100,00 %
05.03.2016 12:32 7,8 C 75 % 995,4 hPa 0,0 l/m 14,4 km/h (3 Bft) O-NO 57 1 min 0,000 mm 2,2 UV-I 534 W/m 3,7 C 2,7 C 19,3 km/h (3 Bft) 100,00 %
05.03.2016 12:33 7,8 C 76 % 995,4 hPa 0,0 l/m 13,5 km/h (3 Bft) NO 52 1 min 0,000 mm 2,2 UV-I 528 W/m 3,8 C 3,2 C 17,7 km/h (3 Bft) 96,15 %
05.03.2016 12:34 7,7 C 76 % 995,3 hPa 0,0 l/m 14,7 km/h (3 Bft) O-NO 65 1 min 0,000 mm 2,2 UV-I 549 W/m 3,7 C 2,5 C 19,3 km/h (3 Bft) 100,00 %
05.03.2016 12:35 7,7 C 76 % 995,3 hPa 0,0 l/m 10,2 km/h (2 Bft) O-NO 77 1 min 0,000 mm 2,1 UV-I 523 W/m 3,7 C 4,9 C 14,5 km/h (3 Bft) 100,00 %
05.03.2016 12:36 7,7 C 77 % 995,4 hPa 0,0 l/m 7,1 km/h (2 Bft) O 85 1 min 0,000 mm 2,1 UV-I 497 W/m 3,9 C 7,1 C 9,7 km/h (2 Bft) 100,00 %
05.03.2016 12:37 7,7 C 78 % 995,3 hPa 0,0 l/m 6,8 km/h (2 Bft) NO 49 1 min 0,000 mm 1,9 UV-I 455 W/m 4,1 C 7,4 C 9,7 km/h (2 Bft) 100,00 %
05.03.2016 12:38 7,7 C 79 % 995,3 hPa 0,0 l/m 15,7 km/h (3 Bft) N-NO 29 1 min 0,000 mm 1,8 UV-I 455 W/m 4,3 C 2,0 C 19,3 km/h (3 Bft) 100,00 %
05.03.2016 12:39 7,8 C 78 % 995,3 hPa 0,0 l/m 10,8 km/h (2 Bft) O-NO 57 1 min 0,000 mm 1,8 UV-I 381 W/m 4,2 C 4,7 C 16,1 km/h (3 Bft) 100,00 %
05.03.2016 12:40 7,8 C 77 % 995,3 hPa 0,0 l/m 12,2 km/h (2 Bft) NO 55 1 min 0,000 mm 2,0 UV-I 362 W/m 4,0 C 3,9 C 17,7 km/h (3 Bft) 100,00 %
05.03.2016 12:41 7,8 C 77 % 995,3 hPa 0,0 l/m 11,2 km/h (2 Bft) NO 38 1 min 0,000 mm 2,1 UV-I 577 W/m 4,0 C 4,4 C 16,1 km/h (3 Bft) 100,00 %
05.03.2016 12:42 7,8 C 77 % 995,2 hPa 0,0 l/m 12,5 km/h (3 Bft) O-NO 59 1 min 0,000 mm 2,1 UV-I 537 W/m 4,0 C 3,7 C 16,1 km/h (3 Bft) 100,00 %
05.03.2016 12:43 7,9 C 78 % 995,2 hPa 0,0 l/m 15,2 km/h (3 Bft) NO 34 1 min 0,000 mm 2,0 UV-I 512 W/m 4,3 C 2,5 C 20,9 km/h (4 Bft) 100,00 %
05.03.2016 12:44 8,1 C 77 % 995,2 hPa 0,0 l/m 13,2 km/h (3 Bft) N-NO 33 1 min 0,000 mm 2,0 UV-I 502 W/m 4,3 C 3,7 C 17,7 km/h (3 Bft) 100,00 %
05.03.2016 12:45 8,1 C 77 % 995,1 hPa 0,0 l/m 11,8 km/h (2 Bft) O-NO 60 1 min 0,000 mm 2,1 UV-I 540 W/m 4,3 C 4,4 C 16,1 km/h (3 Bft) 95,65 %
05.03.2016 12:46 8,2 C 77 % 995,1 hPa 0,0 l/m 12,2 km/h (2 Bft) NO 40 1 min 0,000 mm 2,0 UV-I 527 W/m 4,4 C 4,3 C 17,7 km/h (3 Bft) 96,30 %
05.03.2016 12:47 8,2 C 77 % 995,1 hPa 0,0 l/m 5,7 km/h (1 Bft) O-NO 78 1 min 0,000 mm 2,0 UV-I 431 W/m 4,4 C 8,2 C 8,0 km/h (2 Bft) 100,00 %
05.03.2016 12:48 8,3 C 78 % 995,1 hPa 0,0 l/m 5,2 km/h (1 Bft) O 98 1 min 0,000 mm 2,1 UV-I 461 W/m 4,7 C 8,3 C 11,3 km/h (2 Bft) 100,00 %
05.03.2016 12:49 8,3 C 77 % 995,1 hPa 0,0 l/m 3,6 km/h (1 Bft) O-NO 71 1 min 0,000 mm 2,1 UV-I 549 W/m 4,5 C 8,3 C 6,4 km/h (2 Bft) 95,65 %
05.03.2016 12:50 8,4 C 78 % 995,1 hPa 0,0 l/m 8,4 km/h (2 Bft) O-NO 59 1 min 0,000 mm 2,1 UV-I 569 W/m 4,8 C 6,9 C 11,3 km/h (2 Bft) 100,00 %
05.03.2016 12:51 8,4 C 77 % 995,2 hPa 0,0 l/m 7,6 km/h (2 Bft) N-NO 15 1 min 0,000 mm 2,2 UV-I 590 W/m 4,6 C 7,5 C 9,7 km/h (2 Bft) 100,00 %
05.03.2016 12:52 8,5 C 77 % 995,2 hPa 0,0 l/m 7,7 km/h (2 Bft) O-NO 72 1 min 0,000 mm 2,2 UV-I 586 W/m 4,7 C 7,5 C 12,9 km/h (3 Bft) 96,15 %
05.03.2016 12:53 8,6 C 77 % 995,2 hPa 0,0 l/m 6,7 km/h (2 Bft) O 85 1 min 0,000 mm 2,1 UV-I 577 W/m 4,8 C 8,4 C 9,7 km/h (2 Bft) 100,00 %
05.03.2016 12:54 8,5 C 75 % 995,2 hPa 0,0 l/m 4,2 km/h (1 Bft) NO 45 1 min 0,000 mm 2,0 UV-I 521 W/m 4,3 C 8,5 C 8,0 km/h (2 Bft) 100,00 %
05.03.2016 12:55 8,5 C 78 % 995,3 hPa 0,0 l/m 7,2 km/h (2 Bft) NO 38 1 min 0,000 mm 2,0 UV-I 528 W/m 4,9 C 7,9 C 9,7 km/h (2 Bft) 100,00 %
05.03.2016 12:56 8,6 C 78 % 995,2 hPa 0,0 l/m 7,8 km/h (2 Bft) NO 34 1 min 0,000 mm 2,1 UV-I 529 W/m 5,0 C 7,5 C 11,3 km/h (2 Bft) 100,00 %
05.03.2016 12:57 8,6 C 76 % 995,2 hPa 0,0 l/m 7,7 km/h (2 Bft) O-NO 63 1 min 0,000 mm 2,0 UV-I 510 W/m 4,6 C 7,6 C 11,3 km/h (2 Bft) 98,62 %
05.03.2016 12:58 8,6 C 76 % 995,1 hPa 0,0 l/m 5,5 km/h (1 Bft) O-NO 65 1 min 0,000 mm 2,0 UV-I 504 W/m 4,6 C 8,6 C 6,4 km/h (2 Bft) 97,56 %
05.03.2016 12:59 8,7 C 75 % 995,2 hPa 0,0 l/m 7,1 km/h (2 Bft) NO 38 1 min 0,000 mm 1,9 UV-I 453 W/m 4,5 C 8,2 C 9,7 km/h (2 Bft) 100,00 %
05.03.2016 13:00 8,7 C 76 % 995,2 hPa 0,0 l/m 9,8 km/h (2 Bft) NO 46 1 min 0,000 mm 1,8 UV-I 444 W/m 4,7 C 6,3 C 14,5 km/h (3 Bft) 100,00 %
05.03.2016 13:01 8,7 C 76 % 995,1 hPa 0,0 l/m 6,0 km/h (2 Bft) NO 40 1 min 0,254 mm 1,9 UV-I 452 W/m 4,7 C 8,7 C 8,0 km/h (2 Bft) 100,00 %
05.03.2016 13:02 8,6 C 77 % 995,1 hPa 0,0 l/m 5,8 km/h (2 Bft) N 9 1 min 0,000 mm 1,8 UV-I 468 W/m 4,8 C 8,6 C 11,3 km/h (2 Bft) 100,00 %
05.03.2016 13:03 8,5 C 76 % 995,1 hPa 0,0 l/m 3,8 km/h (1 Bft) NO 51 1 min 0,000 mm 1,8 UV-I 438 W/m 4,5 C 8,5 C 4,8 km/h (1 Bft) 100,00 %
05.03.2016 13:04 8,5 C 78 % 995,1 hPa 0,0 l/m 9,1 km/h (2 Bft) N-NO 32 1 min 0,000 mm 1,7 UV-I 420 W/m 4,9 C 6,5 C 12,9 km/h (3 Bft) 100,00 %
05.03.2016 13:05 8,6 C 76 % 995,1 hPa 0,0 l/m 8,6 km/h (2 Bft) NO 44 1 min 0,000 mm 1,7 UV-I 400 W/m 4,6 C 7,0 C 14,5 km/h (3 Bft) 100,00 %
05.03.2016 13:06 8,6 C 77 % 995,2 hPa 0,0 l/m 6,8 km/h (2 Bft) N-NO 24 1 min 0,000 mm 1,7 UV-I 348 W/m 4,8 C 8,3 C 8,0 km/h (2 Bft) 100,00 %
05.03.2016 13:07 8,5 C 77 % 995,1 hPa 0,0 l/m 5,6 km/h (1 Bft) NO 53 0 min 0,000 mm 1,5 UV-I 286 W/m 4,7 C 8,5 C 14,5 km/h (3 Bft) 100,00 %
05.03.2016 13:08 8,4 C 77 % 995,1 hPa 0,0 l/m 12,2 km/h (2 Bft) N-NO 14 0 min 0,000 mm 1,5 UV-I 292 W/m 4,6 C 4,6 C 16,1 km/h (3 Bft) 95,65 %
05.03.2016 13:09 8,4 C 77 % 995,1 hPa 0,0 l/m 6,1 km/h (2 Bft) N-NO 22 1 min 0,000 mm 1,7 UV-I 391 W/m 4,6 C 8,4 C 8,0 km/h (2 Bft) 100,00 %
05.03.2016 13:10 8,4 C 77 % 995,1 hPa 0,0 l/m 4,3 km/h (1 Bft) NO 37 1 min 0,000 mm 1,6 UV-I 328 W/m 4,6 C 8,4 C 9,7 km/h (2 Bft) 100,00 %
05.03.2016 13:11 8,4 C 78 % 995,0 hPa 0,0 l/m 6,0 km/h (2 Bft) N-NO 15 1 min 0,000 mm 1,7 UV-I 387 W/m 4,8 C 8,4 C 9,7 km/h (2 Bft) 96,55 %
05.03.2016 13:12 8,4 C 77 % 994,9 hPa 0,0 l/m 8,8 km/h (2 Bft) NO 39 1 min 0,000 mm 1,8 UV-I 451 W/m 4,6 C 6,6 C 14,5 km/h (3 Bft) 100,00 %
05.03.2016 13:13 8,5 C 76 % 994,9 hPa 0,0 l/m 8,4 km/h (2 Bft) NO 39 1 min 0,000 mm 1,9 UV-I 519 W/m 4,5 C 7,0 C 11,3 km/h (2 Bft) 95,83 %
05.03.2016 13:14 8,6 C 77 % 994,9 hPa 0,0 l/m 9,7 km/h (2 Bft) O-NO 63 1 min 0,000 mm 2,0 UV-I 579 W/m 4,8 C 6,2 C 12,9 km/h (3 Bft) 95,83 %
05.03.2016 13:15 8,7 C 77 % 994,9 hPa 0,0 l/m 7,0 km/h (2 Bft) N 5 1 min 0,000 mm 2,1 UV-I 620 W/m 4,9 C 8,2 C 9,7 km/h (2 Bft) 100,00 %
05.03.2016 13:16 8,8 C 80 % 994,9 hPa 0,0 l/m 9,4 km/h (2 Bft) N 11 1 min 0,000 mm 2,0 UV-I 565 W/m 5,5 C 6,6 C 14,5 km/h (3 Bft) 95,83 %
05.03.2016 13:17 8,9 C 78 % 994,9 hPa 0,0 l/m 8,9 km/h (2 Bft) NO 49 1 min 0,000 mm 2,0 UV-I 546 W/m 5,3 C 7,1 C 14,5 km/h (3 Bft) 100,00 %
05.03.2016 13:18 9,0 C 75 % 994,9 hPa 0,0 l/m 5,2 km/h (1 Bft) N-NO 15 1 min 0,000 mm 2,0 UV-I 530 W/m 4,8 C 9,0 C 8,0 km/h (2 Bft) 95,83 %
05.03.2016 13:19 8,9 C 75 % 994,9 hPa 0,0 l/m 5,8 km/h (2 Bft) NO 42 1 min 0,000 mm 2,0 UV-I 525 W/m 4,7 C 8,9 C 11,3 km/h (2 Bft) 100,00 %
05.03.2016 13:20 9,0 C 77 % 994,9 hPa 0,0 l/m 6,9 km/h (2 Bft) N-NO 32 1 min 0,000 mm 2,0 UV-I 543 W/m 5,2 C 8,6 C 11,3 km/h (2 Bft) 96,67 %
05.03.2016 13:21 9,1 C 76 % 994,9 hPa 0,0 l/m 9,1 km/h (2 Bft) NO 46 1 min 0,000 mm 2,0 UV-I 573 W/m 5,1 C 7,2 C 12,9 km/h (3 Bft) 90,91 %
05.03.2016 13:22 9,1 C 74 % 994,9 hPa 0,0 l/m 6,1 km/h (2 Bft) O-NO 73 1 min 0,000 mm 1,9 UV-I 496 W/m 4,7 C 9,1 C 11,3 km/h (2 Bft) 96,30 %
05.03.2016 13:23 9,0 C 74 % 994,9 hPa 0,0 l/m 11,1 km/h (2 Bft) O 80 1 min 0,000 mm 1,8 UV-I 423 W/m 4,6 C 5,9 C 14,5 km/h (3 Bft) 100,00 %
05.03.2016 13:24 8,9 C 73 % 994,9 hPa 0,0 l/m 11,5 km/h (2 Bft) O 92 1 min 0,000 mm 1,7 UV-I 432 W/m 4,3 C 5,5 C 16,1 km/h (3 Bft) 96,67 %
05.03.2016 13:25 8,9 C 74 % 994,9 hPa 0,0 l/m 12,0 km/h (2 Bft) O-NO 69 1 min 0,000 mm 1,8 UV-I 472 W/m 4,5 C 5,2 C 17,7 km/h (3 Bft) 95,65 %
05.03.2016 13:26 8,8 C 74 % 994,9 hPa 0,0 l/m 12,9 km/h (3 Bft) O-NO 72 1 min 0,000 mm 1,9 UV-I 470 W/m 4,4 C 4,7 C 16,1 km/h (3 Bft) 100,00 %
05.03.2016 13:27 8,8 C 73 % 994,9 hPa 0,0 l/m 10,0 km/h (2 Bft) O-NO 72 1 min 0,000 mm 1,8 UV-I 456 W/m 4,2 C 6,3 C 12,9 km/h (3 Bft) 91,67 %
05.03.2016 13:28 8,8 C 74 % 994,8 hPa 0,0 l/m 6,5 km/h (2 Bft) NO 53 1 min 0,000 mm 1,7 UV-I 439 W/m 4,4 C 8,7 C 14,5 km/h (3 Bft) 100,00 %
05.03.2016 13:29 8,8 C 76 % 994,8 hPa 0,0 l/m 10,6 km/h (2 Bft) NO 46 1 min 0,000 mm 1,6 UV-I 375 W/m 4,8 C 5,9 C 14,5 km/h (3 Bft) 93,33 %
05.03.2016 13:30 8,8 C 75 % 994,8 hPa 0,0 l/m 9,1 km/h (2 Bft) O-NO 59 1 min 0,000 mm 1,6 UV-I 399 W/m 4,6 C 6,8 C 14,5 km/h (3 Bft) 100,00 %
05.03.2016 13:31 8,9 C 74 % 994,7 hPa 0,0 l/m 7,5 km/h (2 Bft) O 92 1 min 0,000 mm 1,6 UV-I 352 W/m 4,5 C 8,1 C 9,7 km/h (2 Bft) 96,30 %
05.03.2016 13:32 8,8 C 74 % 994,7 hPa 0,0 l/m 9,4 km/h (2 Bft) NO 52 1 min 0,000 mm 1,4 UV-I 313 W/m 4,4 C 6,6 C 16,1 km/h (3 Bft) 96,15 %
05.03.2016 13:33 8,8 C 76 % 994,8 hPa 0,0 l/m 9,2 km/h (2 Bft) NO 53 0 min 0,000 mm 1,4 UV-I 293 W/m 4,8 C 6,8 C 14,5 km/h (3 Bft) 100,00 %
05.03.2016 13:34 8,8 C 75 % 994,8 hPa 0,0 l/m 11,7 km/h (2 Bft) O-NO 59 0 min 0,000 mm 1,3 UV-I 282 W/m 4,6 C 5,3 C 16,1 km/h (3 Bft) 92,31 %
05.03.2016 13:35 8,8 C 73 % 994,8 hPa 0,0 l/m 11,3 km/h (2 Bft) O-NO 77 0 min 0,000 mm 1,3 UV-I 250 W/m 4,2 C 5,5 C 14,5 km/h (3 Bft) 100,00 %
05.03.2016 13:36 8,7 C 73 % 994,8 hPa 0,0 l/m 12,7 km/h (3 Bft) O 80 0 min 0,000 mm 1,3 UV-I 256 W/m 4,1 C 4,7 C 16,1 km/h (3 Bft) 96,15 %
05.03.2016 13:37 8,7 C 74 % 994,8 hPa 0,0 l/m 12,2 km/h (2 Bft) O-NO 74 0 min 0,000 mm 1,3 UV-I 262 W/m 4,3 C 4,9 C 16,1 km/h (3 Bft) 93,33 %
05.03.2016 13:38 8,7 C 74 % 994,8 hPa 0,0 l/m 12,6 km/h (3 Bft) O-NO 65 0 min 0,000 mm 1,3 UV-I 289 W/m 4,3 C 4,7 C 16,1 km/h (3 Bft) 95,65 %
05.03.2016 13:39 8,6 C 74 % 994,8 hPa 0,0 l/m 9,5 km/h (2 Bft) NO 55 0 min 0,000 mm 1,3 UV-I 290 W/m 4,2 C 6,4 C 14,5 km/h (3 Bft) 100,00 %
05.03.2016 13:40 8,6 C 74 % 994,8 hPa 0,0 l/m 9,3 km/h (2 Bft) O-NO 69 0 min 0,000 mm 1,3 UV-I 274 W/m 4,2 C 6,5 C 12,9 km/h (3 Bft) 96,15 %
05.03.2016 13:41 8,6 C 75 % 994,8 hPa 0,0 l/m 9,7 km/h (2 Bft) NO 41 0 min 0,000 mm 1,3 UV-I 286 W/m 4,4 C 6,2 C 12,9 km/h (3 Bft) 100,00 %
05.03.2016 13:42 8,6 C 74 % 994,7 hPa 0,0 l/m 9,0 km/h (2 Bft) NO 42 0 min 0,000 mm 1,3 UV-I 285 W/m 4,2 C 6,7 C 11,3 km/h (2 Bft) 100,00 %
05.03.2016 13:43 8,6 C 75 % 994,6 hPa 0,0 l/m 9,7 km/h (2 Bft) O-NO 62 0 min 0,000 mm 1,3 UV-I 279 W/m 4,4 C 6,2 C 14,5 km/h (3 Bft) 100,00 %
05.03.2016 13:44 8,6 C 74 % 994,6 hPa 0,0 l/m 15,1 km/h (3 Bft) O-NO 76 0 min 0,000 mm 1,3 UV-I 264 W/m 4,2 C 3,4 C 17,7 km/h (3 Bft) 100,00 %
05.03.2016 13:45 8,6 C 73 % 994,6 hPa 0,0 l/m 13,7 km/h (3 Bft) NO 51 0 min 0,000 mm 1,3 UV-I 274 W/m 4,0 C 4,0 C 17,7 km/h (3 Bft) 100,00 %
05.03.2016 13:46 8,6 C 73 % 994,5 hPa 0,0 l/m 11,0 km/h (2 Bft) O-NO 63 0 min 0,000 mm 1,3 UV-I 280 W/m 4,0 C 5,5 C 16,1 km/h (3 Bft) 100,00 %
05.03.2016 13:47 8,5 C 73 % 994,5 hPa 0,0 l/m 14,0 km/h (3 Bft) O-NO 57 0 min 0,000 mm 1,3 UV-I 289 W/m 3,9 C 3,8 C 16,1 km/h (3 Bft) 96,15 %
05.03.2016 13:48 8,6 C 74 % 994,5 hPa 0,0 l/m 9,9 km/h (2 Bft) O-NO 60 0 min 0,000 mm 1,3 UV-I 290 W/m 4,2 C 6,1 C 14,5 km/h (3 Bft) 100,00 %
05.03.2016 13:49 8,5 C 73 % 994,5 hPa 0,0 l/m 10,3 km/h (2 Bft) NO 53 0 min 0,000 mm 1,3 UV-I 288 W/m 3,9 C 5,8 C 14,5 km/h (3 Bft) 95,65 %
05.03.2016 13:50 8,5 C 74 % 994,5 hPa 0,0 l/m 13,0 km/h (3 Bft) O 91 1 min 0,000 mm 1,3 UV-I 304 W/m 4,1 C 4,3 C 17,7 km/h (3 Bft) 100,00 %
05.03.2016 13:51 8,5 C 74 % 994,5 hPa 0,0 l/m 9,2 km/h (2 Bft) NO 53 1 min 0,000 mm 1,3 UV-I 315 W/m 4,1 C 6,4 C 11,3 km/h (2 Bft) 100,00 %
05.03.2016 13:52 8,5 C 73 % 994,5 hPa 0,0 l/m 8,0 km/h (2 Bft) NO 52 1 min 0,000 mm 1,3 UV-I 338 W/m 3,9 C 7,3 C 9,7 km/h (2 Bft) 96,30 %
05.03.2016 13:53 8,6 C 75 % 994,6 hPa 0,0 l/m 7,6 km/h (2 Bft) NO 51 1 min 0,000 mm 1,3 UV-I 330 W/m 4,4 C 7,7 C 12,9 km/h (3 Bft) 100,00 %
05.03.2016 13:54 8,6 C 74 % 994,5 hPa 0,0 l/m 8,5 km/h (2 Bft) O-NO 59 1 min 0,000 mm 1,3 UV-I 325 W/m 4,2 C 7,0 C 14,5 km/h (3 Bft) 100,00 %
05.03.2016 13:55 8,6 C 73 % 994,6 hPa 0,0 l/m 9,0 km/h (2 Bft) O 87 1 min 0,000 mm 1,3 UV-I 328 W/m 4,0 C 6,7 C 14,5 km/h (3 Bft) 100,00 %
05.03.2016 13:56 8,6 C 72 % 994,6 hPa 0,0 l/m 8,8 km/h (2 Bft) NO 46 1 min 0,000 mm 1,4 UV-I 353 W/m 3,8 C 6,8 C 11,3 km/h (2 Bft) 100,00 %
05.03.2016 13:57 8,6 C 73 % 994,6 hPa 0,0 l/m 12,2 km/h (2 Bft) NO 55 1 min 0,000 mm 1,3 UV-I 362 W/m 4,0 C 4,8 C 16,1 km/h (3 Bft) 96,55 %
05.03.2016 13:58 8,5 C 72 % 994,6 hPa 0,0 l/m 10,6 km/h (2 Bft) O-NO 67 1 min 0,000 mm 1,4 UV-I 397 W/m 3,7 C 5,6 C 14,5 km/h (3 Bft) 100,00 %
05.03.2016 13:59 8,6 C 73 % 994,7 hPa 0,0 l/m 12,1 km/h (2 Bft) O-NO 66 1 min 0,000 mm 1,5 UV-I 421 W/m 4,0 C 4,8 C 14,5 km/h (3 Bft) 100,00 %
05.03.2016 14:00 8,6 C 73 % 994,7 hPa 0,0 l/m 10,8 km/h (2 Bft) O-NO 63 1 min 0,000 mm 1,4 UV-I 384 W/m 4,0 C 5,6 C 12,9 km/h (3 Bft) 100,00 %
05.03.2016 14:01 8,6 C 73 % 994,6 hPa 0,0 l/m 12,6 km/h (3 Bft) NO 56 1 min 0,203 mm 1,3 UV-I 325 W/m 4,0 C 4,6 C 16,1 km/h (3 Bft) 100,00 %
05.03.2016 14:02 8,6 C 72 % 994,6 hPa 0,0 l/m 13,6 km/h (3 Bft) O-NO 65 1 min 0,000 mm 1,3 UV-I 330 W/m 3,8 C 4,1 C 16,1 km/h (3 Bft) 100,00 %
05.03.2016 14:03 8,5 C 73 % 994,6 hPa 0,0 l/m 11,9 km/h (2 Bft) O-NO 57 1 min 0,000 mm 1,3 UV-I 368 W/m 3,9 C 4,8 C 14,5 km/h (3 Bft) 100,00 %
05.03.2016 14:04 8,5 C 72 % 994,6 hPa 0,0 l/m 13,2 km/h (3 Bft) O-NO 69 1 min 0,000 mm 1,3 UV-I 329 W/m 3,7 C 4,2 C 17,7 km/h (3 Bft) 100,00 %
05.03.2016 14:05 8,4 C 72 % 994,5 hPa 0,0 l/m 12,7 km/h (3 Bft) O-NO 65 0 min 0,000 mm 1,2 UV-I 283 W/m 3,7 C 4,3 C 17,7 km/h (3 Bft) 100,00 %
05.03.2016 14:06 8,4 C 73 % 994,5 hPa 0,0 l/m 12,5 km/h (3 Bft) O 82 0 min 0,000 mm 1,2 UV-I 258 W/m 3,8 C 4,4 C 16,1 km/h (3 Bft) 100,00 %
05.03.2016 14:07 8,4 C 73 % 994,5 hPa 0,0 l/m 15,1 km/h (3 Bft) NO 34 0 min 0,000 mm 1,1 UV-I 245 W/m 3,8 C 3,2 C 19,3 km/h (3 Bft) 100,00 %
05.03.2016 14:08 8,4 C 73 % 994,5 hPa 0,0 l/m 15,3 km/h (3 Bft) N-NO 18 0 min 0,000 mm 1,1 UV-I 242 W/m 3,8 C 3,1 C 17,7 km/h (3 Bft) 96,15 %
05.03.2016 14:09 8,4 C 74 % 994,5 hPa 0,0 l/m 13,1 km/h (3 Bft) NO 45 0 min 0,000 mm 1,1 UV-I 239 W/m 4,0 C 4,1 C 16,1 km/h (3 Bft) 100,00 %
05.03.2016 14:10 8,4 C 74 % 994,5 hPa 0,0 l/m 13,3 km/h (3 Bft) O-NO 60 0 min 0,000 mm 1,1 UV-I 240 W/m 4,0 C 4,0 C 16,1 km/h (3 Bft) 100,00 %
05.03.2016 14:11 8,4 C 73 % 994,5 hPa 0,0 l/m 14,1 km/h (3 Bft) O-NO 58 0 min 0,000 mm 1,1 UV-I 241 W/m 3,8 C 3,6 C 16,1 km/h (3 Bft) 100,00 %
05.03.2016 14:12 8,4 C 73 % 994,5 hPa 0,0 l/m 14,3 km/h (3 Bft) O-NO 74 0 min 0,000 mm 1,0 UV-I 238 W/m 3,8 C 3,5 C 17,7 km/h (3 Bft) 100,00 %
05.03.2016 14:13 8,3 C 73 % 994,5 hPa 0,0 l/m 13,0 km/h (3 Bft) O-NO 57 0 min 0,000 mm 1,0 UV-I 234 W/m 3,8 C 4,0 C 16,1 km/h (3 Bft) 100,00 %
05.03.2016 14:14 8,3 C 73 % 994,5 hPa 0,0 l/m 9,4 km/h (2 Bft) O-NO 65 0 min 0,000 mm 1,0 UV-I 236 W/m 3,8 C 6,1 C 12,9 km/h (3 Bft) 100,00 %
05.03.2016 14:15 8,3 C 73 % 994,5 hPa 0,0 l/m 9,2 km/h (2 Bft) O-NO 65 0 min 0,000 mm 1,0 UV-I 238 W/m 3,8 C 6,2 C 12,9 km/h (3 Bft) 100,00 %
05.03.2016 14:16 8,3 C 74 % 994,5 hPa 0,0 l/m 12,9 km/h (3 Bft) O-NO 62 0 min 0,000 mm 1,0 UV-I 233 W/m 3,9 C 4,1 C 16,1 km/h (3 Bft) 100,00 %
05.03.2016 14:17 8,3 C 75 % 994,4 hPa 0,0 l/m 8,9 km/h (2 Bft) O-NO 62 0 min 0,000 mm 0,9 UV-I 231 W/m 4,1 C 6,4 C 12,9 km/h (3 Bft) 100,00 %
05.03.2016 14:18 8,3 C 74 % 994,4 hPa 0,0 l/m 12,5 km/h (3 Bft) O-NO 57 0 min 0,000 mm 0,9 UV-I 229 W/m 3,9 C 4,3 C 16,1 km/h (3 Bft) 100,00 %
05.03.2016 14:19 8,3 C 74 % 994,4 hPa 0,0 l/m 13,3 km/h (3 Bft) NO 51 0 min 0,000 mm 0,9 UV-I 229 W/m 3,9 C 3,9 C 17,7 km/h (3 Bft) 100,00 %
05.03.2016 14:20 8,3 C 74 % 994,3 hPa 0,0 l/m 13,7 km/h (3 Bft) O-NO 58 0 min 0,000 mm 0,9 UV-I 229 W/m 3,9 C 3,7 C 17,7 km/h (3 Bft) 100,00 %
05.03.2016 14:21 8,3 C 74 % 994,3 hPa 0,0 l/m 10,7 km/h (2 Bft) NO 55 0 min 0,000 mm 0,9 UV-I 230 W/m 3,9 C 5,3 C 14,5 km/h (3 Bft) 100,00 %
05.03.2016 14:22 8,3 C 75 % 994,3 hPa 0,0 l/m 10,6 km/h (2 Bft) O-NO 63 0 min 0,000 mm 0,9 UV-I 231 W/m 4,1 C 5,4 C 14,5 km/h (3 Bft) 100,00 %
05.03.2016 14:23 8,4 C 75 % 994,3 hPa 0,0 l/m 11,4 km/h (2 Bft) O-NO 67 0 min 0,000 mm 0,9 UV-I 238 W/m 4,2 C 5,0 C 16,1 km/h (3 Bft) 100,00 %
05.03.2016 14:24 8,4 C 73 % 994,3 hPa 0,0 l/m 12,4 km/h (3 Bft) O-NO 59 0 min 0,000 mm 0,9 UV-I 244 W/m 3,8 C 4,5 C 16,1 km/h (3 Bft) 100,00 %
05.03.2016 14:25 8,4 C 74 % 994,3 hPa 0,0 l/m 12,5 km/h (3 Bft) NO 55 0 min 0,000 mm 0,9 UV-I 245 W/m 4,0 C 4,4 C 16,1 km/h (3 Bft) 100,00 %
05.03.2016 14:26 8,4 C 74 % 994,3 hPa 0,0 l/m 11,7 km/h (2 Bft) NO 46 0 min 0,000 mm 0,9 UV-I 246 W/m 4,0 C 4,8 C 17,7 km/h (3 Bft) 100,00 %
05.03.2016 14:27 8,4 C 74 % 994,2 hPa 0,0 l/m 10,9 km/h (2 Bft) NO 49 0 min 0,000 mm 0,9 UV-I 249 W/m 4,0 C 5,3 C 14,5 km/h (3 Bft) 100,00 %
05.03.2016 14:28 8,4 C 74 % 994,2 hPa 0,0 l/m 12,7 km/h (3 Bft) O-NO 68 0 min 0,000 mm 0,9 UV-I 249 W/m 4,0 C 4,3 C 17,7 km/h (3 Bft) 100,00 %
05.03.2016 14:29 8,4 C 74 % 994,2 hPa 0,0 l/m 13,2 km/h (3 Bft) O-NO 62 1 min 0,000 mm 0,9 UV-I 270 W/m 4,0 C 4,0 C 17,7 km/h (3 Bft) 100,00 %
05.03.2016 14:30 8,4 C 74 % 994,2 hPa 0,0 l/m 15,0 km/h (3 Bft) O-NO 67 1 min 0,000 mm 0,9 UV-I 271 W/m 4,0 C 3,2 C 19,3 km/h (3 Bft) 100,00 %
05.03.2016 14:31 8,4 C 74 % 994,2 hPa 0,0 l/m 11,2 km/h (2 Bft) NO 55 1 min 0,000 mm 0,9 UV-I 268 W/m 4,0 C 5,1 C 14,5 km/h (3 Bft) 100,00 %
05.03.2016 14:32 8,4 C 75 % 994,2 hPa 0,0 l/m 10,6 km/h (2 Bft) NO 55 1 min 0,000 mm 0,9 UV-I 296 W/m 4,2 C 5,5 C 14,5 km/h (3 Bft) 96,30 %
05.03.2016 14:33 8,4 C 76 % 994,1 hPa 0,0 l/m 10,5 km/h (2 Bft) O-NO 59 1 min 0,000 mm 0,9 UV-I 298 W/m 4,4 C 5,5 C 12,9 km/h (3 Bft) 100,00 %
05.03.2016 14:34 8,5 C 74 % 994,0 hPa 0,0 l/m 14,0 km/h (3 Bft) NO 42 1 min 0,000 mm 0,9 UV-I 295 W/m 4,1 C 3,8 C 19,3 km/h (3 Bft) 100,00 %
05.03.2016 14:35 8,6 C 75 % 994,0 hPa 0,0 l/m 15,7 km/h (3 Bft) O-NO 69 1 min 0,000 mm 0,9 UV-I 289 W/m 4,4 C 3,1 C 19,3 km/h (3 Bft) 100,00 %
05.03.2016 14:36 8,6 C 73 % 994,0 hPa 0,0 l/m 13,0 km/h (3 Bft) NO 54 1 min 0,000 mm 0,9 UV-I 287 W/m 4,0 C 4,4 C 17,7 km/h (3 Bft) 100,00 %
05.03.2016 14:37 8,6 C 73 % 994,0 hPa 0,0 l/m 13,4 km/h (3 Bft) O-NO 71 1 min 0,000 mm 0,9 UV-I 304 W/m 4,0 C 4,2 C 17,7 km/h (3 Bft) 100,00 %
05.03.2016 14:38 8,6 C 73 % 994,0 hPa 0,0 l/m 15,1 km/h (3 Bft) O-NO 57 1 min 0,000 mm 0,9 UV-I 300 W/m 4,0 C 3,4 C 22,5 km/h (4 Bft) 100,00 %
05.03.2016 14:39 8,6 C 72 % 994,0 hPa 0,0 l/m 19,1 km/h (3 Bft) NO 53 1 min 0,000 mm 1,0 UV-I 305 W/m 3,8 C 1,8 C 24,1 km/h (4 Bft) 100,00 %
05.03.2016 14:40 8,6 C 72 % 993,9 hPa 0,0 l/m 16,7 km/h (3 Bft) NO 47 1 min 0,000 mm 1,0 UV-I 303 W/m 3,8 C 2,7 C 19,3 km/h (3 Bft) 100,00 %
05.03.2016 14:41 8,5 C 71 % 994,0 hPa 0,0 l/m 16,7 km/h (3 Bft) O-NO 67 1 min 0,000 mm 1,0 UV-I 301 W/m 3,5 C 2,6 C 20,9 km/h (4 Bft) 100,00 %
05.03.2016 14:42 8,5 C 72 % 993,9 hPa 0,0 l/m 17,8 km/h (3 Bft) O-NO 58 1 min 0,000 mm 0,9 UV-I 286 W/m 3,7 C 2,2 C 20,9 km/h (4 Bft) 100,00 %
05.03.2016 14:43 8,5 C 72 % 993,9 hPa 0,0 l/m 17,5 km/h (3 Bft) NO 36 1 min 0,000 mm 1,0 UV-I 287 W/m 3,7 C 2,3 C 22,5 km/h (4 Bft) 100,00 %
05.03.2016 14:44 8,5 C 73 % 994,0 hPa 0,0 l/m 18,6 km/h (3 Bft) O-NO 57 1 min 0,000 mm 1,0 UV-I 314 W/m 3,9 C 1,9 C 24,1 km/h (4 Bft) 100,00 %
05.03.2016 14:45 8,6 C 73 % 993,9 hPa 0,0 l/m 19,5 km/h (3 Bft) NO 55 1 min 0,000 mm 1,0 UV-I 320 W/m 4,0 C 1,7 C 25,7 km/h (4 Bft) 96,55 %
05.03.2016 14:46 8,6 C 71 % 993,8 hPa 0,0 l/m 17,8 km/h (3 Bft) O-NO 72 1 min 0,000 mm 1,0 UV-I 324 W/m 3,6 C 2,3 C 25,7 km/h (4 Bft) 100,00 %
05.03.2016 14:47 8,6 C 71 % 993,8 hPa 0,0 l/m 11,8 km/h (2 Bft) NO 46 1 min 0,000 mm 1,0 UV-I 333 W/m 3,6 C 5,0 C 14,5 km/h (3 Bft) 100,00 %
05.03.2016 14:48 8,7 C 73 % 993,8 hPa 0,0 l/m 13,2 km/h (3 Bft) NO 38 1 min 0,000 mm 1,0 UV-I 339 W/m 4,1 C 4,4 C 17,7 km/h (3 Bft) 100,00 %
05.03.2016 14:49 8,7 C 73 % 993,7 hPa 0,0 l/m 13,7 km/h (3 Bft) O-NO 63 1 min 0,000 mm 1,1 UV-I 368 W/m 4,1 C 4,2 C 22,5 km/h (4 Bft) 100,00 %
05.03.2016 14:50 8,7 C 72 % 993,8 hPa 0,0 l/m 16,1 km/h (3 Bft) NO 55 1 min 0,000 mm 1,1 UV-I 378 W/m 3,9 C 3,1 C 22,5 km/h (4 Bft) 95,65 %
05.03.2016 14:51 8,7 C 72 % 993,8 hPa 0,0 l/m 14,2 km/h (3 Bft) NO 39 1 min 0,000 mm 1,0 UV-I 367 W/m 3,9 C 3,9 C 19,3 km/h (3 Bft) 100,00 %
05.03.2016 14:52 8,7 C 72 % 993,8 hPa 0,0 l/m 12,6 km/h (3 Bft) NO 50 1 min 0,000 mm 1,1 UV-I 374 W/m 3,9 C 4,7 C 16,1 km/h (3 Bft) 100,00 %
05.03.2016 14:53 8,8 C 73 % 993,7 hPa 0,0 l/m 11,2 km/h (2 Bft) NO 56 1 min 0,000 mm 1,0 UV-I 343 W/m 4,2 C 5,6 C 20,9 km/h (4 Bft) 100,00 %
05.03.2016 14:54 8,8 C 73 % 993,7 hPa 0,0 l/m 16,0 km/h (3 Bft) NO 42 1 min 0,000 mm 1,0 UV-I 326 W/m 4,2 C 3,3 C 22,5 km/h (4 Bft) 100,00 %
05.03.2016 14:55 8,8 C 73 % 993,7 hPa 0,0 l/m 15,4 km/h (3 Bft) O-NO 57 1 min 0,000 mm 1,0 UV-I 326 W/m 4,2 C 3,5 C 19,3 km/h (3 Bft) 98,67 %
05.03.2016 14:56 8,8 C 72 % 993,7 hPa 0,0 l/m 15,6 km/h (3 Bft) NO 38 1 min 0,000 mm 0,9 UV-I 293 W/m 4,0 C 3,4 C 20,9 km/h (4 Bft) 100,00 %
05.03.2016 14:57 8,8 C 73 % 993,7 hPa 0,0 l/m 16,9 km/h (3 Bft) NO 42 1 min 0,000 mm 0,9 UV-I 297 W/m 4,2 C 2,9 C 22,5 km/h (4 Bft) 95,83 %
05.03.2016 14:58 8,8 C 73 % 993,8 hPa 0,0 l/m 16,0 km/h (3 Bft) NO 56 1 min 0,000 mm 0,9 UV-I 309 W/m 4,2 C 3,3 C 20,9 km/h (4 Bft) 96,15 %
05.03.2016 14:59 8,8 C 71 % 993,8 hPa 0,0 l/m 16,0 km/h (3 Bft) NO 42 1 min 0,000 mm 0,9 UV-I 307 W/m 3,8 C 3,3 C 20,9 km/h (4 Bft) 100,00 %
05.03.2016 15:00 8,8 C 73 % 993,9 hPa 0,0 l/m 15,1 km/h (3 Bft) O-NO 66 1 min 0,000 mm 0,9 UV-I 281 W/m 4,2 C 3,6 C 22,5 km/h (4 Bft) 92,86 %
05.03.2016 15:02 8,8 C 71 % 993,9 hPa 0,0 l/m 17,7 km/h (3 Bft) NO 52 2 min 0,152 mm 0,8 UV-I 272 W/m 3,8 C 2,6 C 22,5 km/h (4 Bft) 96,43 %
05.03.2016 15:03 8,7 C 71 % 993,9 hPa 0,0 l/m 16,5 km/h (3 Bft) O-NO 66 1 min 0,000 mm 0,8 UV-I 262 W/m 3,7 C 2,9 C 19,3 km/h (3 Bft) 98,66 %
05.03.2016 15:04 8,7 C 72 % 993,8 hPa 0,0 l/m 18,2 km/h (3 Bft) N-NO 32 1 min 0,000 mm 0,8 UV-I 267 W/m 3,9 C 2,3 C 22,5 km/h (4 Bft) 97,56 %
05.03.2016 15:05 8,7 C 72 % 993,7 hPa 0,0 l/m 12,3 km/h (3 Bft) O-NO 63 1 min 0,000 mm 0,8 UV-I 264 W/m 3,9 C 4,9 C 17,7 km/h (3 Bft) 100,00 %
05.03.2016 15:06 8,7 C 72 % 993,7 hPa 0,0 l/m 11,8 km/h (2 Bft) NO 52 1 min 0,000 mm 0,8 UV-I 263 W/m 3,9 C 5,1 C 16,1 km/h (3 Bft) 92,31 %
05.03.2016 15:07 8,7 C 72 % 993,7 hPa 0,0 l/m 16,4 km/h (3 Bft) NO 51 1 min 0,000 mm 0,8 UV-I 245 W/m 3,9 C 3,0 C 22,5 km/h (4 Bft) 100,00 %
05.03.2016 15:08 8,8 C 72 % 993,7 hPa 0,0 l/m 10,9 km/h (2 Bft) NO 49 1 min 0,000 mm 0,8 UV-I 241 W/m 4,0 C 5,7 C 17,7 km/h (3 Bft) 96,88 %
05.03.2016 15:09 8,8 C 72 % 993,6 hPa 0,0 l/m 12,8 km/h (3 Bft) O-NO 60 1 min 0,000 mm 0,8 UV-I 239 W/m 4,0 C 4,7 C 19,3 km/h (3 Bft) 94,44 %
05.03.2016 15:10 8,8 C 72 % 993,7 hPa 0,0 l/m 16,7 km/h (3 Bft) O-NO 74 1 min 0,000 mm 0,8 UV-I 234 W/m 4,0 C 3,0 C 20,9 km/h (4 Bft) 96,30 %
05.03.2016 15:11 8,8 C 70 % 993,6 hPa 0,0 l/m 17,0 km/h (3 Bft) O-NO 61 1 min 0,000 mm 0,7 UV-I 231 W/m 3,6 C 2,8 C 20,9 km/h (4 Bft) 96,15 %
05.03.2016 15:12 8,8 C 71 % 993,6 hPa 0,0 l/m 13,3 km/h (3 Bft) O-NO 62 1 min 0,000 mm 0,7 UV-I 230 W/m 3,8 C 4,5 C 20,9 km/h (4 Bft) 100,00 %
05.03.2016 15:13 8,8 C 70 % 993,6 hPa 0,0 l/m 13,7 km/h (3 Bft) O-NO 71 1 min 0,000 mm 0,7 UV-I 228 W/m 3,6 C 4,3 C 19,3 km/h (3 Bft) 91,30 %
05.03.2016 15:14 8,8 C 70 % 993,4 hPa 0,0 l/m 13,3 km/h (3 Bft) O-NO 59 1 min 0,000 mm 0,7 UV-I 234 W/m 3,6 C 4,5 C 16,1 km/h (3 Bft) 100,00 %
05.03.2016 15:15 8,8 C 71 % 993,5 hPa 0,0 l/m 13,7 km/h (3 Bft) O-NO 59 1 min 0,000 mm 0,7 UV-I 234 W/m 3,8 C 4,3 C 17,7 km/h (3 Bft) 96,15 %
05.03.2016 15:16 8,8 C 70 % 993,5 hPa 0,0 l/m 15,1 km/h (3 Bft) O-NO 76 1 min 0,000 mm 0,7 UV-I 220 W/m 3,6 C 3,6 C 17,7 km/h (3 Bft) 96,30 %
05.03.2016 15:17 8,8 C 70 % 993,5 hPa 0,0 l/m 14,6 km/h (3 Bft) O-NO 60 0 min 0,000 mm 0,7 UV-I 216 W/m 3,6 C 3,9 C 19,3 km/h (3 Bft) 100,00 %
05.03.2016 15:18 8,7 C 70 % 993,5 hPa 0,0 l/m 12,6 km/h (3 Bft) O-NO 63 1 min 0,000 mm 0,7 UV-I 220 W/m 3,5 C 4,7 C 16,1 km/h (3 Bft) 96,30 %
05.03.2016 15:19 8,8 C 72 % 993,6 hPa 0,0 l/m 15,5 km/h (3 Bft) O-NO 77 1 min 0,000 mm 0,7 UV-I 220 W/m 4,0 C 3,5 C 19,3 km/h (3 Bft) 98,61 %
05.03.2016 15:20 8,7 C 70 % 993,6 hPa 0,0 l/m 15,8 km/h (3 Bft) O-NO 63 1 min 0,000 mm 0,7 UV-I 221 W/m 3,5 C 3,2 C 19,3 km/h (3 Bft) 97,87 %
05.03.2016 15:21 8,7 C 72 % 993,6 hPa 0,0 l/m 14,9 km/h (3 Bft) NO 50 1 min 0,000 mm 0,7 UV-I 228 W/m 3,9 C 3,6 C 20,9 km/h (4 Bft) 93,33 %
05.03.2016 15:22 8,7 C 71 % 993,5 hPa 0,0 l/m 16,7 km/h (3 Bft) O-NO 69 1 min 0,000 mm 0,7 UV-I 226 W/m 3,7 C 2,8 C 20,9 km/h (4 Bft) 96,55 %
05.03.2016 15:23 8,7 C 72 % 993,5 hPa 0,0 l/m 16,8 km/h (3 Bft) NO 49 1 min 0,000 mm 0,7 UV-I 228 W/m 3,9 C 2,8 C 22,5 km/h (4 Bft) 100,00 %
05.03.2016 15:24 8,7 C 72 % 993,6 hPa 0,0 l/m 16,8 km/h (3 Bft) NO 45 1 min 0,000 mm 0,7 UV-I 228 W/m 3,9 C 2,8 C 20,9 km/h (4 Bft) 93,33 %
05.03.2016 15:25 8,7 C 72 % 993,5 hPa 0,0 l/m 16,8 km/h (3 Bft) O-NO 71 1 min 0,000 mm 0,6 UV-I 220 W/m 3,9 C 2,8 C 19,3 km/h (3 Bft) 100,00 %
05.03.2016 15:28 8,7 C 72 % 993,5 hPa 0,0 l/m 14,4 km/h (3 Bft) NO 51 3 min 0,000 mm 0,6 UV-I 249 W/m 3,9 C 3,8 C 17,7 km/h (3 Bft) 97,44 %
05.03.2016 15:29 8,7 C 72 % 993,5 hPa 0,0 l/m 12,1 km/h (2 Bft) NO 50 1 min 0,000 mm 0,6 UV-I 239 W/m 3,9 C 5,0 C 16,1 km/h (3 Bft) 91,67 %
05.03.2016 15:30 8,7 C 73 % 993,5 hPa 0,0 l/m 9,8 km/h (2 Bft) NO 55 1 min 0,000 mm 0,6 UV-I 248 W/m 4,1 C 6,3 C 14,5 km/h (3 Bft) 100,00 %
05.03.2016 15:31 8,7 C 73 % 993,5 hPa 0,0 l/m 13,2 km/h (3 Bft) O-NO 69 1 min 0,000 mm 0,6 UV-I 233 W/m 4,1 C 4,4 C 16,1 km/h (3 Bft) 100,00 %
05.03.2016 15:32 8,6 C 72 % 993,5 hPa 0,0 l/m 12,7 km/h (3 Bft) NO 53 1 min 0,000 mm 0,6 UV-I 228 W/m 3,8 C 4,5 C 17,7 km/h (3 Bft) 96,55 %
05.03.2016 15:33 8,6 C 73 % 993,5 hPa 0,0 l/m 15,2 km/h (3 Bft) NO 53 1 min 0,000 mm 0,6 UV-I 239 W/m 4,0 C 3,3 C 17,7 km/h (3 Bft) 96,30 %
05.03.2016 15:34 8,6 C 73 % 993,6 hPa 0,0 l/m 13,7 km/h (3 Bft) NO 45 1 min 0,000 mm 0,6 UV-I 239 W/m 4,0 C 4,0 C 17,7 km/h (3 Bft) 100,00 %
05.03.2016 15:35 8,7 C 74 % 993,5 hPa 0,0 l/m 14,0 km/h (3 Bft) NO 47 1 min 0,000 mm 0,6 UV-I 226 W/m 4,3 C 4,0 C 16,1 km/h (3 Bft) 96,30 %
05.03.2016 15:36 8,7 C 73 % 993,5 hPa 0,0 l/m 13,1 km/h (3 Bft) O-NO 64 1 min 0,000 mm 0,6 UV-I 223 W/m 4,1 C 4,5 C 16,1 km/h (3 Bft) 100,00 %
05.03.2016 15:37 8,6 C 73 % 993,5 hPa 0,0 l/m 10,1 km/h (2 Bft) O-NO 63 1 min 0,000 mm 0,6 UV-I 233 W/m 4,0 C 6,0 C 12,9 km/h (3 Bft) 100,00 %
05.03.2016 15:38 8,6 C 73 % 993,5 hPa 0,0 l/m 13,0 km/h (3 Bft) O-NO 57 1 min 0,000 mm 0,6 UV-I 249 W/m 4,0 C 4,4 C 16,1 km/h (3 Bft) 100,00 %
05.03.2016 15:39 8,6 C 74 % 993,5 hPa 0,0 l/m 13,6 km/h (3 Bft) O-NO 59 1 min 0,000 mm 0,6 UV-I 260 W/m 4,2 C 4,1 C 17,7 km/h (3 Bft) 100,00 %
05.03.2016 15:40 8,6 C 73 % 993,5 hPa 0,0 l/m 13,3 km/h (3 Bft) NO 44 1 min 0,000 mm 0,6 UV-I 277 W/m 4,0 C 4,2 C 17,7 km/h (3 Bft) 100,00 %
05.03.2016 15:41 8,6 C 73 % 993,5 hPa 0,0 l/m 11,5 km/h (2 Bft) O-NO 71 1 min 0,000 mm 0,6 UV-I 280 W/m 4,0 C 5,2 C 14,5 km/h (3 Bft) 100,00 %
05.03.2016 15:42 8,6 C 75 % 993,5 hPa 0,0 l/m 13,5 km/h (3 Bft) O-NO 61 1 min 0,000 mm 0,6 UV-I 288 W/m 4,4 C 4,1 C 16,1 km/h (3 Bft) 100,00 %
05.03.2016 15:43 8,6 C 74 % 993,5 hPa 0,0 l/m 8,5 km/h (2 Bft) O-NO 61 1 min 0,000 mm 0,6 UV-I 302 W/m 4,2 C 7,0 C 12,9 km/h (3 Bft) 100,00 %
05.03.2016 15:44 8,7 C 75 % 993,5 hPa 0,0 l/m 14,3 km/h (3 Bft) O 87 1 min 0,000 mm 0,6 UV-I 303 W/m 4,5 C 3,9 C 19,3 km/h (3 Bft) 100,00 %
05.03.2016 15:45 8,7 C 75 % 993,5 hPa 0,0 l/m 13,9 km/h (3 Bft) O-NO 62 1 min 0,000 mm 0,6 UV-I 298 W/m 4,5 C 4,1 C 16,1 km/h (3 Bft) 100,00 %
05.03.2016 15:46 8,7 C 74 % 993,5 hPa 0,0 l/m 13,6 km/h (3 Bft) NO 48 1 min 0,000 mm 0,6 UV-I 343 W/m 4,3 C 4,2 C 17,7 km/h (3 Bft) 100,00 %
05.03.2016 15:47 8,7 C 74 % 993,5 hPa 0,0 l/m 16,1 km/h (3 Bft) O 80 1 min 0,000 mm 0,6 UV-I 300 W/m 4,3 C 3,1 C 17,7 km/h (3 Bft) 100,00 %
05.03.2016 15:48 8,7 C 74 % 993,5 hPa 0,0 l/m 13,9 km/h (3 Bft) O-NO 74 1 min 0,000 mm 0,6 UV-I 377 W/m 4,3 C 4,1 C 17,7 km/h (3 Bft) 100,00 %
05.03.2016 15:49 8,8 C 74 % 993,5 hPa 0,0 l/m 15,8 km/h (3 Bft) O-NO 69 1 min 0,000 mm 0,6 UV-I 403 W/m 4,4 C 3,3 C 19,3 km/h (3 Bft) 100,00 %
05.03.2016 15:50 8,8 C 74 % 993,5 hPa 0,0 l/m 12,0 km/h (2 Bft) O-NO 78 1 min 0,000 mm 0,6 UV-I 402 W/m 4,4 C 5,1 C 17,7 km/h (3 Bft) 100,00 %
05.03.2016 15:51 8,8 C 75 % 993,5 hPa 0,0 l/m 14,3 km/h (3 Bft) O-NO 76 1 min 0,000 mm 0,6 UV-I 391 W/m 4,6 C 4,0 C 19,3 km/h (3 Bft) 100,00 %
05.03.2016 15:52 8,9 C 73 % 993,5 hPa 0,0 l/m 15,4 km/h (3 Bft) O-NO 71 1 min 0,000 mm 0,6 UV-I 368 W/m 4,3 C 3,6 C 20,9 km/h (4 Bft) 100,00 %
05.03.2016 15:53 8,9 C 74 % 993,6 hPa 0,0 l/m 15,0 km/h (3 Bft) O-NO 78 1 min 0,000 mm 0,6 UV-I 361 W/m 4,5 C 3,8 C 19,3 km/h (3 Bft) 96,15 %
05.03.2016 15:54 8,9 C 74 % 993,6 hPa 0,0 l/m 14,5 km/h (3 Bft) O-NO 71 1 min 0,000 mm 0,6 UV-I 338 W/m 4,5 C 4,0 C 19,3 km/h (3 Bft) 100,00 %
05.03.2016 15:55 8,9 C 74 % 993,6 hPa 0,0 l/m 12,6 km/h (3 Bft) O 84 1 min 0,000 mm 0,6 UV-I 330 W/m 4,5 C 4,9 C 16,1 km/h (3 Bft) 98,62 %
05.03.2016 15:58 8,9 C 74 % 993,5 hPa 0,0 l/m 9,8 km/h (2 Bft) O-NO 64 3 min 0,000 mm 0,5 UV-I 280 W/m 4,5 C 6,5 C 12,9 km/h (3 Bft) 98,82 %
05.03.2016 15:59 8,9 C 73 % 993,5 hPa 0,0 l/m 13,9 km/h (3 Bft) O-NO 64 1 min 0,000 mm 0,5 UV-I 239 W/m 4,3 C 4,3 C 17,7 km/h (3 Bft) 100,00 %
05.03.2016 16:00 8,9 C 72 % 993,5 hPa 0,0 l/m 12,7 km/h (3 Bft) O-NO 66 1 min 0,000 mm 0,5 UV-I 233 W/m 4,1 C 4,9 C 16,1 km/h (3 Bft) 100,00 %
05.03.2016 16:01 8,9 C 72 % 993,5 hPa 0,0 l/m 10,7 km/h (2 Bft) O-NO 76 1 min 0,153 mm 0,5 UV-I 221 W/m 4,1 C 6,0 C 16,1 km/h (3 Bft) 100,00 %
05.03.2016 16:02 8,8 C 73 % 993,5 hPa 0,0 l/m 13,8 km/h (3 Bft) NO 51 1 min 0,000 mm 0,4 UV-I 223 W/m 4,2 C 4,2 C 17,7 km/h (3 Bft) 96,30 %
05.03.2016 16:03 8,8 C 73 % 993,5 hPa 0,0 l/m 14,5 km/h (3 Bft) O 86 1 min 0,000 mm 0,0 UV-I 222 W/m 4,2 C 3,9 C 17,7 km/h (3 Bft) 100,00 %
05.03.2016 16:04 8,7 C 74 % 993,5 hPa 0,0 l/m 16,2 km/h (3 Bft) O-NO 65 1 min 0,000 mm 0,0 UV-I 213 W/m 4,3 C 3,0 C 19,3 km/h (3 Bft) 100,00 %
05.03.2016 16:05 8,7 C 74 % 993,5 hPa 0,0 l/m 15,9 km/h (3 Bft) O-NO 66 1 min 0,000 mm 0,0 UV-I 239 W/m 4,3 C 3,2 C 19,3 km/h (3 Bft) 100,00 %
05.03.2016 16:06 8,8 C 74 % 993,5 hPa 0,0 l/m 15,4 km/h (3 Bft) O-NO 58 1 min 0,000 mm 0,0 UV-I 225 W/m 4,4 C 3,5 C 19,3 km/h (3 Bft) 100,00 %
05.03.2016 16:07 8,7 C 73 % 993,5 hPa 0,0 l/m 14,4 km/h (3 Bft) O-NO 62 1 min 0,000 mm 0,0 UV-I 221 W/m 4,1 C 3,8 C 19,3 km/h (3 Bft) 100,00 %
05.03.2016 16:08 8,7 C 74 % 993,5 hPa 0,0 l/m 10,6 km/h (2 Bft) NO 38 1 min 0,000 mm 0,0 UV-I 204 W/m 4,3 C 5,8 C 16,1 km/h (3 Bft) 100,00 %
05.03.2016 16:09 8,7 C 74 % 993,5 hPa 0,0 l/m 9,5 km/h (2 Bft) O-NO 67 1 min 0,000 mm 0,0 UV-I 208 W/m 4,3 C 6,5 C 14,5 km/h (3 Bft) 100,00 %
05.03.2016 16:10 8,7 C 75 % 993,5 hPa 0,0 l/m 10,4 km/h (2 Bft) NO 55 1 min 0,000 mm 0,0 UV-I 224 W/m 4,5 C 5,9 C 12,9 km/h (3 Bft) 100,00 %
05.03.2016 16:11 8,8 C 75 % 993,5 hPa 0,0 l/m 9,8 km/h (2 Bft) O-NO 67 1 min 0,000 mm 0,0 UV-I 259 W/m 4,6 C 6,4 C 14,5 km/h (3 Bft) 100,00 %
05.03.2016 16:12 8,8 C 75 % 993,5 hPa 0,0 l/m 13,4 km/h (3 Bft) O-NO 65 1 min 0,000 mm 0,0 UV-I 277 W/m 4,6 C 4,4 C 17,7 km/h (3 Bft) 100,00 %
05.03.2016 16:13 8,8 C 74 % 993,5 hPa 0,0 l/m 16,4 km/h (3 Bft) O 80 1 min 0,000 mm 0,0 UV-I 302 W/m 4,4 C 3,1 C 19,3 km/h (3 Bft) 100,00 %
05.03.2016 16:14 8,8 C 74 % 993,5 hPa 0,0 l/m 14,3 km/h (3 Bft) O-NO 74 1 min 0,000 mm 0,0 UV-I 304 W/m 4,4 C 4,0 C 17,7 km/h (3 Bft) 100,00 %
05.03.2016 16:15 8,9 C 74 % 993,4 hPa 0,0 l/m 13,3 km/h (3 Bft) O 80 1 min 0,000 mm 0,0 UV-I 306 W/m 4,5 C 4,6 C 19,3 km/h (3 Bft) 100,00 %
05.03.2016 16:16 8,9 C 74 % 993,4 hPa 0,0 l/m 15,0 km/h (3 Bft) O-NO 69 1 min 0,000 mm 0,0 UV-I 273 W/m 4,5 C 3,8 C 19,3 km/h (3 Bft) 100,00 %
05.03.2016 16:17 8,9 C 74 % 993,4 hPa 0,0 l/m 14,5 km/h (3 Bft) NO 42 1 min 0,000 mm 0,0 UV-I 241 W/m 4,5 C 4,0 C 19,3 km/h (3 Bft) 96,30 %
05.03.2016 16:18 8,9 C 75 % 993,4 hPa 0,0 l/m 15,3 km/h (3 Bft) O-NO 66 1 min 0,000 mm 0,0 UV-I 246 W/m 4,7 C 3,7 C 17,7 km/h (3 Bft) 94,12 %
05.03.2016 16:19 8,9 C 73 % 993,4 hPa 0,0 l/m 13,9 km/h (3 Bft) O-NO 72 1 min 0,000 mm 0,0 UV-I 235 W/m 4,3 C 4,3 C 17,7 km/h (3 Bft) 100,00 %
05.03.2016 16:20 8,9 C 74 % 993,5 hPa 0,0 l/m 15,4 km/h (3 Bft) N-NO 19 1 min 0,000 mm 0,0 UV-I 240 W/m 4,5 C 3,6 C 19,3 km/h (3 Bft) 100,00 %
05.03.2016 16:21 8,9 C 74 % 993,5 hPa 0,0 l/m 11,8 km/h (2 Bft) O-NO 65 1 min 0,000 mm 0,0 UV-I 237 W/m 4,5 C 5,4 C 17,7 km/h (3 Bft) 100,00 %
05.03.2016 16:22 8,9 C 74 % 993,4 hPa 0,0 l/m 14,0 km/h (3 Bft) NO 54 1 min 0,000 mm 0,0 UV-I 224 W/m 4,5 C 4,3 C 17,7 km/h (3 Bft) 100,00 %
05.03.2016 16:23 8,8 C 74 % 993,4 hPa 0,0 l/m 13,9 km/h (3 Bft) O-NO 70 1 min 0,000 mm 0,0 UV-I 211 W/m 4,4 C 4,2 C 17,7 km/h (3 Bft) 100,00 %
05.03.2016 16:24 8,8 C 74 % 993,4 hPa 0,0 l/m 13,3 km/h (3 Bft) O-NO 64 1 min 0,000 mm 0,0 UV-I 206 W/m 4,4 C 4,5 C 16,1 km/h (3 Bft) 100,00 %
05.03.2016 16:25 8,8 C 75 % 993,3 hPa 0,0 l/m 11,0 km/h (2 Bft) O-NO 57 1 min 0,000 mm 0,0 UV-I 201 W/m 4,6 C 5,7 C 16,1 km/h (3 Bft) 96,30 %
05.03.2016 16:26 8,8 C 75 % 993,3 hPa 0,0 l/m 16,3 km/h (3 Bft) O-NO 62 1 min 0,000 mm 0,0 UV-I 194 W/m 4,6 C 3,1 C 20,9 km/h (4 Bft) 100,00 %
05.03.2016 16:27 8,8 C 75 % 993,3 hPa 0,0 l/m 17,0 km/h (3 Bft) O-NO 67 1 min 0,000 mm 0,0 UV-I 188 W/m 4,6 C 2,8 C 20,9 km/h (4 Bft) 95,65 %
05.03.2016 16:28 8,8 C 75 % 993,3 hPa 0,0 l/m 13,8 km/h (3 Bft) O 79 1 min 0,000 mm 0,0 UV-I 180 W/m 4,6 C 4,2 C 17,7 km/h (3 Bft) 100,00 %
05.03.2016 16:29 8,8 C 75 % 993,2 hPa 0,0 l/m 17,4 km/h (3 Bft) O-NO 76 1 min 0,000 mm 0,0 UV-I 168 W/m 4,6 C 2,7 C 20,9 km/h (4 Bft) 100,00 %
05.03.2016 16:30 8,8 C 75 % 993,3 hPa 0,0 l/m 13,1 km/h (3 Bft) O-NO 71 1 min 0,000 mm 0,0 UV-I 147 W/m 4,6 C 4,6 C 16,1 km/h (3 Bft) 100,00 %
05.03.2016 16:31 8,7 C 75 % 993,3 hPa 0,0 l/m 13,1 km/h (3 Bft) O 82 1 min 0,000 mm 0,0 UV-I 139 W/m 4,5 C 4,5 C 16,1 km/h (3 Bft) 100,00 %
05.03.2016 16:32 8,7 C 75 % 993,2 hPa 0,0 l/m 12,9 km/h (3 Bft) O 90 1 min 0,000 mm 0,0 UV-I 132 W/m 4,5 C 4,6 C 16,1 km/h (3 Bft) 100,00 %
05.03.2016 16:33 8,7 C 76 % 993,2 hPa 0,0 l/m 13,4 km/h (3 Bft) O-NO 65 1 min 0,000 mm 0,0 UV-I 124 W/m 4,7 C 4,3 C 17,7 km/h (3 Bft) 100,00 %
05.03.2016 16:34 8,7 C 76 % 993,1 hPa 0,0 l/m 13,5 km/h (3 Bft) O-NO 66 1 min 0,000 mm 0,0 UV-I 119 W/m 4,7 C 4,3 C 16,1 km/h (3 Bft) 100,00 %
05.03.2016 16:35 8,7 C 76 % 993,1 hPa 0,0 l/m 14,8 km/h (3 Bft) NO 55 0 min 0,000 mm 0,0 UV-I 114 W/m 4,7 C 3,6 C 19,3 km/h (3 Bft) 90,91 %
05.03.2016 16:36 8,7 C 76 % 993,1 hPa 0,0 l/m 12,1 km/h (2 Bft) O-NO 78 0 min 0,000 mm 0,0 UV-I 110 W/m 4,7 C 5,0 C 17,7 km/h (3 Bft) 100,00 %
05.03.2016 16:37 8,7 C 76 % 993,1 hPa 0,0 l/m 11,4 km/h (2 Bft) O-NO 78 0 min 0,000 mm 0,0 UV-I 109 W/m 4,7 C 5,3 C 14,5 km/h (3 Bft) 100,00 %
05.03.2016 16:38 8,7 C 77 % 993,1 hPa 0,0 l/m 10,5 km/h (2 Bft) O-NO 78 0 min 0,000 mm 0,0 UV-I 107 W/m 4,9 C 5,9 C 16,1 km/h (3 Bft) 96,30 %
05.03.2016 16:39 8,7 C 76 % 993,1 hPa 0,0 l/m 12,4 km/h (3 Bft) O 85 0 min 0,000 mm 0,0 UV-I 103 W/m 4,7 C 4,8 C 17,7 km/h (3 Bft) 100,00 %
05.03.2016 16:40 8,7 C 76 % 993,1 hPa 0,0 l/m 12,6 km/h (3 Bft) O-NO 67 0 min 0,000 mm 0,0 UV-I 99 W/m 4,7 C 4,7 C 16,1 km/h (3 Bft) 100,00 %
05.03.2016 16:41 8,7 C 76 % 993,0 hPa 0,0 l/m 14,6 km/h (3 Bft) O-NO 72 0 min 0,000 mm 0,0 UV-I 97 W/m 4,7 C 3,7 C 19,3 km/h (3 Bft) 95,65 %
05.03.2016 16:42 8,7 C 76 % 993,1 hPa 0,0 l/m 13,6 km/h (3 Bft) O-NO 76 0 min 0,000 mm 0,0 UV-I 94 W/m 4,7 C 4,2 C 19,3 km/h (3 Bft) 91,67 %
05.03.2016 16:43 8,6 C 76 % 993,1 hPa 0,0 l/m 14,6 km/h (3 Bft) O 81 0 min 0,000 mm 0,0 UV-I 91 W/m 4,6 C 3,6 C 17,7 km/h (3 Bft) 100,00 %
05.03.2016 16:44 8,6 C 77 % 993,0 hPa 0,0 l/m 13,0 km/h (3 Bft) O-NO 64 0 min 0,000 mm 0,0 UV-I 89 W/m 4,8 C 4,4 C 16,1 km/h (3 Bft) 100,00 %
05.03.2016 16:45 8,6 C 77 % 993,0 hPa 0,0 l/m 15,9 km/h (3 Bft) O-NO 66 0 min 0,000 mm 0,0 UV-I 87 W/m 4,8 C 3,0 C 22,5 km/h (4 Bft) 100,00 %
05.03.2016 16:46 8,6 C 77 % 993,0 hPa 0,0 l/m 15,1 km/h (3 Bft) O-NO 72 0 min 0,000 mm 0,0 UV-I 84 W/m 4,8 C 3,4 C 19,3 km/h (3 Bft) 100,00 %
05.03.2016 16:47 8,6 C 77 % 993,0 hPa 0,0 l/m 15,4 km/h (3 Bft) O-NO 70 0 min 0,000 mm 0,0 UV-I 84 W/m 4,8 C 3,3 C 19,3 km/h (3 Bft) 100,00 %
05.03.2016 16:48 8,6 C 77 % 993,0 hPa 0,0 l/m 14,6 km/h (3 Bft) O-NO 71 0 min 0,000 mm 0,0 UV-I 82 W/m 4,8 C 3,6 C 20,9 km/h (4 Bft) 88,46 %
05.03.2016 16:49 8,6 C 77 % 993,0 hPa 0,0 l/m 17,3 km/h (3 Bft) O 80 0 min 0,000 mm 0,0 UV-I 81 W/m 4,8 C 2,5 C 20,9 km/h (4 Bft) 100,00 %
05.03.2016 16:50 8,6 C 77 % 992,9 hPa 0,0 l/m 10,7 km/h (2 Bft) NO 44 0 min 0,000 mm 0,0 UV-I 80 W/m 4,8 C 5,6 C 17,7 km/h (3 Bft) 100,00 %
05.03.2016 16:51 8,6 C 77 % 992,9 hPa 0,0 l/m 14,9 km/h (3 Bft) O-NO 67 0 min 0,000 mm 0,0 UV-I 78 W/m 4,8 C 3,5 C 19,3 km/h (3 Bft) 100,00 %
05.03.2016 16:52 8,6 C 77 % 992,9 hPa 0,0 l/m 13,8 km/h (3 Bft) O-NO 59 0 min 0,000 mm 0,0 UV-I 77 W/m 4,8 C 4,0 C 22,5 km/h (4 Bft) 96,55 %
05.03.2016 16:53 8,6 C 77 % 993,0 hPa 0,0 l/m 16,0 km/h (3 Bft) NO 55 0 min 0,000 mm 0,0 UV-I 77 W/m 4,8 C 3,0 C 19,3 km/h (3 Bft) 96,30 %
05.03.2016 16:54 8,5 C 77 % 992,9 hPa 0,0 l/m 11,9 km/h (2 Bft) O-NO 71 0 min 0,000 mm 0,0 UV-I 77 W/m 4,7 C 4,8 C 16,1 km/h (3 Bft) 90,91 %
05.03.2016 16:55 8,5 C 77 % 992,9 hPa 0,0 l/m 11,5 km/h (2 Bft) NO 56 0 min 0,000 mm 0,0 UV-I 75 W/m 4,7 C 5,1 C 16,1 km/h (3 Bft) 95,83 %
05.03.2016 16:56 8,5 C 76 % 992,9 hPa 0,0 l/m 13,1 km/h (3 Bft) O-NO 59 0 min 0,000 mm 0,0 UV-I 74 W/m 4,5 C 4,2 C 17,7 km/h (3 Bft) 100,00 %
05.03.2016 16:57 8,5 C 77 % 992,9 hPa 0,0 l/m 10,7 km/h (2 Bft) O-NO 63 0 min 0,000 mm 0,0 UV-I 74 W/m 4,7 C 5,5 C 14,5 km/h (3 Bft) 93,33 %
05.03.2016 16:58 8,5 C 77 % 992,9 hPa 0,0 l/m 10,7 km/h (2 Bft) O-NO 59 0 min 0,000 mm 0,0 UV-I 72 W/m 4,7 C 5,5 C 14,5 km/h (3 Bft) 96,55 %
05.03.2016 16:59 8,4 C 77 % 992,9 hPa 0,0 l/m 10,9 km/h (2 Bft) O-NO 71 0 min 0,000 mm 0,0 UV-I 70 W/m 4,6 C 5,3 C 14,5 km/h (3 Bft) 96,30 %
05.03.2016 17:00 8,4 C 77 % 993,0 hPa 0,0 l/m 12,4 km/h (3 Bft) O 87 0 min 0,000 mm 0,0 UV-I 70 W/m 4,6 C 4,5 C 14,5 km/h (3 Bft) 89,66 %
05.03.2016 17:01 8,4 C 77 % 992,9 hPa 0,0 l/m 11,1 km/h (2 Bft) O-NO 57 0 min 0,101 mm 0,0 UV-I 68 W/m 4,6 C 5,2 C 16,1 km/h (3 Bft) 100,00 %
05.03.2016 17:02 8,4 C 77 % 992,9 hPa 0,0 l/m 7,4 km/h (2 Bft) O-NO 76 0 min 0,000 mm 0,0 UV-I 67 W/m 4,6 C 7,6 C 12,9 km/h (3 Bft) 95,65 %
05.03.2016 17:03 8,4 C 77 % 992,9 hPa 0,0 l/m 8,8 km/h (2 Bft) O-NO 63 0 min 0,000 mm 0,0 UV-I 67 W/m 4,6 C 6,6 C 12,9 km/h (3 Bft) 100,00 %
05.03.2016 17:04 8,4 C 77 % 992,9 hPa 0,0 l/m 11,2 km/h (2 Bft) O-NO 76 0 min 0,000 mm 0,0 UV-I 67 W/m 4,6 C 5,1 C 14,5 km/h (3 Bft) 96,67 %
05.03.2016 17:05 8,4 C 77 % 993,0 hPa 0,0 l/m 8,0 km/h (2 Bft) O-NO 77 0 min 0,000 mm 0,0 UV-I 67 W/m 4,6 C 7,2 C 11,3 km/h (2 Bft) 96,15 %
05.03.2016 17:06 8,3 C 77 % 992,9 hPa 0,0 l/m 8,4 km/h (2 Bft) O-NO 74 0 min 0,000 mm 0,0 UV-I 65 W/m 4,5 C 6,8 C 12,9 km/h (3 Bft) 96,15 %
05.03.2016 17:07 8,3 C 77 % 992,9 hPa 0,0 l/m 6,8 km/h (2 Bft) O-NO 69 0 min 0,000 mm 0,0 UV-I 64 W/m 4,5 C 8,0 C 8,0 km/h (2 Bft) 100,00 %
05.03.2016 17:08 8,3 C 77 % 992,9 hPa 0,0 l/m 7,5 km/h (2 Bft) O-NO 73 0 min 0,000 mm 0,0 UV-I 63 W/m 4,5 C 7,4 C 11,3 km/h (2 Bft) 96,30 %
05.03.2016 17:09 8,3 C 77 % 992,9 hPa 0,0 l/m 8,8 km/h (2 Bft) O-NO 63 0 min 0,000 mm 0,0 UV-I 62 W/m 4,5 C 6,5 C 12,9 km/h (3 Bft) 100,00 %
05.03.2016 17:10 8,3 C 78 % 992,8 hPa 0,0 l/m 7,0 km/h (2 Bft) O-NO 60 0 min 0,000 mm 0,0 UV-I 60 W/m 4,7 C 7,8 C 9,7 km/h (2 Bft) 95,83 %
05.03.2016 17:11 8,3 C 78 % 992,9 hPa 0,0 l/m 8,2 km/h (2 Bft) O-NO 69 0 min 0,000 mm 0,0 UV-I 60 W/m 4,7 C 6,9 C 12,9 km/h (3 Bft) 96,15 %
05.03.2016 17:12 8,3 C 78 % 992,9 hPa 0,0 l/m 8,0 km/h (2 Bft) NO 52 0 min 0,000 mm 0,0 UV-I 57 W/m 4,7 C 7,1 C 9,7 km/h (2 Bft) 100,00 %
05.03.2016 17:13 8,3 C 78 % 992,9 hPa 0,0 l/m 5,6 km/h (1 Bft) O-NO 71 0 min 0,000 mm 0,0 UV-I 55 W/m 4,7 C 8,3 C 8,0 km/h (2 Bft) 95,65 %
05.03.2016 17:14 8,3 C 78 % 993,0 hPa 0,0 l/m 6,0 km/h (2 Bft) O-NO 67 0 min 0,000 mm 0,0 UV-I 53 W/m 4,7 C 8,3 C 8,0 km/h (2 Bft) 100,00 %
05.03.2016 17:15 8,2 C 78 % 992,9 hPa 0,0 l/m 6,2 km/h (2 Bft) O-NO 58 0 min 0,000 mm 0,0 UV-I 50 W/m 4,6 C 8,2 C 8,0 km/h (2 Bft) 91,30 %
05.03.2016 17:16 8,3 C 78 % 992,9 hPa 0,0 l/m 6,3 km/h (2 Bft) NO 49 0 min 0,000 mm 0,0 UV-I 47 W/m 4,7 C 8,3 C 9,7 km/h (2 Bft) 100,00 %
05.03.2016 17:17 8,2 C 78 % 992,9 hPa 0,0 l/m 7,4 km/h (2 Bft) NO 51 0 min 0,000 mm 0,0 UV-I 46 W/m 4,6 C 7,4 C 8,0 km/h (2 Bft) 96,15 %
05.03.2016 17:18 8,2 C 78 % 992,9 hPa 0,0 l/m 6,7 km/h (2 Bft) NO 56 0 min 0,000 mm 0,0 UV-I 44 W/m 4,6 C 8,0 C 11,3 km/h (2 Bft) 92,59 %
05.03.2016 17:19 8,2 C 78 % 992,9 hPa 0,0 l/m 6,3 km/h (2 Bft) NO 52 0 min 0,000 mm 0,0 UV-I 43 W/m 4,6 C 8,2 C 8,0 km/h (2 Bft) 100,00 %
05.03.2016 17:20 8,2 C 78 % 992,9 hPa 0,0 l/m 6,2 km/h (2 Bft) O-NO 63 0 min 0,000 mm 0,0 UV-I 41 W/m 4,6 C 8,2 C 9,7 km/h (2 Bft) 91,67 %
05.03.2016 17:21 8,2 C 78 % 992,9 hPa 0,0 l/m 7,6 km/h (2 Bft) O-NO 63 0 min 0,000 mm 0,0 UV-I 40 W/m 4,6 C 7,3 C 9,7 km/h (2 Bft) 100,00 %
05.03.2016 17:22 8,2 C 78 % 992,9 hPa 0,0 l/m 8,7 km/h (2 Bft) NO 44 0 min 0,000 mm 0,0 UV-I 39 W/m 4,6 C 6,5 C 12,9 km/h (3 Bft) 96,15 %
05.03.2016 17:23 8,2 C 78 % 992,9 hPa 0,0 l/m 7,8 km/h (2 Bft) NO 49 0 min 0,000 mm 0,0 UV-I 37 W/m 4,6 C 7,1 C 9,7 km/h (2 Bft) 100,00 %
05.03.2016 17:24 8,2 C 78 % 992,9 hPa 0,0 l/m 9,7 km/h (2 Bft) NO 49 0 min 0,000 mm 0,0 UV-I 35 W/m 4,6 C 5,8 C 12,9 km/h (3 Bft) 96,30 %
05.03.2016 17:25 8,2 C 78 % 992,9 hPa 0,0 l/m 8,9 km/h (2 Bft) NO 53 0 min 0,000 mm 0,0 UV-I 34 W/m 4,6 C 6,3 C 12,9 km/h (3 Bft) 100,00 %
05.03.2016 17:26 8,2 C 78 % 992,9 hPa 0,0 l/m 6,7 km/h (2 Bft) O-NO 65 0 min 0,000 mm 0,0 UV-I 33 W/m 4,6 C 8,0 C 9,7 km/h (2 Bft) 100,00 %
05.03.2016 17:27 8,2 C 78 % 992,9 hPa 0,0 l/m 8,1 km/h (2 Bft) O-NO 59 0 min 0,000 mm 0,0 UV-I 32 W/m 4,6 C 6,9 C 11,3 km/h (2 Bft) 100,00 %
05.03.2016 17:28 8,1 C 79 % 992,9 hPa 0,0 l/m 7,4 km/h (2 Bft) NO 55 0 min 0,000 mm 0,0 UV-I 30 W/m 4,7 C 7,3 C 8,0 km/h (2 Bft) 100,00 %
05.03.2016 17:29 8,1 C 79 % 992,9 hPa 0,0 l/m 6,6 km/h (2 Bft) O-NO 75 0 min 0,000 mm 0,0 UV-I 29 W/m 4,7 C 8,0 C 8,0 km/h (2 Bft) 95,83 %
05.03.2016 17:30 8,1 C 79 % 992,9 hPa 0,0 l/m 6,5 km/h (2 Bft) O-NO 69 0 min 0,000 mm 0,0 UV-I 27 W/m 4,7 C 8,0 C 8,0 km/h (2 Bft) 100,00 %
05.03.2016 17:31 8,1 C 79 % 992,9 hPa 0,0 l/m 6,0 km/h (2 Bft) O-NO 69 0 min 0,000 mm 0,0 UV-I 26 W/m 4,7 C 8,1 C 8,0 km/h (2 Bft) 100,00 %
05.03.2016 17:32 8,0 C 79 % 992,9 hPa 0,0 l/m 7,0 km/h (2 Bft) O 84 0 min 0,000 mm 0,0 UV-I 24 W/m 4,6 C 7,5 C 8,0 km/h (2 Bft) 97,37 %
05.03.2016 17:33 8,0 C 79 % 992,9 hPa 0,0 l/m 6,4 km/h (2 Bft) NO 46 0 min 0,000 mm 0,0 UV-I 21 W/m 4,6 C 8,0 C 8,0 km/h (2 Bft) 96,30 %
05.03.2016 17:34 7,9 C 79 % 992,8 hPa 0,0 l/m 6,8 km/h (2 Bft) O-NO 62 0 min 0,000 mm 0,0 UV-I 19 W/m 4,5 C 7,6 C 9,7 km/h (2 Bft) 100,00 %
05.03.2016 17:35 7,9 C 79 % 992,8 hPa 0,0 l/m 7,6 km/h (2 Bft) O-NO 57 0 min 0,000 mm 0,0 UV-I 18 W/m 4,5 C 7,0 C 9,7 km/h (2 Bft) 100,00 %
05.03.2016 17:36 7,9 C 79 % 992,8 hPa 0,0 l/m 8,2 km/h (2 Bft) NO 52 0 min 0,000 mm 0,0 UV-I 17 W/m 4,5 C 6,5 C 12,9 km/h (3 Bft) 100,00 %
05.03.2016 17:37 7,9 C 79 % 992,8 hPa 0,0 l/m 9,5 km/h (2 Bft) NO 49 0 min 0,000 mm 0,0 UV-I 16 W/m 4,5 C 5,6 C 11,3 km/h (2 Bft) 100,00 %
05.03.2016 17:38 7,9 C 79 % 992,8 hPa 0,0 l/m 9,3 km/h (2 Bft) NO 54 0 min 0,000 mm 0,0 UV-I 14 W/m 4,5 C 5,7 C 11,3 km/h (2 Bft) 96,15 %
05.03.2016 17:39 7,9 C 79 % 992,8 hPa 0,0 l/m 8,4 km/h (2 Bft) NO 51 0 min 0,000 mm 0,0 UV-I 14 W/m 4,5 C 6,4 C 12,9 km/h (3 Bft) 100,00 %
05.03.2016 17:40 7,9 C 79 % 992,8 hPa 0,0 l/m 7,4 km/h (2 Bft) NO 55 0 min 0,000 mm 0,0 UV-I 12 W/m 4,5 C 7,1 C 8,0 km/h (2 Bft) 100,00 %
05.03.2016 17:41 7,9 C 79 % 992,8 hPa 0,0 l/m 8,9 km/h (2 Bft) NO 53 0 min 0,000 mm 0,0 UV-I 12 W/m 4,5 C 6,0 C 11,3 km/h (2 Bft) 100,00 %
05.03.2016 17:42 7,9 C 79 % 992,8 hPa 0,0 l/m 9,2 km/h (2 Bft) O-NO 65 0 min 0,000 mm 0,0 UV-I 11 W/m 4,5 C 5,8 C 11,3 km/h (2 Bft) 100,00 %
05.03.2016 17:43 7,9 C 80 % 992,8 hPa 0,0 l/m 8,6 km/h (2 Bft) O-NO 58 1 min 0,000 mm 0,0 UV-I 11 W/m 4,7 C 6,2 C 11,3 km/h (2 Bft) 100,00 %
05.03.2016 17:44 7,8 C 80 % 992,8 hPa 0,0 l/m 8,4 km/h (2 Bft) N-NO 30 1 min 0,000 mm 0,0 UV-I 10 W/m 4,6 C 6,2 C 14,5 km/h (3 Bft) 100,00 %
05.03.2016 17:45 7,8 C 80 % 992,8 hPa 0,0 l/m 10,9 km/h (2 Bft) NO 34 0 min 0,000 mm 0,0 UV-I 9 W/m 4,6 C 4,6 C 16,1 km/h (3 Bft) 96,55 %
05.03.2016 17:46 7,7 C 80 % 992,8 hPa 0,0 l/m 11,0 km/h (2 Bft) NO 44 0 min 0,000 mm 0,0 UV-I 9 W/m 4,5 C 4,4 C 14,5 km/h (3 Bft) 100,00 %
05.03.2016 17:47 7,6 C 80 % 992,8 hPa 0,0 l/m 10,2 km/h (2 Bft) NO 36 0 min 0,000 mm 0,0 UV-I 7 W/m 4,4 C 4,8 C 14,5 km/h (3 Bft) 96,55 %
05.03.2016 17:48 7,6 C 80 % 992,8 hPa 0,0 l/m 8,7 km/h (2 Bft) N-NO 33 0 min 0,000 mm 0,0 UV-I 7 W/m 4,4 C 5,8 C 11,3 km/h (2 Bft) 96,30 %
05.03.2016 17:49 7,4 C 81 % 992,8 hPa 0,0 l/m 7,6 km/h (2 Bft) NO 43 0 min 0,000 mm 0,0 UV-I 6 W/m 4,4 C 6,4 C 9,7 km/h (2 Bft) 92,86 %
05.03.2016 17:50 7,4 C 81 % 992,8 hPa 0,0 l/m 7,2 km/h (2 Bft) NO 40 0 min 0,000 mm 0,0 UV-I 5 W/m 4,4 C 6,8 C 9,7 km/h (2 Bft) 100,00 %
05.03.2016 17:51 7,3 C 81 % 992,8 hPa 0,0 l/m 7,3 km/h (2 Bft) NO 42 0 min 0,000 mm 0,0 UV-I 5 W/m 4,3 C 6,6 C 9,7 km/h (2 Bft) 100,00 %
05.03.2016 17:52 7,3 C 81 % 992,9 hPa 0,0 l/m 6,8 km/h (2 Bft) NO 52 0 min 0,000 mm 0,0 UV-I 5 W/m 4,3 C 7,0 C 8,0 km/h (2 Bft) 100,00 %
05.03.2016 17:53 7,3 C 81 % 992,9 hPa 0,0 l/m 5,5 km/h (1 Bft) NO 50 0 min 0,000 mm 0,0 UV-I 3 W/m 4,3 C 7,3 C 8,0 km/h (2 Bft) 100,00 %
05.03.2016 17:54 7,3 C 81 % 992,9 hPa 0,0 l/m 5,2 km/h (1 Bft) NO 50 0 min 0,000 mm 0,0 UV-I 0 W/m 4,3 C 7,3 C 8,0 km/h (2 Bft) 100,00 %
05.03.2016 17:55 7,3 C 81 % 992,9 hPa 0,0 l/m 5,8 km/h (2 Bft) NO 47 0 min 0,000 mm 0,0 UV-I 0 W/m 4,3 C 7,3 C 8,0 km/h (2 Bft) 100,00 %
05.03.2016 17:56 7,4 C 81 % 992,8 hPa 0,0 l/m 6,5 km/h (2 Bft) NO 52 0 min 0,000 mm 0,0 UV-I 0 W/m 4,4 C 7,3 C 8,0 km/h (2 Bft) 100,00 %
05.03.2016 17:57 7,4 C 81 % 992,8 hPa 0,0 l/m 8,0 km/h (2 Bft) O-NO 57 0 min 0,000 mm 0,0 UV-I 0 W/m 4,4 C 6,1 C 11,3 km/h (2 Bft) 100,00 %
05.03.2016 17:58 7,3 C 81 % 992,9 hPa 0,0 l/m 8,7 km/h (2 Bft) O-NO 59 0 min 0,000 mm 0,0 UV-I 0 W/m 4,3 C 5,5 C 9,7 km/h (2 Bft) 100,00 %
05.03.2016 17:59 7,4 C 81 % 992,8 hPa 0,0 l/m 8,3 km/h (2 Bft) NO 52 0 min 0,000 mm 0,0 UV-I 0 W/m 4,4 C 5,9 C 11,3 km/h (2 Bft) 100,00 %
05.03.2016 18:00 7,3 C 81 % 992,8 hPa 0,0 l/m 8,2 km/h (2 Bft) O-NO 63 0 min 0,000 mm 0,0 UV-I 0 W/m 4,3 C 5,9 C 9,7 km/h (2 Bft) 100,00 %
05.03.2016 18:01 7,4 C 81 % 992,9 hPa 0,0 l/m 9,6 km/h (2 Bft) O-NO 62 0 min 0,026 mm 0,0 UV-I 0 W/m 4,4 C 5,0 C 12,9 km/h (3 Bft) 100,00 %
05.03.2016 18:02 7,3 C 81 % 992,8 hPa 0,0 l/m 9,4 km/h (2 Bft) NO 37 0 min 0,000 mm 0,0 UV-I 0 W/m 4,3 C 5,0 C 11,3 km/h (2 Bft) 100,00 %
05.03.2016 18:03 7,3 C 81 % 992,8 hPa 0,0 l/m 9,1 km/h (2 Bft) O-NO 61 0 min 0,000 mm 0,0 UV-I 0 W/m 4,3 C 5,2 C 12,9 km/h (3 Bft) 100,00 %
05.03.2016 18:04 7,3 C 81 % 992,8 hPa 0,0 l/m 7,2 km/h (2 Bft) NO 47 0 min 0,000 mm 0,0 UV-I 0 W/m 4,3 C 6,7 C 9,7 km/h (2 Bft) 100,00 %
05.03.2016 18:05 7,3 C 81 % 992,8 hPa 0,0 l/m 7,6 km/h (2 Bft) O-NO 64 0 min 0,000 mm 0,0 UV-I 0 W/m 4,3 C 6,3 C 9,7 km/h (2 Bft) 100,00 %
05.03.2016 18:06 7,3 C 81 % 992,8 hPa 0,0 l/m 7,7 km/h (2 Bft) O-NO 61 0 min 0,000 mm 0,0 UV-I 0 W/m 4,3 C 6,2 C 9,7 km/h (2 Bft) 100,00 %
05.03.2016 18:07 7,3 C 81 % 992,8 hPa 0,0 l/m 8,9 km/h (2 Bft) NO 44 0 min 0,000 mm 0,0 UV-I 0 W/m 4,3 C 5,4 C 11,3 km/h (2 Bft) 100,00 %
05.03.2016 18:08 7,3 C 81 % 992,8 hPa 0,0 l/m 8,6 km/h (2 Bft) O-NO 60 0 min 0,000 mm 0,0 UV-I 0 W/m 4,3 C 5,6 C 11,3 km/h (2 Bft) 100,00 %
05.03.2016 18:09 7,3 C 81 % 992,8 hPa 0,0 l/m 6,7 km/h (2 Bft) O-NO 61 0 min 0,000 mm 0,0 UV-I 0 W/m 4,3 C 7,1 C 9,7 km/h (2 Bft) 100,00 %
05.03.2016 18:10 7,3 C 81 % 992,8 hPa 0,0 l/m 6,8 km/h (2 Bft) O-NO 66 0 min 0,000 mm 0,0 UV-I 0 W/m 4,3 C 7,0 C 11,3 km/h (2 Bft) 100,00 %
05.03.2016 18:11 7,3 C 81 % 992,8 hPa 0,0 l/m 8,1 km/h (2 Bft) O-NO 63 0 min 0,000 mm 0,0 UV-I 0 W/m 4,3 C 5,9 C 12,9 km/h (3 Bft) 100,00 %
05.03.2016 18:12 7,2 C 81 % 992,8 hPa 0,0 l/m 9,7 km/h (2 Bft) O-NO 60 0 min 0,000 mm 0,0 UV-I 0 W/m 4,2 C 4,7 C 14,5 km/h (3 Bft) 100,00 %
05.03.2016 18:13 7,2 C 81 % 992,8 hPa 0,0 l/m 9,4 km/h (2 Bft) O 86 0 min 0,000 mm 0,0 UV-I 0 W/m 4,2 C 4,9 C 12,9 km/h (3 Bft) 100,00 %
05.03.2016 18:14 7,2 C 80 % 992,8 hPa 0,0 l/m 8,7 km/h (2 Bft) O-NO 65 0 min 0,000 mm 0,0 UV-I 0 W/m 4,0 C 5,4 C 11,3 km/h (2 Bft) 100,00 %
05.03.2016 18:15 7,2 C 80 % 992,8 hPa 0,0 l/m 9,4 km/h (2 Bft) O-NO 59 0 min 0,000 mm 0,0 UV-I 0 W/m 4,0 C 4,9 C 14,5 km/h (3 Bft) 100,00 %
05.03.2016 18:16 7,2 C 80 % 992,8 hPa 0,0 l/m 9,0 km/h (2 Bft) NO 47 0 min 0,000 mm 0,0 UV-I 0 W/m 4,0 C 5,2 C 12,9 km/h (3 Bft) 100,00 %
05.03.2016 18:17 7,2 C 80 % 992,8 hPa 0,0 l/m 8,7 km/h (2 Bft) O-NO 76 0 min 0,000 mm 0,0 UV-I 0 W/m 4,0 C 5,4 C 11,3 km/h (2 Bft) 100,00 %
05.03.2016 18:18 7,2 C 80 % 992,8 hPa 0,0 l/m 8,8 km/h (2 Bft) NO 44 0 min 0,000 mm 0,0 UV-I 0 W/m 4,0 C 5,3 C 11,3 km/h (2 Bft) 100,00 %
05.03.2016 18:19 7,2 C 80 % 992,8 hPa 0,0 l/m 8,0 km/h (2 Bft) NO 54 0 min 0,000 mm 0,0 UV-I 0 W/m 4,0 C 5,9 C 11,3 km/h (2 Bft) 100,00 %
05.03.2016 18:20 7,2 C 80 % 992,8 hPa 0,0 l/m 9,4 km/h (2 Bft) O-NO 57 0 min 0,000 mm 0,0 UV-I 0 W/m 4,0 C 4,9 C 14,5 km/h (3 Bft) 100,00 %
05.03.2016 18:21 7,2 C 80 % 992,8 hPa 0,0 l/m 8,8 km/h (2 Bft) O-NO 66 0 min 0,000 mm 0,0 UV-I 0 W/m 4,0 C 5,3 C 12,9 km/h (3 Bft) 100,00 %
05.03.2016 18:22 7,2 C 80 % 992,8 hPa 0,0 l/m 10,0 km/h (2 Bft) O-NO 62 0 min 0,000 mm 0,0 UV-I 0 W/m 4,0 C 4,5 C 12,9 km/h (3 Bft) 95,65 %
05.03.2016 18:23 7,2 C 80 % 992,8 hPa 0,0 l/m 7,8 km/h (2 Bft) NO 53 0 min 0,000 mm 0,0 UV-I 0 W/m 4,0 C 6,1 C 9,7 km/h (2 Bft) 95,83 %
05.03.2016 18:24 7,2 C 80 % 992,7 hPa 0,0 l/m 7,2 km/h (2 Bft) O-NO 64 0 min 0,000 mm 0,0 UV-I 0 W/m 4,0 C 6,5 C 9,7 km/h (2 Bft) 100,00 %
05.03.2016 18:25 7,1 C 80 % 992,8 hPa 0,0 l/m 7,3 km/h (2 Bft) O-NO 67 0 min 0,000 mm 0,0 UV-I 0 W/m 3,9 C 6,4 C 9,7 km/h (2 Bft) 100,00 %
05.03.2016 18:26 7,1 C 80 % 992,7 hPa 0,0 l/m 7,1 km/h (2 Bft) O-NO 58 0 min 0,000 mm 0,0 UV-I 0 W/m 3,9 C 6,5 C 9,7 km/h (2 Bft) 100,00 %
05.03.2016 18:27 7,1 C 80 % 992,8 hPa 0,0 l/m 7,7 km/h (2 Bft) O-NO 70 0 min 0,000 mm 0,0 UV-I 0 W/m 3,9 C 6,0 C 9,7 km/h (2 Bft) 95,65 %
05.03.2016 18:28 7,1 C 80 % 992,8 hPa 0,0 l/m 6,0 km/h (2 Bft) O-NO 61 0 min 0,000 mm 0,0 UV-I 0 W/m 3,9 C 7,1 C 8,0 km/h (2 Bft) 100,00 %
05.03.2016 18:29 7,1 C 80 % 992,8 hPa 0,0 l/m 7,4 km/h (2 Bft) O-NO 66 0 min 0,000 mm 0,0 UV-I 0 W/m 3,9 C 6,3 C 11,3 km/h (2 Bft) 100,00 %
05.03.2016 18:30 7,1 C 80 % 992,8 hPa 0,0 l/m 6,1 km/h (2 Bft) O-NO 57 0 min 0,000 mm 0,0 UV-I 0 W/m 3,9 C 7,1 C 8,0 km/h (2 Bft) 100,00 %
05.03.2016 18:31 7,0 C 80 % 992,8 hPa 0,0 l/m 6,2 km/h (2 Bft) NO 50 0 min 0,000 mm 0,0 UV-I 0 W/m 3,8 C 7,0 C 8,0 km/h (2 Bft) 100,00 %
05.03.2016 18:32 7,0 C 80 % 992,8 hPa 0,0 l/m 6,4 km/h (2 Bft) NO 49 0 min 0,000 mm 0,0 UV-I 0 W/m 3,8 C 7,0 C 9,7 km/h (2 Bft) 100,00 %
05.03.2016 18:33 7,0 C 81 % 992,8 hPa 0,0 l/m 6,2 km/h (2 Bft) NO 51 0 min 0,000 mm 0,0 UV-I 0 W/m 4,0 C 7,0 C 8,0 km/h (2 Bft) 100,00 %
05.03.2016 18:34 6,9 C 81 % 992,8 hPa 0,0 l/m 7,2 km/h (2 Bft) O-NO 59 0 min 0,000 mm 0,0 UV-I 0 W/m 3,9 C 6,2 C 8,0 km/h (2 Bft) 96,30 %
05.03.2016 18:35 6,9 C 81 % 992,8 hPa 0,0 l/m 7,2 km/h (2 Bft) O-NO 60 0 min 0,000 mm 0,0 UV-I 0 W/m 3,9 C 6,2 C 9,7 km/h (2 Bft) 93,10 %
05.03.2016 18:36 6,9 C 81 % 992,8 hPa 0,0 l/m 7,5 km/h (2 Bft) NO 46 0 min 0,000 mm 0,0 UV-I 0 W/m 3,9 C 6,0 C 9,7 km/h (2 Bft) 100,00 %
05.03.2016 18:37 6,9 C 81 % 992,8 hPa 0,0 l/m 6,2 km/h (2 Bft) NO 52 0 min 0,000 mm 0,0 UV-I 0 W/m 3,9 C 6,9 C 8,0 km/h (2 Bft) 100,00 %
05.03.2016 18:38 6,9 C 81 % 992,8 hPa 0,0 l/m 6,7 km/h (2 Bft) O-NO 61 0 min 0,000 mm 0,0 UV-I 0 W/m 3,9 C 6,7 C 8,0 km/h (2 Bft) 100,00 %
05.03.2016 18:39 6,9 C 81 % 992,8 hPa 0,0 l/m 6,3 km/h (2 Bft) O-NO 61 0 min 0,000 mm 0,0 UV-I 0 W/m 3,9 C 6,9 C 8,0 km/h (2 Bft) 100,00 %
05.03.2016 18:40 6,9 C 81 % 992,8 hPa 0,0 l/m 5,0 km/h (1 Bft) NO 55 0 min 0,000 mm 0,0 UV-I 0 W/m 3,9 C 6,9 C 6,4 km/h (2 Bft) 100,00 %
05.03.2016 18:41 6,9 C 81 % 992,8 hPa 0,0 l/m 5,1 km/h (1 Bft) NO 56 0 min 0,000 mm 0,0 UV-I 0 W/m 3,9 C 6,9 C 6,4 km/h (2 Bft) 100,00 %
05.03.2016 18:42 6,8 C 81 % 992,8 hPa 0,0 l/m 4,4 km/h (1 Bft) O-NO 57 0 min 0,000 mm 0,0 UV-I 0 W/m 3,8 C 6,8 C 6,4 km/h (2 Bft) 100,00 %
05.03.2016 18:43 6,8 C 81 % 992,8 hPa 0,0 l/m 3,3 km/h (1 Bft) O-NO 57 0 min 0,000 mm 0,0 UV-I 0 W/m 3,8 C 6,8 C 4,8 km/h (1 Bft) 100,00 %
05.03.2016 18:44 6,8 C 81 % 992,8 hPa 0,0 l/m 1,6 km/h (1 Bft) O-NO 57 0 min 0,000 mm 0,0 UV-I 0 W/m 3,8 C 6,8 C 3,2 km/h (1 Bft) 100,00 %
05.03.2016 18:45 6,7 C 81 % 992,8 hPa 0,0 l/m 0,5 km/h (0 Bft) O-NO 57 0 min 0,000 mm 0,0 UV-I 0 W/m 3,7 C 6,7 C 1,6 km/h (1 Bft) 100,00 %
05.03.2016 18:46 6,7 C 82 % 992,8 hPa 0,0 l/m 2,5 km/h (1 Bft) O-NO 57 0 min 0,000 mm 0,0 UV-I 0 W/m 3,8 C 6,7 C 3,2 km/h (1 Bft) 100,00 %
05.03.2016 18:47 6,6 C 82 % 992,9 hPa 0,0 l/m 0,2 km/h (0 Bft) O-NO 57 0 min 0,000 mm 0,0 UV-I 0 W/m 3,8 C 6,6 C 1,6 km/h (1 Bft) 100,00 %
05.03.2016 18:48 6,6 C 82 % 992,9 hPa 0,0 l/m 0,3 km/h (0 Bft) O-NO 57 0 min 0,000 mm 0,0 UV-I 0 W/m 3,8 C 6,6 C 1,6 km/h (1 Bft) 100,00 %
05.03.2016 18:49 6,4 C 82 % 993,0 hPa 0,0 l/m 1,3 km/h (1 Bft) O-NO 57 0 min 0,000 mm 0,0 UV-I 0 W/m 3,6 C 6,4 C 1,6 km/h (1 Bft) 100,00 %
05.03.2016 18:50 6,3 C 83 % 993,0 hPa 0,0 l/m 1,5 km/h (1 Bft) NO 53 0 min 0,000 mm 0,0 UV-I 0 W/m 3,6 C 6,3 C 3,2 km/h (1 Bft) 96,55 %
05.03.2016 18:51 6,2 C 83 % 993,0 hPa 0,0 l/m 2,0 km/h (1 Bft) NO 42 0 min 0,000 mm 0,0 UV-I 0 W/m 3,5 C 6,2 C 3,2 km/h (1 Bft) 100,00 %
05.03.2016 18:52 6,1 C 84 % 993,0 hPa 0,0 l/m 2,2 km/h (1 Bft) N-NO 24 0 min 0,000 mm 0,0 UV-I 0 W/m 3,6 C 6,1 C 3,2 km/h (1 Bft) 100,00 %
05.03.2016 18:53 6,0 C 84 % 993,0 hPa 0,0 l/m 1,4 km/h (1 Bft) N-NO 24 0 min 0,000 mm 0,0 UV-I 0 W/m 3,5 C 6,0 C 3,2 km/h (1 Bft) 100,00 %
05.03.2016 18:54 5,9 C 85 % 993,0 hPa 0,0 l/m 1,5 km/h (1 Bft) N-NO 24 0 min 0,000 mm 0,0 UV-I 0 W/m 3,6 C 5,9 C 1,6 km/h (1 Bft) 95,65 %
05.03.2016 18:55 5,9 C 85 % 993,0 hPa 0,0 l/m 1,0 km/h (0 Bft) N-NO 24 0 min 0,000 mm 0,0 UV-I 0 W/m 3,6 C 5,9 C 1,6 km/h (1 Bft) 100,00 %
05.03.2016 18:56 5,8 C 85 % 993,0 hPa 0,0 l/m 0,5 km/h (0 Bft) N-NO 24 0 min 0,000 mm 0,0 UV-I 0 W/m 3,5 C 5,8 C 1,6 km/h (1 Bft) 96,15 %
05.03.2016 18:57 5,8 C 85 % 993,1 hPa 0,0 l/m 0,6 km/h (0 Bft) N-NO 24 0 min 0,000 mm 0,0 UV-I 0 W/m 3,5 C 5,8 C 1,6 km/h (1 Bft) 95,83 %
05.03.2016 18:58 5,8 C 85 % 993,1 hPa 0,0 l/m 1,2 km/h (1 Bft) N-NO 24 0 min 0,000 mm 0,0 UV-I 0 W/m 3,5 C 5,8 C 1,6 km/h (1 Bft) 100,00 %
05.03.2016 18:59 5,8 C 86 % 993,1 hPa 0,0 l/m 1,5 km/h (1 Bft) N-NO 24 0 min 0,000 mm 0,0 UV-I 0 W/m 3,6 C 5,8 C 1,6 km/h (1 Bft) 96,15 %
05.03.2016 19:00 5,7 C 86 % 993,2 hPa 0,0 l/m 2,0 km/h (1 Bft) N-NO 24 0 min 0,000 mm 0,0 UV-I 0 W/m 3,5 C 5,7 C 3,2 km/h (1 Bft) 100,00 %
05.03.2016 19:01 5,7 C 86 % 993,2 hPa 0,0 l/m 2,5 km/h (1 Bft) N-NO 24 0 min 0,025 mm 0,0 UV-I 0 W/m 3,5 C 5,7 C 3,2 km/h (1 Bft) 93,94 %
05.03.2016 19:02 5,7 C 86 % 993,2 hPa 0,0 l/m 3,5 km/h (1 Bft) W-SW 248 0 min 0,000 mm 0,0 UV-I 0 W/m 3,5 C 5,7 C 4,8 km/h (1 Bft) 100,00 %
05.03.2016 19:03 5,6 C 86 % 993,3 hPa 0,0 l/m 3,8 km/h (1 Bft) SW 229 0 min 0,000 mm 0,0 UV-I 0 W/m 3,4 C 5,6 C 4,8 km/h (1 Bft) 96,15 %
05.03.2016 19:04 5,6 C 86 % 993,3 hPa 0,0 l/m 3,6 km/h (1 Bft) SW 229 0 min 0,000 mm 0,0 UV-I 0 W/m 3,4 C 5,6 C 4,8 km/h (1 Bft) 95,83 %
05.03.2016 19:05 5,6 C 86 % 993,3 hPa 0,0 l/m 3,0 km/h (1 Bft) SW 229 0 min 0,000 mm 0,0 UV-I 0 W/m 3,4 C 5,6 C 3,2 km/h (1 Bft) 100,00 %
05.03.2016 19:06 5,6 C 86 % 993,3 hPa 0,0 l/m 2,6 km/h (1 Bft) SW 229 0 min 0,000 mm 0,0 UV-I 0 W/m 3,4 C 5,6 C 3,2 km/h (1 Bft) 96,30 %
05.03.2016 19:07 5,6 C 87 % 993,2 hPa 0,0 l/m 2,5 km/h (1 Bft) SW 229 0 min 0,000 mm 0,0 UV-I 0 W/m 3,6 C 5,6 C 3,2 km/h (1 Bft) 100,00 %
05.03.2016 19:08 5,6 C 87 % 993,3 hPa 0,0 l/m 1,1 km/h (1 Bft) SW 229 0 min 0,000 mm 0,0 UV-I 0 W/m 3,6 C 5,6 C 1,6 km/h (1 Bft) 95,83 %
05.03.2016 19:09 5,6 C 86 % 993,3 hPa 0,0 l/m 0,4 km/h (0 Bft) SW 229 0 min 0,000 mm 0,0 UV-I 0 W/m 3,4 C 5,6 C 1,6 km/h (1 Bft) 100,00 %
05.03.2016 19:10 5,6 C 87 % 993,3 hPa 0,0 l/m 0,5 km/h (0 Bft) SW 229 0 min 0,000 mm 0,0 UV-I 0 W/m 3,6 C 5,6 C 1,6 km/h (1 Bft) 95,83 %
05.03.2016 19:11 5,5 C 86 % 993,3 hPa 0,0 l/m 1,9 km/h (1 Bft) SW 229 0 min 0,000 mm 0,0 UV-I 0 W/m 3,3 C 5,5 C 3,2 km/h (1 Bft) 100,00 %
05.03.2016 19:12 5,4 C 86 % 993,4 hPa 0,0 l/m 1,5 km/h (1 Bft) SW 229 0 min 0,000 mm 0,0 UV-I 0 W/m 3,3 C 5,4 C 1,6 km/h (1 Bft) 96,30 %
05.03.2016 19:13 5,4 C 87 % 993,4 hPa 0,0 l/m 0,1 km/h (0 Bft) SW 229 0 min 0,000 mm 0,0 UV-I 0 W/m 3,4 C 5,4 C 1,6 km/h (1 Bft) 95,65 %
05.03.2016 19:14 5,3 C 87 % 993,4 hPa 0,0 l/m 0,1 km/h (0 Bft) SW 229 0 min 0,000 mm 0,0 UV-I 0 W/m 3,3 C 5,3 C 1,6 km/h (1 Bft) 100,00 %
05.03.2016 19:15 5,3 C 87 % 993,4 hPa 0,0 l/m 0,4 km/h (0 Bft) SW 229 0 min 0,000 mm 0,0 UV-I 0 W/m 3,3 C 5,3 C 1,6 km/h (1 Bft) 91,30 %
05.03.2016 19:16 5,2 C 88 % 993,5 hPa 0,0 l/m 0,0 km/h (0 Bft) SW 229 0 min 0,000 mm 0,0 UV-I 0 W/m 3,4 C 5,2 C 0,0 km/h (0 Bft) 100,00 %
05.03.2016 19:17 5,2 C 88 % 993,5 hPa 0,0 l/m 0,4 km/h (0 Bft) SW 229 0 min 0,000 mm 0,0 UV-I 0 W/m 3,4 C 5,2 C 1,6 km/h (1 Bft) 96,15 %
05.03.2016 19:18 5,2 C 88 % 993,5 hPa 0,0 l/m 3,2 km/h (1 Bft) SW 229 0 min 0,000 mm 0,0 UV-I 0 W/m 3,4 C 5,2 C 4,8 km/h (1 Bft) 100,00 %
05.03.2016 19:19 5,2 C 88 % 993,6 hPa 0,0 l/m 6,2 km/h (2 Bft) W-SW 246 0 min 0,000 mm 0,0 UV-I 0 W/m 3,4 C 5,2 C 8,0 km/h (2 Bft) 94,44 %
05.03.2016 19:20 5,2 C 88 % 993,6 hPa 0,0 l/m 3,3 km/h (1 Bft) W-SW 246 0 min 0,000 mm 0,0 UV-I 0 W/m 3,4 C 5,2 C 4,8 km/h (1 Bft) 100,00 %
05.03.2016 19:21 5,2 C 88 % 993,6 hPa 0,0 l/m 3,6 km/h (1 Bft) SW 229 0 min 0,000 mm 0,0 UV-I 0 W/m 3,4 C 5,2 C 6,4 km/h (2 Bft) 95,83 %
05.03.2016 19:22 5,2 C 88 % 993,6 hPa 0,0 l/m 7,5 km/h (2 Bft) SW 215 0 min 0,000 mm 0,0 UV-I 0 W/m 3,4 C 4,2 C 9,7 km/h (2 Bft) 96,15 %
05.03.2016 19:23 5,1 C 88 % 993,7 hPa 0,0 l/m 7,2 km/h (2 Bft) SW 231 0 min 0,000 mm 0,0 UV-I 0 W/m 3,3 C 4,4 C 9,7 km/h (2 Bft) 100,00 %
05.03.2016 19:24 5,1 C 88 % 993,7 hPa 0,0 l/m 7,0 km/h (2 Bft) W-SW 242 0 min 0,000 mm 0,0 UV-I 0 W/m 3,3 C 4,6 C 11,3 km/h (2 Bft) 96,15 %
05.03.2016 19:25 5,1 C 88 % 993,7 hPa 0,0 l/m 8,4 km/h (2 Bft) W-SW 252 0 min 0,000 mm 0,0 UV-I 0 W/m 3,3 C 3,4 C 12,9 km/h (3 Bft) 100,00 %
05.03.2016 19:26 5,1 C 89 % 993,7 hPa 0,0 l/m 6,9 km/h (2 Bft) SW 224 0 min 0,000 mm 0,0 UV-I 0 W/m 3,4 C 4,7 C 11,3 km/h (2 Bft) 95,65 %
05.03.2016 19:27 5,1 C 89 % 993,7 hPa 0,0 l/m 7,9 km/h (2 Bft) W-SW 257 0 min 0,000 mm 0,0 UV-I 0 W/m 3,4 C 3,8 C 11,3 km/h (2 Bft) 96,15 %
05.03.2016 19:28 5,1 C 89 % 993,7 hPa 0,0 l/m 9,8 km/h (2 Bft) W-SW 250 0 min 0,000 mm 0,0 UV-I 0 W/m 3,4 C 2,3 C 11,3 km/h (2 Bft) 91,67 %
05.03.2016 19:29 5,2 C 88 % 993,7 hPa 0,0 l/m 7,5 km/h (2 Bft) SW 226 0 min 0,000 mm 0,0 UV-I 0 W/m 3,4 C 4,2 C 9,7 km/h (2 Bft) 100,00 %
05.03.2016 19:30 5,2 C 88 % 993,7 hPa 0,0 l/m 12,8 km/h (3 Bft) SW 236 0 min 0,000 mm 0,0 UV-I 0 W/m 3,4 C 0,5 C 17,7 km/h (3 Bft) 100,00 %
05.03.2016 19:31 5,3 C 88 % 993,8 hPa 0,0 l/m 12,5 km/h (3 Bft) W-SW 253 0 min 0,000 mm 0,0 UV-I 0 W/m 3,5 C 0,8 C 16,1 km/h (3 Bft) 100,00 %
05.03.2016 19:32 5,3 C 88 % 993,8 hPa 0,0 l/m 11,0 km/h (2 Bft) W-SW 257 0 min 0,000 mm 0,0 UV-I 0 W/m 3,5 C 1,7 C 12,9 km/h (3 Bft) 100,00 %
05.03.2016 19:33 5,4 C 88 % 993,8 hPa 0,0 l/m 9,2 km/h (2 Bft) W-SW 250 0 min 0,000 mm 0,0 UV-I 0 W/m 3,6 C 3,1 C 14,5 km/h (3 Bft) 100,00 %
05.03.2016 19:34 5,4 C 88 % 993,8 hPa 0,0 l/m 8,9 km/h (2 Bft) W-NW 282 0 min 0,000 mm 0,0 UV-I 0 W/m 3,6 C 3,3 C 12,9 km/h (3 Bft) 90,91 %
05.03.2016 19:35 5,5 C 87 % 993,8 hPa 0,0 l/m 7,7 km/h (2 Bft) W-SW 239 0 min 0,000 mm 0,0 UV-I 0 W/m 3,5 C 4,4 C 12,9 km/h (3 Bft) 100,00 %
05.03.2016 19:36 5,6 C 87 % 993,8 hPa 0,0 l/m 8,8 km/h (2 Bft) W 264 0 min 0,000 mm 0,0 UV-I 0 W/m 3,6 C 3,6 C 14,5 km/h (3 Bft) 100,00 %
05.03.2016 19:37 5,6 C 87 % 993,8 hPa 0,0 l/m 8,0 km/h (2 Bft) W-SW 250 0 min 0,000 mm 0,0 UV-I 0 W/m 3,6 C 4,2 C 11,3 km/h (2 Bft) 96,30 %
05.03.2016 19:38 5,6 C 86 % 993,9 hPa 0,0 l/m 8,2 km/h (2 Bft) W-NW 287 0 min 0,000 mm 0,0 UV-I 0 W/m 3,4 C 4,1 C 11,3 km/h (2 Bft) 100,00 %
05.03.2016 19:39 5,7 C 86 % 993,9 hPa 0,0 l/m 7,3 km/h (2 Bft) W 272 0 min 0,000 mm 0,0 UV-I 0 W/m 3,5 C 4,9 C 11,3 km/h (2 Bft) 100,00 %
05.03.2016 19:40 5,7 C 86 % 993,9 hPa 0,0 l/m 6,7 km/h (2 Bft) W 281 0 min 0,000 mm 0,0 UV-I 0 W/m 3,5 C 5,5 C 12,9 km/h (3 Bft) 100,00 %
05.03.2016 19:41 5,7 C 86 % 993,9 hPa 0,0 l/m 7,3 km/h (2 Bft) W 275 0 min 0,000 mm 0,0 UV-I 0 W/m 3,5 C 4,9 C 9,7 km/h (2 Bft) 100,00 %
05.03.2016 19:42 5,7 C 86 % 994,0 hPa 0,0 l/m 8,0 km/h (2 Bft) W-SW 252 0 min 0,000 mm 0,0 UV-I 0 W/m 3,5 C 4,3 C 11,3 km/h (2 Bft) 100,00 %
05.03.2016 19:43 5,7 C 86 % 994,1 hPa 0,0 l/m 8,8 km/h (2 Bft) W 263 0 min 0,000 mm 0,0 UV-I 0 W/m 3,5 C 3,7 C 11,3 km/h (2 Bft) 100,00 %
05.03.2016 19:44 5,7 C 86 % 994,1 hPa 0,0 l/m 6,4 km/h (2 Bft) W 270 0 min 0,000 mm 0,0 UV-I 0 W/m 3,5 C 5,7 C 9,7 km/h (2 Bft) 100,00 %
05.03.2016 19:45 5,8 C 85 % 994,1 hPa 0,0 l/m 6,0 km/h (2 Bft) W 261 0 min 0,000 mm 0,0 UV-I 0 W/m 3,5 C 5,8 C 9,7 km/h (2 Bft) 100,00 %
05.03.2016 19:46 5,8 C 85 % 994,1 hPa 0,0 l/m 8,8 km/h (2 Bft) W-SW 250 0 min 0,000 mm 0,0 UV-I 0 W/m 3,5 C 3,8 C 11,3 km/h (2 Bft) 100,00 %
05.03.2016 19:47 5,8 C 85 % 994,2 hPa 0,0 l/m 10,0 km/h (2 Bft) W 264 0 min 0,000 mm 0,0 UV-I 0 W/m 3,5 C 3,0 C 12,9 km/h (3 Bft) 100,00 %
05.03.2016 19:48 5,8 C 85 % 994,2 hPa 0,0 l/m 11,4 km/h (2 Bft) W-SW 252 0 min 0,000 mm 0,0 UV-I 0 W/m 3,5 C 2,0 C 16,1 km/h (3 Bft) 100,00 %
05.03.2016 19:49 5,8 C 85 % 994,2 hPa 0,0 l/m 9,4 km/h (2 Bft) W 271 0 min 0,000 mm 0,0 UV-I 0 W/m 3,5 C 3,4 C 12,9 km/h (3 Bft) 100,00 %
05.03.2016 19:50 5,8 C 85 % 994,2 hPa 0,0 l/m 8,1 km/h (2 Bft) W 263 0 min 0,000 mm 0,0 UV-I 0 W/m 3,5 C 4,4 C 12,9 km/h (3 Bft) 100,00 %
05.03.2016 19:51 5,8 C 85 % 994,2 hPa 0,0 l/m 11,6 km/h (2 Bft) W-SW 254 0 min 0,000 mm 0,0 UV-I 0 W/m 3,5 C 1,9 C 16,1 km/h (3 Bft) 100,00 %
05.03.2016 19:52 5,8 C 85 % 994,2 hPa 0,0 l/m 10,3 km/h (2 Bft) W-SW 241 0 min 0,000 mm 0,0 UV-I 0 W/m 3,5 C 2,8 C 17,7 km/h (3 Bft) 95,83 %
05.03.2016 19:53 5,8 C 85 % 994,2 hPa 0,0 l/m 10,9 km/h (2 Bft) W 271 0 min 0,000 mm 0,0 UV-I 0 W/m 3,5 C 2,4 C 12,9 km/h (3 Bft) 100,00 %
05.03.2016 19:54 5,8 C 85 % 994,2 hPa 0,0 l/m 11,6 km/h (2 Bft) W 261 0 min 0,000 mm 0,0 UV-I 0 W/m 3,5 C 1,9 C 16,1 km/h (3 Bft) 100,00 %
05.03.2016 19:55 5,8 C 85 % 994,2 hPa 0,0 l/m 13,4 km/h (3 Bft) W-SW 250 0 min 0,000 mm 0,0 UV-I 0 W/m 3,5 C 0,9 C 17,7 km/h (3 Bft) 100,00 %
05.03.2016 19:56 5,8 C 84 % 994,1 hPa 0,0 l/m 10,7 km/h (2 Bft) W-SW 247 0 min 0,000 mm 0,0 UV-I 0 W/m 3,3 C 2,5 C 14,5 km/h (3 Bft) 100,00 %
05.03.2016 19:57 5,8 C 84 % 994,2 hPa 0,0 l/m 11,6 km/h (2 Bft) W 261 0 min 0,000 mm 0,0 UV-I 0 W/m 3,3 C 1,9 C 14,5 km/h (3 Bft) 100,00 %
05.03.2016 19:58 5,9 C 84 % 994,2 hPa 0,0 l/m 10,1 km/h (2 Bft) W 262 0 min 0,000 mm 0,0 UV-I 0 W/m 3,4 C 3,0 C 16,1 km/h (3 Bft) 100,00 %
05.03.2016 20:01 5,9 C 84 % 994,2 hPa 0,0 l/m 8,0 km/h (2 Bft) W-SW 252 0 min 0,000 mm 0,0 UV-I 0 W/m 3,4 C 4,5 C 11,3 km/h (2 Bft) 100,00 %
05.03.2016 20:02 5,9 C 84 % 994,2 hPa 0,0 l/m 6,9 km/h (2 Bft) SW 234 0 min 0,000 mm 0,0 UV-I 0 W/m 3,4 C 5,5 C 9,7 km/h (2 Bft) 100,00 %
05.03.2016 20:03 5,8 C 84 % 994,2 hPa 0,0 l/m 10,0 km/h (2 Bft) W-SW 245 0 min 0,000 mm 0,0 UV-I 0 W/m 3,3 C 3,0 C 14,5 km/h (3 Bft) 100,00 %
05.03.2016 20:04 5,8 C 84 % 994,2 hPa 0,0 l/m 9,2 km/h (2 Bft) W-SW 253 0 min 0,000 mm 0,0 UV-I 0 W/m 3,3 C 3,5 C 12,9 km/h (3 Bft) 100,00 %
05.03.2016 20:05 5,8 C 84 % 994,2 hPa 0,0 l/m 12,5 km/h (3 Bft) W-SW 241 0 min 0,000 mm 0,0 UV-I 0 W/m 3,3 C 1,4 C 19,3 km/h (3 Bft) 100,00 %
05.03.2016 20:06 5,8 C 83 % 994,2 hPa 0,0 l/m 14,7 km/h (3 Bft) W-SW 250 0 min 0,000 mm 0,0 UV-I 0 W/m 3,1 C 0,2 C 17,7 km/h (3 Bft) 96,15 %
05.03.2016 20:07 5,8 C 83 % 994,2 hPa 0,0 l/m 9,2 km/h (2 Bft) W-SW 256 0 min 0,000 mm 0,0 UV-I 0 W/m 3,1 C 3,5 C 12,9 km/h (3 Bft) 100,00 %
05.03.2016 20:08 5,9 C 83 % 994,2 hPa 0,0 l/m 11,1 km/h (2 Bft) W-SW 258 0 min 0,000 mm 0,0 UV-I 0 W/m 3,2 C 2,3 C 14,5 km/h (3 Bft) 100,00 %
05.03.2016 20:09 5,9 C 83 % 994,2 hPa 0,0 l/m 13,1 km/h (3 Bft) W-NW 287 0 min 0,000 mm 0,0 UV-I 0 W/m 3,2 C 1,2 C 16,1 km/h (3 Bft) 100,00 %
05.03.2016 20:10 5,9 C 83 % 994,2 hPa 0,0 l/m 11,6 km/h (2 Bft) W 265 0 min 0,000 mm 0,0 UV-I 0 W/m 3,2 C 2,0 C 14,5 km/h (3 Bft) 100,00 %
05.03.2016 20:11 5,9 C 83 % 994,2 hPa 0,0 l/m 10,0 km/h (2 Bft) W 279 0 min 0,000 mm 0,0 UV-I 0 W/m 3,2 C 3,1 C 14,5 km/h (3 Bft) 100,00 %
05.03.2016 20:12 5,9 C 83 % 994,2 hPa 0,0 l/m 9,5 km/h (2 Bft) W-SW 248 0 min 0,000 mm 0,0 UV-I 0 W/m 3,2 C 3,4 C 12,9 km/h (3 Bft) 100,00 %
05.03.2016 20:13 5,9 C 82 % 994,1 hPa 0,0 l/m 9,4 km/h (2 Bft) W 260 0 min 0,000 mm 0,0 UV-I 0 W/m 3,1 C 3,5 C 11,3 km/h (2 Bft) 100,00 %
05.03.2016 20:14 5,9 C 82 % 994,2 hPa 0,0 l/m 10,7 km/h (2 Bft) W-SW 256 0 min 0,000 mm 0,0 UV-I 0 W/m 3,1 C 2,6 C 12,9 km/h (3 Bft) 100,00 %
05.03.2016 20:15 5,9 C 82 % 994,2 hPa 0,0 l/m 11,7 km/h (2 Bft) W-SW 252 0 min 0,000 mm 0,0 UV-I 0 W/m 3,1 C 2,0 C 16,1 km/h (3 Bft) 100,00 %
05.03.2016 20:16 5,9 C 82 % 994,1 hPa 0,0 l/m 11,2 km/h (2 Bft) W 279 0 min 0,000 mm 0,0 UV-I 0 W/m 3,1 C 2,3 C 14,5 km/h (3 Bft) 100,00 %
05.03.2016 20:17 5,9 C 82 % 994,1 hPa 0,0 l/m 5,6 km/h (1 Bft) W-SW 252 0 min 0,000 mm 0,0 UV-I 0 W/m 3,1 C 5,9 C 8,0 km/h (2 Bft) 100,00 %
05.03.2016 20:18 5,9 C 82 % 994,1 hPa 0,0 l/m 7,0 km/h (2 Bft) W 268 0 min 0,000 mm 0,0 UV-I 0 W/m 3,1 C 5,4 C 11,3 km/h (2 Bft) 100,00 %
05.03.2016 20:19 5,9 C 82 % 994,2 hPa 0,0 l/m 7,6 km/h (2 Bft) W 273 0 min 0,000 mm 0,0 UV-I 0 W/m 3,1 C 4,9 C 11,3 km/h (2 Bft) 100,00 %
05.03.2016 20:20 5,9 C 82 % 994,1 hPa 0,0 l/m 7,0 km/h (2 Bft) W-SW 248 0 min 0,000 mm 0,0 UV-I 0 W/m 3,1 C 5,4 C 9,7 km/h (2 Bft) 100,00 %
05.03.2016 20:21 5,8 C 82 % 994,1 hPa 0,0 l/m 5,6 km/h (1 Bft) W-SW 257 0 min 0,000 mm 0,0 UV-I 0 W/m 3,0 C 5,8 C 9,7 km/h (2 Bft) 100,00 %
05.03.2016 20:22 5,8 C 82 % 994,1 hPa 0,0 l/m 7,3 km/h (2 Bft) W 259 0 min 0,000 mm 0,0 UV-I 0 W/m 3,0 C 5,0 C 11,3 km/h (2 Bft) 100,00 %
05.03.2016 20:23 5,8 C 82 % 994,1 hPa 0,0 l/m 11,7 km/h (2 Bft) W-SW 246 0 min 0,000 mm 0,0 UV-I 0 W/m 3,0 C 1,9 C 14,5 km/h (3 Bft) 100,00 %
05.03.2016 20:24 5,8 C 82 % 994,2 hPa 0,0 l/m 9,0 km/h (2 Bft) W 273 0 min 0,000 mm 0,0 UV-I 0 W/m 3,0 C 3,7 C 12,9 km/h (3 Bft) 95,83 %
05.03.2016 20:25 5,8 C 82 % 994,1 hPa 0,0 l/m 10,7 km/h (2 Bft) W-SW 242 0 min 0,000 mm 0,0 UV-I 0 W/m 3,0 C 2,5 C 14,5 km/h (3 Bft) 100,00 %
05.03.2016 20:26 5,8 C 82 % 994,2 hPa 0,0 l/m 10,5 km/h (2 Bft) W 269 0 min 0,000 mm 0,0 UV-I 0 W/m 3,0 C 2,6 C 14,5 km/h (3 Bft) 100,00 %
05.03.2016 20:27 5,8 C 82 % 994,2 hPa 0,0 l/m 4,9 km/h (1 Bft) W-NW 288 0 min 0,000 mm 0,0 UV-I 0 W/m 3,0 C 5,8 C 6,4 km/h (2 Bft) 100,00 %
05.03.2016 20:28 5,8 C 82 % 994,1 hPa 0,0 l/m 5,6 km/h (1 Bft) W-SW 245 0 min 0,000 mm 0,0 UV-I 0 W/m 3,0 C 5,8 C 8,0 km/h (2 Bft) 93,33 %
05.03.2016 20:29 5,8 C 82 % 994,1 hPa 0,0 l/m 12,5 km/h (3 Bft) W 267 0 min 0,000 mm 0,0 UV-I 0 W/m 3,0 C 1,4 C 14,5 km/h (3 Bft) 100,00 %
05.03.2016 20:30 5,8 C 82 % 994,2 hPa 0,0 l/m 12,2 km/h (2 Bft) W-SW 251 0 min 0,000 mm 0,0 UV-I 0 W/m 3,0 C 1,6 C 16,1 km/h (3 Bft) 100,00 %
05.03.2016 20:31 5,8 C 82 % 994,3 hPa 0,0 l/m 10,5 km/h (2 Bft) W-SW 248 0 min 0,000 mm 0,0 UV-I 0 W/m 3,0 C 2,6 C 12,9 km/h (3 Bft) 100,00 %
05.03.2016 20:32 5,8 C 82 % 994,3 hPa 0,0 l/m 8,5 km/h (2 Bft) W-SW 248 0 min 0,000 mm 0,0 UV-I 0 W/m 3,0 C 4,0 C 12,9 km/h (3 Bft) 100,00 %
05.03.2016 20:33 5,8 C 82 % 994,4 hPa 0,0 l/m 9,5 km/h (2 Bft) W-SW 256 0 min 0,000 mm 0,0 UV-I 0 W/m 3,0 C 3,3 C 12,9 km/h (3 Bft) 90,91 %
05.03.2016 20:34 5,8 C 82 % 994,4 hPa 0,0 l/m 8,2 km/h (2 Bft) W-SW 254 0 min 0,000 mm 0,0 UV-I 0 W/m 3,0 C 4,3 C 11,3 km/h (2 Bft) 100,00 %
05.03.2016 20:35 5,8 C 82 % 994,5 hPa 0,0 l/m 10,0 km/h (2 Bft) W 273 0 min 0,000 mm 0,0 UV-I 0 W/m 3,0 C 3,0 C 14,5 km/h (3 Bft) 100,00 %
05.03.2016 20:36 5,8 C 82 % 994,5 hPa 0,0 l/m 9,2 km/h (2 Bft) W-SW 243 0 min 0,000 mm 0,0 UV-I 0 W/m 3,0 C 3,5 C 12,9 km/h (3 Bft) 100,00 %
05.03.2016 20:37 5,8 C 82 % 994,6 hPa 0,0 l/m 10,6 km/h (2 Bft) W 263 0 min 0,000 mm 0,0 UV-I 0 W/m 3,0 C 2,6 C 16,1 km/h (3 Bft) 100,00 %
05.03.2016 20:38 5,8 C 82 % 994,6 hPa 0,0 l/m 9,0 km/h (2 Bft) W-SW 252 0 min 0,000 mm 0,0 UV-I 0 W/m 3,0 C 3,7 C 11,3 km/h (2 Bft) 100,00 %
05.03.2016 20:39 5,8 C 82 % 994,6 hPa 0,0 l/m 9,2 km/h (2 Bft) W-SW 255 0 min 0,000 mm 0,0 UV-I 0 W/m 3,0 C 3,5 C 12,9 km/h (3 Bft) 100,00 %
05.03.2016 20:40 5,7 C 82 % 994,6 hPa 0,0 l/m 9,8 km/h (2 Bft) SW 221 0 min 0,000 mm 0,0 UV-I 0 W/m 2,9 C 3,0 C 12,9 km/h (3 Bft) 100,00 %
05.03.2016 20:41 5,7 C 82 % 994,7 hPa 0,0 l/m 7,2 km/h (2 Bft) W-SW 253 0 min 0,000 mm 0,0 UV-I 0 W/m 2,9 C 5,0 C 12,9 km/h (3 Bft) 100,00 %
05.03.2016 20:42 5,7 C 83 % 994,7 hPa 0,0 l/m 9,3 km/h (2 Bft) W-SW 254 0 min 0,000 mm 0,0 UV-I 0 W/m 3,0 C 3,3 C 12,9 km/h (3 Bft) 100,00 %
05.03.2016 20:43 5,7 C 83 % 994,7 hPa 0,0 l/m 10,7 km/h (2 Bft) W-SW 249 0 min 0,000 mm 0,0 UV-I 0 W/m 3,0 C 2,4 C 14,5 km/h (3 Bft) 100,00 %
05.03.2016 20:44 5,7 C 83 % 994,7 hPa 0,0 l/m 10,9 km/h (2 Bft) W-SW 249 0 min 0,000 mm 0,0 UV-I 0 W/m 3,0 C 2,2 C 14,5 km/h (3 Bft) 100,00 %
05.03.2016 20:45 5,7 C 83 % 994,8 hPa 0,0 l/m 11,2 km/h (2 Bft) W-SW 246 0 min 0,000 mm 0,0 UV-I 0 W/m 3,0 C 2,1 C 16,1 km/h (3 Bft) 100,00 %
05.03.2016 20:46 5,7 C 83 % 994,8 hPa 0,0 l/m 11,6 km/h (2 Bft) W-SW 239 0 min 0,000 mm 0,0 UV-I 0 W/m 3,0 C 1,8 C 16,1 km/h (3 Bft) 100,00 %
05.03.2016 20:47 5,7 C 83 % 994,8 hPa 0,0 l/m 10,4 km/h (2 Bft) SW 236 0 min 0,000 mm 0,0 UV-I 0 W/m 3,0 C 2,6 C 16,1 km/h (3 Bft) 100,00 %
05.03.2016 20:48 5,7 C 83 % 994,8 hPa 0,0 l/m 13,6 km/h (3 Bft) W-SW 254 0 min 0,000 mm 0,0 UV-I 0 W/m 3,0 C 0,7 C 19,3 km/h (3 Bft) 100,00 %
05.03.2016 20:49 5,7 C 83 % 994,8 hPa 0,0 l/m 11,0 km/h (2 Bft) W-SW 256 0 min 0,000 mm 0,0 UV-I 0 W/m 3,0 C 2,2 C 12,9 km/h (3 Bft) 96,30 %
05.03.2016 20:50 5,7 C 83 % 994,8 hPa 0,0 l/m 10,5 km/h (2 Bft) W-SW 247 0 min 0,000 mm 0,0 UV-I 0 W/m 3,0 C 2,5 C 12,9 km/h (3 Bft) 100,00 %
05.03.2016 20:51 5,7 C 83 % 994,7 hPa 0,0 l/m 11,4 km/h (2 Bft) W-SW 246 0 min 0,000 mm 0,0 UV-I 0 W/m 3,0 C 1,9 C 14,5 km/h (3 Bft) 100,00 %
05.03.2016 20:52 5,7 C 83 % 994,6 hPa 0,0 l/m 11,9 km/h (2 Bft) W 264 0 min 0,000 mm 0,0 UV-I 0 W/m 3,0 C 1,6 C 17,7 km/h (3 Bft) 100,00 %
05.03.2016 20:53 5,7 C 83 % 994,5 hPa 0,0 l/m 13,1 km/h (3 Bft) W-SW 256 0 min 0,000 mm 0,0 UV-I 0 W/m 3,0 C 0,9 C 17,7 km/h (3 Bft) 100,00 %
05.03.2016 20:54 5,7 C 83 % 994,5 hPa 0,0 l/m 13,3 km/h (3 Bft) W-SW 245 0 min 0,000 mm 0,0 UV-I 0 W/m 3,0 C 0,8 C 19,3 km/h (3 Bft) 96,15 %
05.03.2016 20:55 5,7 C 83 % 994,5 hPa 0,0 l/m 10,4 km/h (2 Bft) SW 229 0 min 0,000 mm 0,0 UV-I 0 W/m 3,0 C 2,6 C 16,1 km/h (3 Bft) 100,00 %
05.03.2016 20:56 5,7 C 83 % 994,5 hPa 0,0 l/m 8,6 km/h (2 Bft) W 273 0 min 0,000 mm 0,0 UV-I 0 W/m 3,0 C 3,9 C 11,3 km/h (2 Bft) 100,00 %
05.03.2016 20:57 5,7 C 83 % 994,5 hPa 0,0 l/m 10,9 km/h (2 Bft) W-SW 258 0 min 0,000 mm 0,0 UV-I 0 W/m 3,0 C 2,2 C 14,5 km/h (3 Bft) 96,67 %
05.03.2016 20:58 5,6 C 83 % 994,5 hPa 0,0 l/m 9,9 km/h (2 Bft) W-SW 250 0 min 0,000 mm 0,0 UV-I 0 W/m 2,9 C 2,8 C 16,1 km/h (3 Bft) 100,00 %
05.03.2016 20:59 5,6 C 83 % 994,6 hPa 0,0 l/m 7,4 km/h (2 Bft) W-SW 250 0 min 0,000 mm 0,0 UV-I 0 W/m 2,9 C 4,7 C 12,9 km/h (3 Bft) 96,15 %
05.03.2016 21:00 5,6 C 83 % 994,6 hPa 0,0 l/m 8,6 km/h (2 Bft) SW 224 0 min 0,000 mm 0,0 UV-I 0 W/m 2,9 C 3,8 C 12,9 km/h (3 Bft) 100,00 %
05.03.2016 21:01 5,6 C 83 % 994,5 hPa 0,0 l/m 13,3 km/h (3 Bft) W-SW 253 0 min 0,026 mm 0,0 UV-I 0 W/m 2,9 C 0,7 C 17,7 km/h (3 Bft) 93,33 %
05.03.2016 21:02 5,6 C 83 % 994,7 hPa 0,0 l/m 10,1 km/h (2 Bft) SW 232 0 min 0,000 mm 0,0 UV-I 0 W/m 2,9 C 2,7 C 14,5 km/h (3 Bft) 100,00 %
05.03.2016 21:03 5,6 C 83 % 994,8 hPa 0,0 l/m 10,3 km/h (2 Bft) W-SW 248 0 min 0,000 mm 0,0 UV-I 0 W/m 2,9 C 2,5 C 14,5 km/h (3 Bft) 95,65 %
05.03.2016 21:04 5,6 C 83 % 994,8 hPa 0,0 l/m 9,3 km/h (2 Bft) W-SW 255 0 min 0,000 mm 0,0 UV-I 0 W/m 2,9 C 3,2 C 12,9 km/h (3 Bft) 93,10 %
05.03.2016 21:05 5,6 C 83 % 994,7 hPa 0,0 l/m 12,7 km/h (3 Bft) W 269 0 min 0,000 mm 0,0 UV-I 0 W/m 2,9 C 1,0 C 17,7 km/h (3 Bft) 100,00 %
05.03.2016 21:06 5,6 C 83 % 994,7 hPa 0,0 l/m 11,2 km/h (2 Bft) W-SW 250 0 min 0,000 mm 0,0 UV-I 0 W/m 2,9 C 1,9 C 12,9 km/h (3 Bft) 96,97 %
05.03.2016 21:07 5,6 C 83 % 994,6 hPa 0,0 l/m 12,2 km/h (2 Bft) W-SW 246 0 min 0,000 mm 0,0 UV-I 0 W/m 2,9 C 1,3 C 19,3 km/h (3 Bft) 100,00 %
05.03.2016 21:08 5,6 C 83 % 994,7 hPa 0,0 l/m 10,9 km/h (2 Bft) W 263 0 min 0,000 mm 0,0 UV-I 0 W/m 2,9 C 2,1 C 14,5 km/h (3 Bft) 96,30 %
05.03.2016 21:09 5,6 C 83 % 994,8 hPa 0,0 l/m 12,0 km/h (2 Bft) W-SW 253 0 min 0,000 mm 0,0 UV-I 0 W/m 2,9 C 1,4 C 17,7 km/h (3 Bft) 100,00 %
05.03.2016 21:10 5,6 C 83 % 994,8 hPa 0,0 l/m 12,7 km/h (3 Bft) W-SW 248 0 min 0,000 mm 0,0 UV-I 0 W/m 2,9 C 1,0 C 16,1 km/h (3 Bft) 95,83 %
05.03.2016 21:11 5,5 C 83 % 994,8 hPa 0,0 l/m 13,5 km/h (3 Bft) W-SW 243 0 min 0,000 mm 0,0 UV-I 0 W/m 2,8 C 0,5 C 17,7 km/h (3 Bft) 100,00 %
05.03.2016 21:12 5,6 C 83 % 994,8 hPa 0,0 l/m 12,8 km/h (3 Bft) W-SW 246 0 min 0,000 mm 0,0 UV-I 0 W/m 2,9 C 1,0 C 17,7 km/h (3 Bft) 95,83 %
05.03.2016 21:13 5,5 C 82 % 994,8 hPa 0,0 l/m 8,3 km/h (2 Bft) W 278 0 min 0,000 mm 0,0 UV-I 0 W/m 2,7 C 3,9 C 11,3 km/h (2 Bft) 96,55 %
05.03.2016 21:14 5,6 C 83 % 994,6 hPa 0,0 l/m 12,5 km/h (3 Bft) W-SW 252 0 min 0,000 mm 0,0 UV-I 0 W/m 2,9 C 1,2 C 16,1 km/h (3 Bft) 100,00 %
05.03.2016 21:15 5,5 C 83 % 994,7 hPa 0,0 l/m 13,4 km/h (3 Bft) W-SW 248 0 min 0,000 mm 0,0 UV-I 0 W/m 2,8 C 0,5 C 16,1 km/h (3 Bft) 92,86 %
05.03.2016 21:16 5,5 C 83 % 994,7 hPa 0,0 l/m 12,5 km/h (3 Bft) SW 236 0 min 0,000 mm 0,0 UV-I 0 W/m 2,8 C 1,0 C 14,5 km/h (3 Bft) 100,00 %
05.03.2016 21:17 5,6 C 82 % 994,8 hPa 0,0 l/m 11,2 km/h (2 Bft) W-SW 250 0 min 0,000 mm 0,0 UV-I 0 W/m 2,8 C 1,9 C 14,5 km/h (3 Bft) 96,15 %
05.03.2016 21:18 5,5 C 83 % 994,9 hPa 0,0 l/m 10,3 km/h (2 Bft) W 259 0 min 0,000 mm 0,0 UV-I 0 W/m 2,8 C 2,4 C 14,5 km/h (3 Bft) 100,00 %
05.03.2016 21:19 5,5 C 83 % 994,9 hPa 0,0 l/m 8,6 km/h (2 Bft) W-SW 246 0 min 0,000 mm 0,0 UV-I 0 W/m 2,8 C 3,7 C 11,3 km/h (2 Bft) 93,33 %
05.03.2016 21:20 5,5 C 83 % 994,9 hPa 0,0 l/m 11,3 km/h (2 Bft) W-SW 246 0 min 0,000 mm 0,0 UV-I 0 W/m 2,8 C 1,8 C 14,5 km/h (3 Bft) 100,00 %
05.03.2016 21:21 5,5 C 83 % 995,0 hPa 0,0 l/m 11,0 km/h (2 Bft) W 266 0 min 0,000 mm 0,0 UV-I 0 W/m 2,8 C 2,0 C 16,1 km/h (3 Bft) 95,83 %
05.03.2016 21:22 5,5 C 82 % 994,9 hPa 0,0 l/m 10,1 km/h (2 Bft) W-SW 241 0 min 0,000 mm 0,0 UV-I 0 W/m 2,7 C 2,6 C 12,9 km/h (3 Bft) 96,15 %
05.03.2016 21:23 5,5 C 82 % 995,0 hPa 0,0 l/m 7,6 km/h (2 Bft) W-SW 237 0 min 0,000 mm 0,0 UV-I 0 W/m 2,7 C 4,5 C 16,1 km/h (3 Bft) 100,00 %
05.03.2016 21:24 5,5 C 82 % 995,0 hPa 0,0 l/m 9,4 km/h (2 Bft) W 260 0 min 0,000 mm 0,0 UV-I 0 W/m 2,7 C 3,1 C 14,5 km/h (3 Bft) 96,15 %
05.03.2016 21:25 5,5 C 82 % 995,1 hPa 0,0 l/m 10,9 km/h (2 Bft) W-SW 255 0 min 0,000 mm 0,0 UV-I 0 W/m 2,7 C 2,0 C 14,5 km/h (3 Bft) 100,00 %
05.03.2016 21:26 5,5 C 82 % 995,0 hPa 0,0 l/m 9,6 km/h (2 Bft) W-SW 246 0 min 0,000 mm 0,0 UV-I 0 W/m 2,7 C 2,9 C 16,1 km/h (3 Bft) 95,65 %
05.03.2016 21:27 5,5 C 82 % 995,0 hPa 0,0 l/m 9,1 km/h (2 Bft) W 265 0 min 0,000 mm 0,0 UV-I 0 W/m 2,7 C 3,3 C 12,9 km/h (3 Bft) 100,00 %
05.03.2016 21:28 5,5 C 82 % 995,0 hPa 0,0 l/m 7,4 km/h (2 Bft) SW 218 0 min 0,000 mm 0,0 UV-I 0 W/m 2,7 C 4,6 C 11,3 km/h (2 Bft) 95,65 %
05.03.2016 21:29 5,5 C 82 % 995,1 hPa 0,0 l/m 8,9 km/h (2 Bft) W-SW 240 0 min 0,000 mm 0,0 UV-I 0 W/m 2,7 C 3,4 C 11,3 km/h (2 Bft) 96,30 %
05.03.2016 21:30 5,5 C 82 % 995,0 hPa 0,0 l/m 9,4 km/h (2 Bft) W-SW 250 0 min 0,000 mm 0,0 UV-I 0 W/m 2,7 C 3,1 C 12,9 km/h (3 Bft) 96,15 %
05.03.2016 21:31 5,5 C 82 % 995,1 hPa 0,0 l/m 7,6 km/h (2 Bft) W-SW 257 0 min 0,000 mm 0,0 UV-I 0 W/m 2,7 C 4,5 C 11,3 km/h (2 Bft) 100,00 %
05.03.2016 21:32 5,5 C 82 % 995,1 hPa 0,0 l/m 6,0 km/h (2 Bft) W-SW 252 0 min 0,000 mm 0,0 UV-I 0 W/m 2,7 C 5,5 C 9,7 km/h (2 Bft) 96,15 %
05.03.2016 21:33 5,4 C 82 % 995,1 hPa 0,0 l/m 5,6 km/h (1 Bft) W 261 0 min 0,000 mm 0,0 UV-I 0 W/m 2,6 C 5,4 C 8,0 km/h (2 Bft) 96,30 %
05.03.2016 21:34 5,4 C 82 % 995,1 hPa 0,0 l/m 6,0 km/h (2 Bft) W-SW 256 0 min 0,000 mm 0,0 UV-I 0 W/m 2,6 C 5,4 C 9,7 km/h (2 Bft) 100,00 %
05.03.2016 21:35 5,4 C 83 % 995,1 hPa 0,0 l/m 7,1 km/h (2 Bft) SW 230 0 min 0,000 mm 0,0 UV-I 0 W/m 2,7 C 4,8 C 11,3 km/h (2 Bft) 100,00 %
05.03.2016 21:36 5,4 C 83 % 995,1 hPa 0,0 l/m 6,8 km/h (2 Bft) W-SW 245 0 min 0,000 mm 0,0 UV-I 0 W/m 2,7 C 5,1 C 11,3 km/h (2 Bft) 100,00 %
05.03.2016 21:37 5,4 C 83 % 995,1 hPa 0,0 l/m 7,1 km/h (2 Bft) W-SW 254 0 min 0,000 mm 0,0 UV-I 0 W/m 2,7 C 4,8 C 11,3 km/h (2 Bft) 100,00 %
05.03.2016 21:38 5,4 C 83 % 995,0 hPa 0,0 l/m 5,5 km/h (1 Bft) W-SW 257 0 min 0,000 mm 0,0 UV-I 0 W/m 2,7 C 5,4 C 8,0 km/h (2 Bft) 100,00 %
05.03.2016 21:39 5,3 C 83 % 995,1 hPa 0,0 l/m 5,5 km/h (1 Bft) SW 221 0 min 0,000 mm 0,0 UV-I 0 W/m 2,7 C 5,3 C 6,4 km/h (2 Bft) 100,00 %
05.03.2016 21:40 5,3 C 83 % 995,1 hPa 0,0 l/m 9,3 km/h (2 Bft) SW 231 0 min 0,000 mm 0,0 UV-I 0 W/m 2,7 C 2,9 C 12,9 km/h (3 Bft) 100,00 %
05.03.2016 21:41 5,3 C 83 % 995,1 hPa 0,0 l/m 7,3 km/h (2 Bft) W-SW 243 0 min 0,000 mm 0,0 UV-I 0 W/m 2,7 C 4,5 C 9,7 km/h (2 Bft) 100,00 %
05.03.2016 21:42 5,3 C 83 % 995,1 hPa 0,0 l/m 6,8 km/h (2 Bft) SW 229 0 min 0,000 mm 0,0 UV-I 0 W/m 2,7 C 5,0 C 9,7 km/h (2 Bft) 96,15 %
05.03.2016 21:43 5,3 C 83 % 995,1 hPa 0,0 l/m 6,8 km/h (2 Bft) W-SW 258 0 min 0,000 mm 0,0 UV-I 0 W/m 2,7 C 5,0 C 8,0 km/h (2 Bft) 100,00 %
05.03.2016 21:44 5,3 C 83 % 995,1 hPa 0,0 l/m 6,4 km/h (2 Bft) SW 229 0 min 0,000 mm 0,0 UV-I 0 W/m 2,7 C 5,3 C 8,0 km/h (2 Bft) 100,00 %
05.03.2016 21:45 5,3 C 83 % 995,1 hPa 0,0 l/m 6,1 km/h (2 Bft) W-SW 247 0 min 0,000 mm 0,0 UV-I 0 W/m 2,7 C 5,3 C 8,0 km/h (2 Bft) 100,00 %
05.03.2016 21:46 5,2 C 83 % 995,1 hPa 0,0 l/m 6,1 km/h (2 Bft) W 263 0 min 0,000 mm 0,0 UV-I 0 W/m 2,6 C 5,2 C 9,7 km/h (2 Bft) 100,00 %
05.03.2016 21:47 5,2 C 83 % 995,1 hPa 0,0 l/m 5,1 km/h (1 Bft) W-SW 253 0 min 0,000 mm 0,0 UV-I 0 W/m 2,6 C 5,2 C 9,7 km/h (2 Bft) 100,00 %
05.03.2016 21:48 5,2 C 83 % 995,1 hPa 0,0 l/m 6,2 km/h (2 Bft) W-SW 242 0 min 0,000 mm 0,0 UV-I 0 W/m 2,6 C 5,2 C 8,0 km/h (2 Bft) 100,00 %
05.03.2016 21:49 5,2 C 84 % 995,1 hPa 0,0 l/m 7,4 km/h (2 Bft) W-SW 255 0 min 0,000 mm 0,0 UV-I 0 W/m 2,7 C 4,3 C 9,7 km/h (2 Bft) 100,00 %
05.03.2016 21:50 5,2 C 83 % 995,1 hPa 0,0 l/m 5,7 km/h (1 Bft) W-SW 250 0 min 0,000 mm 0,0 UV-I 0 W/m 2,6 C 5,2 C 8,0 km/h (2 Bft) 100,00 %
05.03.2016 21:51 5,2 C 84 % 995,2 hPa 0,0 l/m 5,2 km/h (1 Bft) W-SW 239 0 min 0,000 mm 0,0 UV-I 0 W/m 2,7 C 5,2 C 8,0 km/h (2 Bft) 100,00 %
05.03.2016 21:52 5,2 C 84 % 995,2 hPa 0,0 l/m 5,2 km/h (1 Bft) S-SW 210 0 min 0,000 mm 0,0 UV-I 0 W/m 2,7 C 5,2 C 6,4 km/h (2 Bft) 100,00 %
05.03.2016 21:53 5,2 C 84 % 995,2 hPa 0,0 l/m 6,4 km/h (2 Bft) SW 229 0 min 0,000 mm 0,0 UV-I 0 W/m 2,7 C 5,2 C 9,7 km/h (2 Bft) 100,00 %
05.03.2016 21:54 5,2 C 84 % 995,2 hPa 0,0 l/m 5,8 km/h (2 Bft) SW 225 0 min 0,000 mm 0,0 UV-I 0 W/m 2,7 C 5,2 C 8,0 km/h (2 Bft) 100,00 %
05.03.2016 21:55 5,2 C 84 % 995,2 hPa 0,0 l/m 5,8 km/h (2 Bft) W-SW 240 0 min 0,000 mm 0,0 UV-I 0 W/m 2,7 C 5,2 C 8,0 km/h (2 Bft) 96,15 %
05.03.2016 21:56 5,2 C 84 % 995,2 hPa 0,0 l/m 4,3 km/h (1 Bft) SW 225 0 min 0,000 mm 0,0 UV-I 0 W/m 2,7 C 5,2 C 6,4 km/h (2 Bft) 100,00 %
05.03.2016 21:57 5,2 C 84 % 995,2 hPa 0,0 l/m 2,6 km/h (1 Bft) SW 225 0 min 0,000 mm 0,0 UV-I 0 W/m 2,7 C 5,2 C 4,8 km/h (1 Bft) 100,00 %
05.03.2016 21:58 5,2 C 84 % 995,2 hPa 0,0 l/m 5,3 km/h (1 Bft) S-SW 209 0 min 0,000 mm 0,0 UV-I 0 W/m 2,7 C 5,2 C 6,4 km/h (2 Bft) 100,00 %
05.03.2016 21:59 5,2 C 84 % 995,3 hPa 0,0 l/m 4,0 km/h (1 Bft) S 179 0 min 0,000 mm 0,0 UV-I 0 W/m 2,7 C 5,2 C 6,4 km/h (2 Bft) 100,00 %
05.03.2016 22:00 5,2 C 84 % 995,2 hPa 0,0 l/m 3,5 km/h (1 Bft) SW 223 0 min 0,000 mm 0,0 UV-I 0 W/m 2,7 C 5,2 C 6,4 km/h (2 Bft) 100,00 %
05.03.2016 22:01 5,2 C 84 % 995,2 hPa 0,0 l/m 6,1 km/h (2 Bft) S-SW 211 0 min 0,025 mm 0,0 UV-I 0 W/m 2,7 C 5,2 C 8,0 km/h (2 Bft) 100,00 %
05.03.2016 22:02 5,2 C 84 % 995,3 hPa 0,0 l/m 5,9 km/h (2 Bft) S-SW 207 0 min 0,000 mm 0,0 UV-I 0 W/m 2,7 C 5,2 C 8,0 km/h (2 Bft) 100,00 %
05.03.2016 22:03 5,2 C 84 % 995,2 hPa 0,0 l/m 4,0 km/h (1 Bft) SW 221 0 min 0,000 mm 0,0 UV-I 0 W/m 2,7 C 5,2 C 6,4 km/h (2 Bft) 92,31 %
05.03.2016 22:04 5,2 C 84 % 995,3 hPa 0,0 l/m 4,6 km/h (1 Bft) S-SW 202 0 min 0,000 mm 0,0 UV-I 0 W/m 2,7 C 5,2 C 6,4 km/h (2 Bft) 100,00 %
05.03.2016 22:05 5,2 C 84 % 995,2 hPa 0,0 l/m 4,7 km/h (1 Bft) S-SW 202 0 min 0,000 mm 0,0 UV-I 0 W/m 2,7 C 5,2 C 6,4 km/h (2 Bft) 100,00 %
05.03.2016 22:06 5,2 C 84 % 995,3 hPa 0,0 l/m 3,5 km/h (1 Bft) S-SW 202 0 min 0,000 mm 0,0 UV-I 0 W/m 2,7 C 5,2 C 4,8 km/h (1 Bft) 100,00 %
05.03.2016 22:07 5,2 C 84 % 995,2 hPa 0,0 l/m 4,9 km/h (1 Bft) S-SW 203 0 min 0,000 mm 0,0 UV-I 0 W/m 2,7 C 5,2 C 6,4 km/h (2 Bft) 100,00 %
05.03.2016 22:08 5,2 C 84 % 995,3 hPa 0,0 l/m 4,0 km/h (1 Bft) S-SW 203 0 min 0,000 mm 0,0 UV-I 0 W/m 2,7 C 5,2 C 4,8 km/h (1 Bft) 100,00 %
05.03.2016 22:09 5,2 C 84 % 995,3 hPa 0,0 l/m 3,3 km/h (1 Bft) S-SW 211 0 min 0,000 mm 0,0 UV-I 0 W/m 2,7 C 5,2 C 4,8 km/h (1 Bft) 100,00 %
05.03.2016 22:10 5,2 C 84 % 995,3 hPa 0,0 l/m 4,6 km/h (1 Bft) SW 218 0 min 0,000 mm 0,0 UV-I 0 W/m 2,7 C 5,2 C 6,4 km/h (2 Bft) 100,00 %
05.03.2016 22:11 5,2 C 84 % 995,3 hPa 0,0 l/m 5,1 km/h (1 Bft) SW 223 0 min 0,000 mm 0,0 UV-I 0 W/m 2,7 C 5,2 C 6,4 km/h (2 Bft) 96,67 %
05.03.2016 22:12 5,2 C 84 % 995,3 hPa 0,0 l/m 4,2 km/h (1 Bft) SW 222 0 min 0,000 mm 0,0 UV-I 0 W/m 2,7 C 5,2 C 6,4 km/h (2 Bft) 100,00 %
05.03.2016 22:13 5,1 C 84 % 995,3 hPa 0,0 l/m 4,7 km/h (1 Bft) SW 223 0 min 0,000 mm 0,0 UV-I 0 W/m 2,6 C 5,1 C 6,4 km/h (2 Bft) 100,00 %
05.03.2016 22:14 5,1 C 84 % 995,2 hPa 0,0 l/m 4,3 km/h (1 Bft) SW 227 0 min 0,000 mm 0,0 UV-I 0 W/m 2,6 C 5,1 C 8,0 km/h (2 Bft) 100,00 %
05.03.2016 22:15 5,1 C 84 % 995,2 hPa 0,0 l/m 5,3 km/h (1 Bft) SW 223 0 min 0,000 mm 0,0 UV-I 0 W/m 2,6 C 5,1 C 6,4 km/h (2 Bft) 100,00 %
05.03.2016 22:16 5,1 C 84 % 995,2 hPa 0,0 l/m 4,1 km/h (1 Bft) SW 234 0 min 0,000 mm 0,0 UV-I 0 W/m 2,6 C 5,1 C 4,8 km/h (1 Bft) 100,00 %
05.03.2016 22:17 5,1 C 84 % 995,2 hPa 0,0 l/m 4,7 km/h (1 Bft) SW 227 0 min 0,000 mm 0,0 UV-I 0 W/m 2,6 C 5,1 C 8,0 km/h (2 Bft) 100,00 %
05.03.2016 22:18 5,0 C 84 % 995,2 hPa 0,0 l/m 4,2 km/h (1 Bft) S-SW 206 0 min 0,000 mm 0,0 UV-I 0 W/m 2,5 C 5,0 C 8,0 km/h (2 Bft) 100,00 %
05.03.2016 22:19 5,0 C 84 % 995,2 hPa 0,0 l/m 3,4 km/h (1 Bft) S-SW 211 0 min 0,000 mm 0,0 UV-I 0 W/m 2,5 C 5,0 C 4,8 km/h (1 Bft) 100,00 %
05.03.2016 22:20 4,9 C 85 % 995,1 hPa 0,0 l/m 4,0 km/h (1 Bft) S 171 0 min 0,000 mm 0,0 UV-I 0 W/m 2,6 C 4,9 C 8,0 km/h (2 Bft) 100,00 %
05.03.2016 22:21 4,9 C 85 % 995,1 hPa 0,0 l/m 5,0 km/h (1 Bft) S 191 0 min 0,000 mm 0,0 UV-I 0 W/m 2,6 C 4,9 C 8,0 km/h (2 Bft) 100,00 %
05.03.2016 22:22 4,9 C 85 % 995,1 hPa 0,0 l/m 3,2 km/h (1 Bft) S 191 0 min 0,000 mm 0,0 UV-I 0 W/m 2,6 C 4,9 C 4,8 km/h (1 Bft) 100,00 %
05.03.2016 22:23 4,8 C 85 % 995,1 hPa 0,0 l/m 4,7 km/h (1 Bft) S-SW 194 0 min 0,000 mm 0,0 UV-I 0 W/m 2,5 C 4,8 C 4,8 km/h (1 Bft) 100,00 %
05.03.2016 22:24 4,8 C 85 % 995,2 hPa 0,0 l/m 3,0 km/h (1 Bft) S-SW 194 0 min 0,000 mm 0,0 UV-I 0 W/m 2,5 C 4,8 C 4,8 km/h (1 Bft) 100,00 %
05.03.2016 22:25 4,8 C 85 % 995,2 hPa 0,0 l/m 4,6 km/h (1 Bft) S-SW 201 0 min 0,000 mm 0,0 UV-I 0 W/m 2,5 C 4,8 C 6,4 km/h (2 Bft) 100,00 %
05.03.2016 22:26 4,8 C 85 % 995,2 hPa 0,0 l/m 5,9 km/h (2 Bft) S-SW 206 0 min 0,000 mm 0,0 UV-I 0 W/m 2,5 C 4,8 C 6,4 km/h (2 Bft) 100,00 %
05.03.2016 22:27 4,7 C 85 % 995,3 hPa 0,0 l/m 5,7 km/h (1 Bft) S-SW 202 0 min 0,000 mm 0,0 UV-I 0 W/m 2,4 C 4,7 C 8,0 km/h (2 Bft) 100,00 %
05.03.2016 22:28 4,7 C 85 % 995,2 hPa 0,0 l/m 5,6 km/h (1 Bft) S-SW 210 0 min 0,000 mm 0,0 UV-I 0 W/m 2,4 C 4,7 C 8,0 km/h (2 Bft) 100,00 %
05.03.2016 22:29 4,7 C 85 % 995,2 hPa 0,0 l/m 4,6 km/h (1 Bft) S-SW 210 0 min 0,000 mm 0,0 UV-I 0 W/m 2,4 C 4,7 C 6,4 km/h (2 Bft) 100,00 %
05.03.2016 22:30 4,7 C 86 % 995,2 hPa 0,0 l/m 4,7 km/h (1 Bft) SW 225 0 min 0,000 mm 0,0 UV-I 0 W/m 2,6 C 4,7 C 6,4 km/h (2 Bft) 100,00 %
05.03.2016 22:31 4,7 C 86 % 995,2 hPa 0,0 l/m 4,6 km/h (1 Bft) SW 217 0 min 0,000 mm 0,0 UV-I 0 W/m 2,6 C 4,7 C 6,4 km/h (2 Bft) 100,00 %
05.03.2016 22:32 4,7 C 86 % 995,1 hPa 0,0 l/m 5,3 km/h (1 Bft) SW 227 0 min 0,000 mm 0,0 UV-I 0 W/m 2,6 C 4,7 C 6,4 km/h (2 Bft) 100,00 %
05.03.2016 22:33 4,7 C 86 % 995,1 hPa 0,0 l/m 4,0 km/h (1 Bft) SW 227 0 min 0,000 mm 0,0 UV-I 0 W/m 2,6 C 4,7 C 4,8 km/h (1 Bft) 100,00 %
05.03.2016 22:34 4,7 C 86 % 995,1 hPa 0,0 l/m 3,1 km/h (1 Bft) SW 225 0 min 0,000 mm 0,0 UV-I 0 W/m 2,6 C 4,7 C 4,8 km/h (1 Bft) 95,83 %
05.03.2016 22:35 4,7 C 86 % 995,1 hPa 0,0 l/m 4,1 km/h (1 Bft) S-SW 213 0 min 0,000 mm 0,0 UV-I 0 W/m 2,6 C 4,7 C 6,4 km/h (2 Bft) 91,30 %
05.03.2016 22:36 4,7 C 86 % 995,1 hPa 0,0 l/m 5,4 km/h (1 Bft) SW 218 0 min 0,000 mm 0,0 UV-I 0 W/m 2,6 C 4,7 C 8,0 km/h (2 Bft) 100,00 %
05.03.2016 22:37 4,7 C 86 % 995,1 hPa 0,0 l/m 5,6 km/h (1 Bft) SW 226 0 min 0,000 mm 0,0 UV-I 0 W/m 2,6 C 4,7 C 9,7 km/h (2 Bft) 100,00 %
05.03.2016 22:38 4,6 C 86 % 995,1 hPa 0,0 l/m 4,4 km/h (1 Bft) SW 221 0 min 0,000 mm 0,0 UV-I 0 W/m 2,5 C 4,6 C 6,4 km/h (2 Bft) 100,00 %
05.03.2016 22:39 4,6 C 86 % 995,1 hPa 0,0 l/m 5,0 km/h (1 Bft) S-SW 200 0 min 0,000 mm 0,0 UV-I 0 W/m 2,5 C 4,6 C 6,4 km/h (2 Bft) 100,00 %
05.03.2016 22:40 4,6 C 86 % 995,1 hPa 0,0 l/m 6,7 km/h (2 Bft) SW 219 0 min 0,000 mm 0,0 UV-I 0 W/m 2,5 C 4,3 C 8,0 km/h (2 Bft) 100,00 %
05.03.2016 22:41 4,7 C 86 % 995,1 hPa 0,0 l/m 7,1 km/h (2 Bft) SW 217 0 min 0,000 mm 0,0 UV-I 0 W/m 2,6 C 4,1 C 9,7 km/h (2 Bft) 100,00 %
05.03.2016 22:42 4,7 C 86 % 995,1 hPa 0,0 l/m 4,2 km/h (1 Bft) SW 214 0 min 0,000 mm 0,0 UV-I 0 W/m 2,6 C 4,7 C 6,4 km/h (2 Bft) 100,00 %
05.03.2016 22:43 4,7 C 85 % 995,1 hPa 0,0 l/m 4,1 km/h (1 Bft) SW 229 0 min 0,000 mm 0,0 UV-I 0 W/m 2,4 C 4,7 C 8,0 km/h (2 Bft) 100,00 %
05.03.2016 22:44 4,7 C 85 % 995,1 hPa 0,0 l/m 5,8 km/h (2 Bft) SW 218 0 min 0,000 mm 0,0 UV-I 0 W/m 2,4 C 4,7 C 8,0 km/h (2 Bft) 100,00 %
05.03.2016 22:45 4,7 C 85 % 995,1 hPa 0,0 l/m 5,6 km/h (1 Bft) S-SW 207 0 min 0,000 mm 0,0 UV-I 0 W/m 2,4 C 4,7 C 8,0 km/h (2 Bft) 100,00 %
05.03.2016 22:46 4,7 C 85 % 995,1 hPa 0,0 l/m 6,1 km/h (2 Bft) SW 234 0 min 0,000 mm 0,0 UV-I 0 W/m 2,4 C 4,7 C 8,0 km/h (2 Bft) 94,12 %
05.03.2016 22:47 4,7 C 85 % 995,0 hPa 0,0 l/m 5,0 km/h (1 Bft) SW 229 0 min 0,000 mm 0,0 UV-I 0 W/m 2,4 C 4,7 C 6,4 km/h (2 Bft) 100,00 %
05.03.2016 22:48 4,7 C 85 % 995,0 hPa 0,0 l/m 6,0 km/h (2 Bft) SW 232 0 min 0,000 mm 0,0 UV-I 0 W/m 2,4 C 4,7 C 8,0 km/h (2 Bft) 100,00 %
05.03.2016 22:49 4,7 C 85 % 995,0 hPa 0,0 l/m 5,5 km/h (1 Bft) SW 215 0 min 0,000 mm 0,0 UV-I 0 W/m 2,4 C 4,7 C 8,0 km/h (2 Bft) 100,00 %
05.03.2016 22:50 4,7 C 85 % 995,0 hPa 0,0 l/m 5,9 km/h (2 Bft) SW 225 0 min 0,000 mm 0,0 UV-I 0 W/m 2,4 C 4,7 C 8,0 km/h (2 Bft) 100,00 %
05.03.2016 22:51 4,7 C 85 % 995,1 hPa 0,0 l/m 6,0 km/h (2 Bft) SW 227 0 min 0,000 mm 0,0 UV-I 0 W/m 2,4 C 4,7 C 8,0 km/h (2 Bft) 100,00 %
05.03.2016 22:52 4,6 C 86 % 995,1 hPa 0,0 l/m 5,1 km/h (1 Bft) SW 235 0 min 0,000 mm 0,0 UV-I 0 W/m 2,5 C 4,6 C 8,0 km/h (2 Bft) 100,00 %
05.03.2016 22:53 4,6 C 86 % 995,1 hPa 0,0 l/m 5,0 km/h (1 Bft) SW 222 0 min 0,000 mm 0,0 UV-I 0 W/m 2,5 C 4,6 C 6,4 km/h (2 Bft) 100,00 %
05.03.2016 22:54 4,6 C 86 % 995,0 hPa 0,0 l/m 4,7 km/h (1 Bft) SW 223 0 min 0,000 mm 0,0 UV-I 0 W/m 2,5 C 4,6 C 6,4 km/h (2 Bft) 100,00 %
05.03.2016 22:55 4,6 C 86 % 995,1 hPa 0,0 l/m 5,8 km/h (2 Bft) SW 222 0 min 0,000 mm 0,0 UV-I 0 W/m 2,5 C 4,6 C 9,7 km/h (2 Bft) 100,00 %
05.03.2016 22:56 4,6 C 86 % 995,1 hPa 0,0 l/m 6,2 km/h (2 Bft) SW 214 0 min 0,000 mm 0,0 UV-I 0 W/m 2,5 C 4,6 C 9,7 km/h (2 Bft) 100,00 %
05.03.2016 22:57 4,5 C 86 % 995,1 hPa 0,0 l/m 6,5 km/h (2 Bft) SW 221 0 min 0,000 mm 0,0 UV-I 0 W/m 2,4 C 4,4 C 8,0 km/h (2 Bft) 100,00 %
05.03.2016 22:58 4,6 C 86 % 995,1 hPa 0,0 l/m 6,7 km/h (2 Bft) SW 227 0 min 0,000 mm 0,0 UV-I 0 W/m 2,5 C 4,3 C 8,0 km/h (2 Bft) 100,00 %
05.03.2016 22:59 4,5 C 86 % 995,1 hPa 0,0 l/m 5,9 km/h (2 Bft) SW 214 0 min 0,000 mm 0,0 UV-I 0 W/m 2,4 C 4,5 C 6,4 km/h (2 Bft) 100,00 %
05.03.2016 23:00 4,6 C 86 % 995,1 hPa 0,0 l/m 5,9 km/h (2 Bft) S-SW 211 0 min 0,000 mm 0,0 UV-I 0 W/m 2,5 C 4,6 C 8,0 km/h (2 Bft) 100,00 %
05.03.2016 23:01 4,6 C 86 % 995,1 hPa 0,0 l/m 6,9 km/h (2 Bft) SW 227 0 min 0,000 mm 0,0 UV-I 0 W/m 2,5 C 4,2 C 9,7 km/h (2 Bft) 100,00 %
05.03.2016 23:02 4,6 C 86 % 995,1 hPa 0,0 l/m 6,0 km/h (2 Bft) SW 235 0 min 0,000 mm 0,0 UV-I 0 W/m 2,5 C 4,6 C 9,7 km/h (2 Bft) 96,30 %
05.03.2016 23:03 4,6 C 86 % 995,1 hPa 0,0 l/m 5,8 km/h (2 Bft) SW 225 0 min 0,000 mm 0,0 UV-I 0 W/m 2,5 C 4,6 C 9,7 km/h (2 Bft) 100,00 %
05.03.2016 23:04 4,6 C 86 % 995,1 hPa 0,0 l/m 4,6 km/h (1 Bft) SW 223 0 min 0,000 mm 0,0 UV-I 0 W/m 2,5 C 4,6 C 6,4 km/h (2 Bft) 100,00 %
05.03.2016 23:05 4,6 C 86 % 995,0 hPa 0,0 l/m 6,4 km/h (2 Bft) SW 227 0 min 0,000 mm 0,0 UV-I 0 W/m 2,5 C 4,6 C 9,7 km/h (2 Bft) 92,31 %
05.03.2016 23:06 4,6 C 86 % 995,0 hPa 0,0 l/m 5,6 km/h (1 Bft) SW 215 0 min 0,000 mm 0,0 UV-I 0 W/m 2,5 C 4,6 C 8,0 km/h (2 Bft) 96,30 %
05.03.2016 23:07 4,5 C 86 % 995,0 hPa 0,0 l/m 5,6 km/h (1 Bft) S-SW 207 0 min 0,000 mm 0,0 UV-I 0 W/m 2,4 C 4,5 C 8,0 km/h (2 Bft) 100,00 %
05.03.2016 23:08 4,5 C 86 % 995,0 hPa 0,0 l/m 5,6 km/h (1 Bft) SW 234 0 min 0,000 mm 0,0 UV-I 0 W/m 2,4 C 4,5 C 8,0 km/h (2 Bft) 96,30 %
05.03.2016 23:09 4,5 C 86 % 995,0 hPa 0,0 l/m 6,1 km/h (2 Bft) SW 216 0 min 0,000 mm 0,0 UV-I 0 W/m 2,4 C 4,5 C 8,0 km/h (2 Bft) 100,00 %
05.03.2016 23:10 4,5 C 86 % 995,0 hPa 0,0 l/m 6,0 km/h (2 Bft) SW 219 0 min 0,000 mm 0,0 UV-I 0 W/m 2,4 C 4,5 C 8,0 km/h (2 Bft) 97,62 %
05.03.2016 23:11 4,4 C 86 % 995,0 hPa 0,0 l/m 4,3 km/h (1 Bft) SW 225 0 min 0,000 mm 0,0 UV-I 0 W/m 2,3 C 4,4 C 8,0 km/h (2 Bft) 100,00 %
05.03.2016 23:12 4,4 C 86 % 995,0 hPa 0,0 l/m 4,7 km/h (1 Bft) SW 220 0 min 0,000 mm 0,0 UV-I 0 W/m 2,3 C 4,4 C 4,8 km/h (1 Bft) 96,67 %
05.03.2016 23:13 4,4 C 86 % 995,0 hPa 0,0 l/m 5,1 km/h (1 Bft) S-SW 198 0 min 0,000 mm 0,0 UV-I 0 W/m 2,3 C 4,4 C 6,4 km/h (2 Bft) 96,15 %
05.03.2016 23:14 4,4 C 86 % 995,0 hPa 0,0 l/m 4,4 km/h (1 Bft) S-SW 206 0 min 0,000 mm 0,0 UV-I 0 W/m 2,3 C 4,4 C 6,4 km/h (2 Bft) 100,00 %
05.03.2016 23:15 4,4 C 86 % 995,1 hPa 0,0 l/m 5,2 km/h (1 Bft) SW 221 0 min 0,000 mm 0,0 UV-I 0 W/m 2,3 C 4,4 C 8,0 km/h (2 Bft) 95,65 %
05.03.2016 23:16 4,4 C 86 % 995,1 hPa 0,0 l/m 3,6 km/h (1 Bft) SW 217 0 min 0,000 mm 0,0 UV-I 0 W/m 2,3 C 4,4 C 4,8 km/h (1 Bft) 98,67 %
05.03.2016 23:17 4,4 C 86 % 995,1 hPa 0,0 l/m 5,8 km/h (2 Bft) S-SW 198 0 min 0,000 mm 0,0 UV-I 0 W/m 2,3 C 4,4 C 6,4 km/h (2 Bft) 97,56 %
05.03.2016 23:18 4,4 C 86 % 995,0 hPa 0,0 l/m 4,5 km/h (1 Bft) S 191 0 min 0,000 mm 0,0 UV-I 0 W/m 2,3 C 4,4 C 8,0 km/h (2 Bft) 100,00 %
05.03.2016 23:19 4,4 C 86 % 995,0 hPa 0,0 l/m 4,6 km/h (1 Bft) S-SW 193 0 min 0,000 mm 0,0 UV-I 0 W/m 2,3 C 4,4 C 6,4 km/h (2 Bft) 95,65 %
05.03.2016 23:20 4,4 C 86 % 995,0 hPa 0,0 l/m 2,1 km/h (1 Bft) S-SW 193 0 min 0,000 mm 0,0 UV-I 0 W/m 2,3 C 4,4 C 3,2 km/h (1 Bft) 100,00 %
05.03.2016 23:21 4,4 C 86 % 995,0 hPa 0,0 l/m 2,2 km/h (1 Bft) S-SW 193 0 min 0,000 mm 0,0 UV-I 0 W/m 2,3 C 4,4 C 4,8 km/h (1 Bft) 95,83 %
05.03.2016 23:22 4,4 C 86 % 994,9 hPa 0,0 l/m 2,5 km/h (1 Bft) S-SW 194 0 min 0,000 mm 0,0 UV-I 0 W/m 2,3 C 4,4 C 4,8 km/h (1 Bft) 96,15 %
05.03.2016 23:23 4,4 C 86 % 995,0 hPa 0,0 l/m 4,0 km/h (1 Bft) S-SW 199 0 min 0,000 mm 0,0 UV-I 0 W/m 2,3 C 4,4 C 4,8 km/h (1 Bft) 100,00 %
05.03.2016 23:24 4,4 C 86 % 995,0 hPa 0,0 l/m 4,1 km/h (1 Bft) S-SW 206 0 min 0,000 mm 0,0 UV-I 0 W/m 2,3 C 4,4 C 4,8 km/h (1 Bft) 100,00 %
05.03.2016 23:25 4,4 C 86 % 995,0 hPa 0,0 l/m 3,8 km/h (1 Bft) S-SW 206 0 min 0,000 mm 0,0 UV-I 0 W/m 2,3 C 4,4 C 4,8 km/h (1 Bft) 96,30 %
05.03.2016 23:26 4,4 C 86 % 994,9 hPa 0,0 l/m 2,8 km/h (1 Bft) S-SW 206 0 min 0,000 mm 0,0 UV-I 0 W/m 2,3 C 4,4 C 4,8 km/h (1 Bft) 92,31 %
05.03.2016 23:27 4,4 C 86 % 994,9 hPa 0,0 l/m 3,7 km/h (1 Bft) SW 230 0 min 0,000 mm 0,0 UV-I 0 W/m 2,3 C 4,4 C 4,8 km/h (1 Bft) 100,00 %
05.03.2016 23:28 4,4 C 86 % 994,9 hPa 0,0 l/m 4,6 km/h (1 Bft) SW 230 0 min 0,000 mm 0,0 UV-I 0 W/m 2,3 C 4,4 C 6,4 km/h (2 Bft) 95,65 %
05.03.2016 23:29 4,4 C 86 % 994,9 hPa 0,0 l/m 4,7 km/h (1 Bft) SW 224 0 min 0,000 mm 0,0 UV-I 0 W/m 2,3 C 4,4 C 6,4 km/h (2 Bft) 100,00 %
05.03.2016 23:30 4,4 C 86 % 994,8 hPa 0,0 l/m 3,2 km/h (1 Bft) SW 224 0 min 0,000 mm 0,0 UV-I 0 W/m 2,3 C 4,4 C 4,8 km/h (1 Bft) 96,15 %
05.03.2016 23:31 4,4 C 86 % 994,8 hPa 0,0 l/m 4,3 km/h (1 Bft) SW 224 0 min 0,000 mm 0,0 UV-I 0 W/m 2,3 C 4,4 C 4,8 km/h (1 Bft) 96,30 %
05.03.2016 23:32 4,4 C 86 % 994,8 hPa 0,0 l/m 3,8 km/h (1 Bft) SW 224 0 min 0,000 mm 0,0 UV-I 0 W/m 2,3 C 4,4 C 4,8 km/h (1 Bft) 100,00 %
05.03.2016 23:33 4,3 C 86 % 994,8 hPa 0,0 l/m 4,0 km/h (1 Bft) SW 224 0 min 0,000 mm 0,0 UV-I 0 W/m 2,2 C 4,3 C 4,8 km/h (1 Bft) 95,83 %
05.03.2016 23:34 4,3 C 86 % 994,8 hPa 0,0 l/m 4,7 km/h (1 Bft) S-SW 210 0 min 0,000 mm 0,0 UV-I 0 W/m 2,2 C 4,3 C 6,4 km/h (2 Bft) 95,65 %
05.03.2016 23:35 4,3 C 86 % 994,8 hPa 0,0 l/m 5,2 km/h (1 Bft) S-SW 212 0 min 0,000 mm 0,0 UV-I 0 W/m 2,2 C 4,3 C 8,0 km/h (2 Bft) 95,83 %
05.03.2016 23:36 4,3 C 86 % 994,9 hPa 0,0 l/m 4,8 km/h (1 Bft) SW 234 0 min 0,000 mm 0,0 UV-I 0 W/m 2,2 C 4,3 C 6,4 km/h (2 Bft) 100,00 %
05.03.2016 23:37 4,3 C 86 % 994,9 hPa 0,0 l/m 4,0 km/h (1 Bft) SW 227 0 min 0,000 mm 0,0 UV-I 0 W/m 2,2 C 4,3 C 4,8 km/h (1 Bft) 95,83 %
05.03.2016 23:38 4,3 C 86 % 994,9 hPa 0,0 l/m 4,2 km/h (1 Bft) SW 226 0 min 0,000 mm 0,0 UV-I 0 W/m 2,2 C 4,3 C 4,8 km/h (1 Bft) 92,31 %
05.03.2016 23:39 4,2 C 86 % 994,9 hPa 0,0 l/m 6,2 km/h (2 Bft) SW 234 0 min 0,000 mm 0,0 UV-I 0 W/m 2,1 C 4,2 C 9,7 km/h (2 Bft) 100,00 %
05.03.2016 23:40 4,2 C 87 % 994,7 hPa 0,0 l/m 5,0 km/h (1 Bft) SW 230 0 min 0,000 mm 0,0 UV-I 0 W/m 2,2 C 4,2 C 6,4 km/h (2 Bft) 100,00 %
05.03.2016 23:41 4,2 C 87 % 994,7 hPa 0,0 l/m 4,1 km/h (1 Bft) SW 230 0 min 0,000 mm 0,0 UV-I 0 W/m 2,2 C 4,2 C 6,4 km/h (2 Bft) 100,00 %
05.03.2016 23:42 4,2 C 87 % 994,7 hPa 0,0 l/m 3,6 km/h (1 Bft) SW 231 0 min 0,000 mm 0,0 UV-I 0 W/m 2,2 C 4,2 C 4,8 km/h (1 Bft) 100,00 %
05.03.2016 23:43 4,2 C 87 % 994,7 hPa 0,0 l/m 4,3 km/h (1 Bft) W-SW 240 0 min 0,000 mm 0,0 UV-I 0 W/m 2,2 C 4,2 C 6,4 km/h (2 Bft) 100,00 %
05.03.2016 23:44 4,2 C 87 % 994,7 hPa 0,0 l/m 4,8 km/h (1 Bft) SW 232 0 min 0,000 mm 0,0 UV-I 0 W/m 2,2 C 4,2 C 6,4 km/h (2 Bft) 100,00 %
05.03.2016 23:45 4,2 C 87 % 994,7 hPa 0,0 l/m 5,3 km/h (1 Bft) SW 224 0 min 0,000 mm 0,0 UV-I 0 W/m 2,2 C 4,2 C 6,4 km/h (2 Bft) 100,00 %
05.03.2016 23:46 4,2 C 87 % 994,7 hPa 0,0 l/m 5,9 km/h (2 Bft) SW 231 0 min 0,000 mm 0,0 UV-I 0 W/m 2,2 C 4,2 C 8,0 km/h (2 Bft) 100,00 %
05.03.2016 23:47 4,1 C 87 % 994,8 hPa 0,0 l/m 4,3 km/h (1 Bft) SW 229 0 min 0,000 mm 0,0 UV-I 0 W/m 2,1 C 4,1 C 4,8 km/h (1 Bft) 96,15 %
05.03.2016 23:48 4,1 C 87 % 994,7 hPa 0,0 l/m 4,4 km/h (1 Bft) SW 225 0 min 0,000 mm 0,0 UV-I 0 W/m 2,1 C 4,1 C 6,4 km/h (2 Bft) 100,00 %
05.03.2016 23:49 4,1 C 87 % 994,8 hPa 0,0 l/m 6,4 km/h (2 Bft) SW 226 0 min 0,000 mm 0,0 UV-I 0 W/m 2,1 C 4,1 C 8,0 km/h (2 Bft) 92,86 %
05.03.2016 23:50 4,1 C 87 % 994,8 hPa 0,0 l/m 6,0 km/h (2 Bft) SW 224 0 min 0,000 mm 0,0 UV-I 0 W/m 2,1 C 4,1 C 8,0 km/h (2 Bft) 100,00 %
05.03.2016 23:51 4,1 C 87 % 994,8 hPa 0,0 l/m 5,5 km/h (1 Bft) SW 229 0 min 0,000 mm 0,0 UV-I 0 W/m 2,1 C 4,1 C 8,0 km/h (2 Bft) 100,00 %
05.03.2016 23:52 4,1 C 87 % 994,8 hPa 0,0 l/m 5,4 km/h (1 Bft) SW 221 0 min 0,000 mm 0,0 UV-I 0 W/m 2,1 C 4,1 C 8,0 km/h (2 Bft) 100,00 %
05.03.2016 23:53 4,1 C 87 % 994,8 hPa 0,0 l/m 6,2 km/h (2 Bft) SW 233 0 min 0,000 mm 0,0 UV-I 0 W/m 2,1 C 4,1 C 6,4 km/h (2 Bft) 100,00 %
05.03.2016 23:54 4,1 C 87 % 994,8 hPa 0,0 l/m 6,3 km/h (2 Bft) W-SW 238 0 min 0,000 mm 0,0 UV-I 0 W/m 2,1 C 4,1 C 8,0 km/h (2 Bft) 100,00 %
05.03.2016 23:55 4,0 C 88 % 994,8 hPa 0,0 l/m 4,4 km/h (1 Bft) W-SW 242 0 min 0,000 mm 0,0 UV-I 0 W/m 2,2 C 4,0 C 6,4 km/h (2 Bft) 100,00 %
05.03.2016 23:56 4,0 C 88 % 994,8 hPa 0,0 l/m 4,3 km/h (1 Bft) SW 225 0 min 0,000 mm 0,0 UV-I 0 W/m 2,2 C 4,0 C 6,4 km/h (2 Bft) 100,00 %
05.03.2016 23:57 4,0 C 87 % 994,8 hPa 0,0 l/m 5,1 km/h (1 Bft) SW 219 0 min 0,000 mm 0,0 UV-I 0 W/m 2,0 C 4,0 C 6,4 km/h (2 Bft) 100,00 %
05.03.2016 23:58 4,1 C 88 % 994,8 hPa 0,0 l/m 5,5 km/h (1 Bft) SW 218 0 min 0,000 mm 0,0 UV-I 0 W/m 2,3 C 4,1 C 8,0 km/h (2 Bft) 100,00 %
05.03.2016 23:59 4,0 C 88 % 994,9 hPa 0,0 l/m 4,8 km/h (1 Bft) SW 215 0 min 0,000 mm 0,0 UV-I 0 W/m 2,2 C 4,0 C 6,4 km/h (2 Bft) 100,00 %
_ Min-Zeit 05:24 15:11 18:24 - 00:38 - - - - - - 05:24 08:54 00:38 06:35
Minimum _ -1,2 C 70 % 992,7 hPa - 0,0 km/h (0 Bft) - - - - - - -2,0 C -6,1 C 0,0 km/h (0 Bft) 82,61 %
_ Max-Zeit 13:21 05:29 00:00 00:00 14:45 - - 15:28 12:00 12:20 11:07 13:16 13:22 14:45 00:00
Maximum _ 9,1 C 95 % 998,8 hPa 0,0 l/m 19,5 km/h
NO (3 Bft)
- - 3 min 0,254 mm 2,5 UV-I 710 W/m 5,5 C 9,1 C 25,7 km/h
NO (4 Bft)
100,00 %
Durchschnitt _ 4,1 C 85 % 995,5 hPa #0,0 l/m 7,3 km/h (2 Bft) O-NO - #6:59 h #1,524 mm 1,4 UV-I 278 W/m 1,6 C 2,5 C 10,1 km/h (2 Bft) 98,68 %